GFSMW_250_spd_000.txt.gz
Wind_Speed
39 40 35 35 40 37 41 44 51 55 49 52 54 58 55 46 47 57 63 71 82 88 89 89 93 98 93 91 99 98 99 98 96 105 98 96 96 90 84 77 81 86 84
49 50 40 45 49 55 55 56 57 52 50 57 55 60 53 56 57 53 55 53 78 90 96 100 97 99 107 103 101 109 108 108 110 110 106 104 97 95 92 89 87 88 94
52 54 52 55 57 58 57 60 58 67 65 63 69 59 57 54 57 58 63 60 57 80 93 104 106 107 107 114 115 112 113 117 116 118 118 112 103 102 101 95 94 92 91
52 55 57 56 58 59 61 63 64 66 67 77 77 83 74 61 55 59 65 68 65 67 61 98 104 117 119 119 121 123 123 122 123 124 121 121 115 107 105 107 105 102 96
57 56 58 57 58 61 64 66 70 72 70 76 85 84 84 71 64 57 60 62 69 72 71 68 82 107 114 128 131 130 131 134 133 134 132 128 125 117 116 114 111 109 106
53 55 56 56 61 65 66 67 70 73 77 85 83 88 88 79 74 69 64 63 66 69 73 72 74 79 91 109 126 138 141 141 141 142 144 142 139 136 129 123 119 113 111
53 53 51 57 60 64 67 69 72 76 83 87 92 90 89 89 77 73 65 65 66 71 71 73 75 76 77 86 92 113 129 145 151 150 148 151 152 148 146 140 129 125 119
58 61 62 62 66 70 68 70 73 81 85 96 97 95 92 93 79 74 68 68 71 71 71 72 76 75 76 80 85 90 102 120 120 138 151 160 163 157 155 154 144 134 128
65 67 70 72 78 80 79 78 81 87 92 101 101 102 97 92 80 73 68 68 68 70 70 69 73 77 78 78 79 82 88 96 106 115 130 147 154 156 156 161 159 146 137
73 74 79 79 83 86 89 87 86 91 97 108 107 111 100 97 82 74 69 67 67 69 69 68 69 72 76 80 83 85 87 89 93 99 107 116 125 135 138 138 154 161 158
76 83 85 86 89 94 95 95 95 94 102 111 116 114 107 97 85 76 71 68 67 68 68 69 70 73 76 80 82 84 86 87 89 91 94 99 106 112 116 112 110 127 152
77 79 84 90 93 99 100 102 102 102 107 113 118 122 104 93 83 76 72 69 67 67 67 68 70 73 75 78 80 83 86 88 89 92 96 98 102 102 104 98 95 98 110
78 88 91 96 98 103 104 106 107 107 112 120 123 117 98 89 80 75 72 70 68 68 67 67 69 72 75 77 80 81 81 83 83 84 86 87 92 90 92 91 87 87 98
90 94 95 96 99 103 105 105 109 111 115 118 122 112 97 87 78 72 69 68 67 68 68 70 71 72 72 73 74 74 73 73 74 75 76 77 80 81 83 79 75 81 86
92 92 92 95 103 105 107 107 110 113 117 122 121 107 94 82 74 70 69 68 67 68 70 70 70 68 69 70 67 66 65 65 65 65 65 65 67 70 72 72 67 72 76
96 98 101 102 111 112 112 112 115 116 120 124 117 105 90 79 74 70 69 69 69 70 70 67 66 67 66 62 61 59 58 58 58 59 59 59 59 61 64 65 66 67 71
97 101 104 106 111 118 117 117 118 117 121 123 113 99 85 77 72 70 69 69 69 69 66 64 63 60 59 57 55 53 53 54 55 55 55 55 56 56 58 60 61 63 67
103 108 111 109 117 121 123 122 123 121 121 122 105 92 79 74 71 69 69 69 68 64 62 60 57 55 53 51 49 49 50 50 50 49 49 51 50 51 52 55 57 60 63
111 113 116 117 122 125 127 129 127 125 124 112 97 86 77 72 70 70 69 68 64 61 58 54 53 50 47 47 45 44 44 45 46 45 44 44 46 45 46 51 53 57 62
116 120 120 120 126 129 130 132 128 124 119 101 91 82 76 71 69 69 68 65 60 56 54 50 48 45 44 41 39 38 40 41 42 41 41 40 42 42 42 48 51 54 59
122 124 125 126 129 133 133 131 126 121 104 93 84 79 74 70 69 68 65 61 57 52 49 46 44 43 41 36 34 35 37 39 39 40 39 38 39 39 39 44 48 51 54
123 125 128 129 132 133 135 124 124 107 95 89 81 76 72 70 67 64 62 57 54 50 46 43 41 40 36 34 34 33 33 34 34 34 35 35 35 36 35 39 43 46 49
130 129 131 131 134 134 124 122 113 99 91 83 77 72 70 69 65 60 58 53 50 47 44 41 39 36 34 32 32 30 29 29 27 27 28 30 31 31 32 34 36 40 44
136 127 127 132 133 127 121 113 101 93 85 77 72 69 69 67 62 56 54 50 48 44 42 39 37 33 31 30 27 25 24 23 24 25 25 25 27 27 26 27 31 36 39
131 127 131 131 130 119 115 99 95 87 78 72 70 68 66 63 60 53 51 47 44 41 39 37 34 31 28 25 22 22 20 18 16 17 19 22 24 23 22 23 26 30 34
131 130 128 127 122 114 98 96 89 80 73 70 68 66 62 61 56 51 46 44 41 39 36 34 31 27 25 21 19 19 15 16 13 12 13 15 17 17 17 20 23 26 29

GFSMW_250_spd_003.txt.gz
Wind_Speed
35 38 40 40 38 36 37 38 38 40 39 40 43 48 52 56 56 52 53 51 48 55 61 77 90 90 92 97 97 99 97 93 91 96 102 94 93 96 89 93 92 86 86
38 37 37 42 45 41 42 43 41 42 43 43 44 51 55 58 62 64 62 60 51 58 72 72 84 96 99 101 102 106 105 98 96 101 105 99 100 98 93 95 98 96 94
43 46 43 43 48 48 53 57 54 55 56 60 59 56 61 64 66 73 73 72 65 59 63 59 67 85 98 105 111 111 115 112 106 102 112 112 110 109 106 101 99 100 99
51 52 55 57 60 59 59 61 64 65 65 66 70 72 67 68 71 77 81 87 77 62 61 64 67 69 85 99 115 119 121 122 121 117 114 115 119 118 111 112 111 111 109
57 59 60 62 64 65 67 67 70 73 76 74 77 78 78 78 80 82 90 92 86 70 62 65 66 73 74 82 98 123 125 130 130 131 128 120 122 127 127 122 120 118 117
59 62 60 59 63 65 71 73 75 82 82 84 84 82 84 83 84 87 91 93 93 77 68 64 67 69 75 80 83 101 115 135 136 137 141 139 129 131 135 130 131 129 125
59 58 57 60 62 67 71 73 75 80 83 83 85 84 87 87 88 91 94 94 90 79 72 65 66 69 71 76 77 83 95 110 125 148 149 148 150 146 141 139 141 139 137
55 58 61 65 69 73 75 76 77 77 84 87 88 89 91 92 93 95 95 96 92 80 73 69 66 67 68 72 76 79 84 88 106 119 139 158 154 154 154 156 148 147 143
64 64 65 67 70 74 78 83 84 87 87 90 95 95 96 98 99 98 96 101 89 78 72 69 68 68 69 71 73 76 80 84 90 101 120 131 147 159 165 166 159 161 153
68 68 70 71 74 80 80 82 85 91 92 94 99 101 104 108 104 102 98 100 85 78 72 67 67 68 70 72 74 76 79 82 87 93 103 116 127 136 143 150 162 169 169
71 69 71 76 76 78 82 88 92 97 98 100 103 106 111 114 111 105 101 93 82 76 71 67 67 68 70 73 76 77 79 80 82 86 92 99 108 117 124 132 139 141 146
74 73 77 80 84 83 88 94 98 103 105 108 110 113 116 119 113 108 98 87 80 73 69 67 67 68 70 71 74 77 79 80 81 83 85 85 92 96 103 110 116 120 123
76 78 84 86 87 91 94 102 104 109 113 113 114 117 120 122 110 103 92 83 77 72 69 67 67 68 69 70 71 71 72 74 76 79 81 83 87 87 91 95 99 102 103
81 84 89 92 94 98 101 106 109 113 118 117 118 119 123 115 109 96 86 81 75 70 69 67 66 65 64 64 65 68 68 70 72 75 76 77 77 78 80 82 84 87 88
85 90 92 95 99 103 107 109 116 121 121 118 117 119 121 112 103 90 83 79 74 70 68 66 64 62 61 63 64 64 65 67 71 72 73 74 73 73 74 74 77 78 77
93 94 95 97 102 107 111 116 121 124 124 120 120 118 117 109 95 87 81 76 71 68 67 64 61 61 62 63 62 62 62 64 64 65 66 66 66 66 67 67 70 72 72
92 96 100 103 106 110 116 119 125 126 130 124 120 120 112 101 91 84 79 75 70 68 65 63 60 60 61 60 58 58 57 57 57 57 58 58 58 59 60 60 62 64 66
95 101 104 106 111 116 121 126 129 132 135 128 126 116 105 93 88 81 76 72 69 66 64 61 60 59 58 55 54 53 51 50 51 52 53 54 54 54 55 55 57 59 61
103 106 109 112 116 123 128 131 137 134 136 127 123 107 96 92 85 79 74 71 67 65 61 59 56 56 54 51 49 47 46 47 47 47 47 47 48 48 47 49 51 53 56
108 109 113 119 125 130 133 139 143 136 134 123 113 100 92 89 81 75 72 69 66 62 59 57 54 51 49 45 44 43 43 42 42 41 41 40 40 41 41 41 43 47 50
114 117 124 127 133 138 140 145 137 136 128 119 104 94 90 83 77 72 70 67 62 60 56 54 50 46 44 41 40 39 39 39 38 38 37 39 40 38 37 38 41 43 44
121 128 131 135 136 144 148 141 132 131 118 105 95 91 84 78 72 68 67 64 58 57 54 50 46 43 41 40 37 36 36 35 35 34 34 36 37 36 35 35 36 38 38
132 133 137 142 145 150 149 132 129 118 106 96 91 85 78 72 69 66 64 60 57 53 50 47 43 40 38 36 35 33 33 33 32 33 33 32 32 32 31 29 31 33 35
134 140 144 149 154 146 135 126 117 106 96 91 85 78 73 70 67 64 60 57 54 50 47 43 40 38 36 33 32 31 30 30 31 29 30 31 29 26 25 26 27 30 33
140 145 146 153 137 130 124 116 104 94 90 84 78 73 70 66 65 61 57 55 50 47 44 40 37 35 31 31 29 28 27 27 25 24 25 26 25 23 22 22 23 27 30
147 146 152 129 122 120 114 101 91 88 84 77 73 70 67 65 62 58 55 50 48 45 41 37 34 32 28 28 27 26 24 21 20 22 19 18 20 20 18 19 21 23 26

GFSMW_250_spd_006.txt.gz
Wind_Speed
42 42 44 45 44 44 47 49 53 54 55 56 58 60 58 57 57 54 49 53 51 55 58 53 51 55 56 65 79 89 91 93 96 98 100 99 99 100 105 95 93 90 93
43 44 42 43 44 42 45 50 53 54 56 59 60 63 65 63 64 65 62 60 63 65 65 65 63 60 59 63 73 85 92 97 102 103 104 108 108 107 105 105 103 101 102
41 42 44 44 43 45 47 50 53 54 54 57 61 61 64 68 69 71 72 68 68 68 70 73 68 66 66 67 71 81 94 98 107 110 111 110 111 114 112 109 109 104 106
40 43 47 50 52 52 55 57 57 57 57 56 63 68 68 68 73 77 80 82 78 80 79 76 75 75 72 74 73 75 83 98 109 117 118 122 119 118 119 114 113 113 112
47 51 52 55 58 58 59 58 61 61 62 63 65 68 75 76 81 86 89 91 92 92 88 88 78 76 76 75 74 77 81 85 95 108 120 125 125 129 123 122 116 116 117
49 53 59 61 63 62 59 62 63 65 68 69 75 78 77 84 89 95 99 98 100 98 97 97 88 85 85 81 76 75 79 86 92 100 109 123 130 131 131 130 126 121 120
53 56 58 62 61 61 63 64 66 69 73 78 81 81 84 88 95 101 102 101 98 98 99 98 95 89 85 83 79 74 74 80 87 94 104 109 120 133 136 136 134 136 128
52 53 57 58 58 61 66 71 72 73 76 78 80 83 88 94 100 106 105 104 103 103 103 102 98 94 89 80 76 73 72 74 80 87 93 98 114 124 132 141 143 140 142
58 62 63 65 66 69 72 77 83 84 85 86 89 91 97 101 103 110 109 109 108 106 107 102 96 90 83 77 74 71 70 70 74 81 86 92 98 113 123 127 137 151 146
65 67 69 71 73 77 79 82 84 86 90 91 94 98 103 107 110 116 114 113 110 111 107 100 92 84 77 74 71 69 69 68 72 76 82 87 91 98 106 118 129 132 145
71 74 76 77 79 78 82 85 85 88 92 95 99 105 110 115 118 122 119 119 114 111 103 93 86 81 76 71 69 68 67 68 70 73 77 82 87 91 96 102 111 120 126
78 80 82 85 87 86 85 86 89 93 97 99 104 110 117 119 125 126 119 117 112 106 98 87 85 79 74 70 67 66 67 69 71 73 75 77 83 86 91 95 98 102 110
84 86 87 88 91 95 95 95 95 96 99 104 112 115 122 127 130 129 115 113 108 100 89 85 83 77 72 68 67 65 66 67 69 71 73 75 79 80 85 89 90 95 98
87 89 91 93 96 100 98 100 101 103 109 116 118 119 129 133 133 120 114 109 103 93 86 84 79 74 69 67 65 65 65 65 67 70 72 75 76 77 80 82 85 89 91
90 94 97 100 103 103 104 106 105 113 117 123 124 129 133 139 125 115 109 103 97 89 86 80 74 69 65 66 65 64 66 66 67 68 69 70 71 73 74 76 80 82 84
95 97 99 103 106 107 106 107 112 118 122 126 130 135 135 135 114 109 105 99 92 87 80 75 69 65 64 65 64 63 62 63 63 62 63 64 65 66 67 68 72 75 77
99 99 103 105 107 110 113 118 122 126 131 134 136 136 136 117 109 106 101 94 88 82 75 71 66 65 65 62 61 60 58 57 56 55 56 57 57 58 59 61 63 65 67
104 105 108 110 114 119 121 125 130 135 136 139 140 139 121 113 108 102 94 89 83 76 72 68 65 64 62 58 57 55 53 52 51 49 49 49 50 51 52 55 56 58 61
112 113 115 117 119 125 128 134 137 139 139 139 137 129 117 109 102 94 89 84 77 73 70 67 64 60 59 54 52 50 49 47 47 46 45 45 47 47 47 49 51 53 57
117 120 122 129 130 132 136 139 139 139 137 135 130 116 111 101 92 88 84 77 73 70 67 66 60 57 54 50 49 47 45 45 44 43 42 42 42 42 41 42 43 46 50
124 129 132 135 137 139 141 141 137 132 126 122 111 110 100 92 88 83 77 73 71 69 66 63 58 53 49 48 46 44 43 43 42 39 38 37 37 37 37 37 38 41 44
132 135 138 140 140 136 131 127 126 119 113 105 104 98 91 86 82 77 73 71 69 67 63 59 54 49 47 46 43 41 40 38 37 34 33 32 31 33 33 33 34 36 38
136 132 131 128 124 122 121 119 112 106 103 101 94 88 84 83 78 72 69 68 67 64 59 55 49 46 45 42 40 39 36 34 32 30 29 28 27 27 28 28 28 30 32
125 124 120 120 119 114 108 102 101 101 94 89 85 83 81 78 72 69 66 64 63 60 56 51 47 44 42 39 38 36 33 31 29 28 28 25 25 26 26 25 25 26 28
118 116 112 109 104 98 98 98 96 90 87 84 83 80 76 71 69 67 64 63 59 56 51 48 44 42 38 37 35 33 30 28 27 29 25 25 25 23 21 20 21 23 24
105 101 100 99 99 97 94 92 90 87 85 83 79 74 70 68 66 64 64 58 57 51 49 45 41 38 35 34 32 30 28 26 26 24 24 24 21 18 17 17 17 18 19

GFSMW_250_spd_009.txt.gz
Wind_Speed
27 28 31 33 36 40 40 36 37 36 39 40 40 42 42 47 50 53 53 54 57 62 65 68 67 68 66 64 63 63 65 71 72 74 83 92 95 92 93 95 94 91 94
28 30 32 36 41 41 42 39 41 40 43 46 50 51 50 54 57 58 58 60 63 67 68 73 76 73 72 72 71 71 67 72 79 81 82 88 97 102 98 100 102 101 94
33 36 39 39 43 47 48 48 44 46 47 50 54 57 57 59 63 63 62 63 67 72 76 76 81 83 82 80 79 77 76 73 75 84 85 86 90 101 108 104 105 107 108
38 42 43 44 46 50 52 53 54 57 59 61 60 63 65 65 66 70 72 72 76 81 85 85 89 92 92 87 84 81 83 82 78 81 89 89 91 95 104 112 109 111 112
44 47 48 49 50 53 57 58 61 66 68 67 65 65 64 69 73 75 77 81 87 88 91 98 97 100 98 88 85 81 82 83 82 82 84 90 89 91 99 107 117 115 115
42 50 54 55 56 56 60 66 68 69 71 73 73 73 72 75 77 80 81 91 94 95 98 107 104 110 101 93 86 83 80 78 79 77 77 82 87 89 93 99 113 120 119
47 49 52 53 50 56 63 65 66 68 73 74 75 78 79 82 82 84 91 98 103 106 108 116 114 119 103 96 92 86 83 76 70 69 70 73 78 85 89 91 105 115 120
54 51 51 53 55 60 64 67 68 71 76 82 84 86 87 88 89 89 95 102 106 113 114 118 122 116 100 95 92 87 81 72 68 66 66 67 72 76 82 88 96 109 120
55 57 58 62 65 69 72 75 77 82 83 86 90 93 96 96 96 95 100 106 115 117 117 121 122 108 98 94 90 85 76 69 68 66 66 66 68 73 77 83 88 97 105
68 72 73 74 75 78 80 81 87 87 86 89 94 97 99 102 103 107 109 115 121 122 121 118 115 101 97 91 85 77 73 70 67 64 64 64 65 69 74 79 84 89 97
71 75 80 82 83 82 84 85 90 94 93 96 100 105 107 107 112 114 116 121 124 123 120 117 111 100 94 86 78 74 72 68 66 64 62 64 66 65 71 76 81 85 88
80 81 82 84 84 86 88 93 97 101 102 104 107 109 112 114 118 121 125 129 128 124 116 112 103 97 88 79 75 72 69 66 63 63 63 64 66 66 68 73 77 81 84
81 85 85 87 90 92 96 100 103 107 110 112 111 113 116 122 124 127 128 129 126 115 109 102 96 87 79 76 72 67 64 62 61 61 61 62 64 66 69 70 71 76 80
85 88 93 96 98 101 104 108 111 114 117 118 118 120 123 126 128 132 130 120 111 105 100 95 85 78 76 72 68 63 60 59 59 60 61 61 62 64 67 69 71 73 76
89 94 96 98 103 108 112 115 117 119 122 125 128 130 132 131 128 120 114 109 105 98 93 82 79 78 72 67 63 61 59 59 60 61 60 59 59 61 62 64 70 70 71
95 98 101 105 108 113 117 120 122 125 131 131 130 129 122 118 114 110 105 98 91 86 79 75 75 70 67 64 62 58 57 58 57 57 58 56 57 58 58 61 63 65 67
100 103 107 111 116 122 126 129 131 130 128 129 127 123 119 114 108 99 93 92 85 78 74 74 70 66 65 63 59 57 56 55 55 53 53 53 52 53 54 56 58 60 63
109 113 119 122 124 129 131 129 127 123 121 122 118 112 106 99 92 91 87 81 76 74 75 73 67 63 63 60 57 55 54 52 50 49 48 48 47 46 48 50 52 55 58
118 121 122 126 127 128 126 122 117 118 114 110 105 98 92 89 85 80 78 76 76 76 74 67 63 60 61 57 54 53 51 49 47 45 44 43 43 43 44 46 48 49 52
119 122 121 123 123 120 117 117 112 108 102 96 95 92 86 80 79 79 78 78 77 72 67 64 60 58 58 53 52 50 48 47 44 41 41 39 39 40 39 41 44 47 48
120 118 119 120 116 112 108 105 100 97 94 90 86 82 79 78 78 78 78 76 71 66 63 60 59 57 53 51 48 46 46 44 41 39 37 35 35 35 36 37 40 41 44
118 118 116 113 108 104 101 98 93 91 89 86 83 82 81 79 78 78 75 70 64 62 60 57 57 53 51 48 45 44 43 39 37 35 34 33 31 30 31 33 35 36 39
120 114 109 104 103 102 97 96 96 91 89 86 85 82 80 80 78 75 70 63 60 59 58 55 54 50 48 46 44 42 39 35 32 32 31 26 25 24 24 26 27 29 32
112 106 101 98 99 97 95 94 92 91 90 88 85 83 80 77 75 70 63 60 57 57 56 52 49 46 46 43 40 39 35 32 30 29 26 24 22 21 23 24 25 28 29
106 100 98 97 96 95 94 94 94 92 90 87 83 79 77 75 70 65 61 57 54 55 55 49 45 44 42 39 38 35 32 29 27 25 24 23 21 20 19 19 20 22 24
97 97 98 97 96 96 94 93 92 90 85 81 79 77 73 68 63 60 59 54 52 52 50 45 43 40 38 37 35 31 28 26 25 23 22 21 20 20 18 18 19 20 21

GFSMW_250_spd_012.txt.gz
Wind_Speed
20 20 25 30 32 33 36 35 38 37 36 39 41 44 45 44 44 44 44 45 49 52 51 51 52 57 62 64 66 71 72 74 71 75 66 66 68 72 79 85 91 100 97
23 26 30 33 37 39 42 42 41 39 38 40 44 44 46 48 51 53 55 56 57 58 58 60 60 65 71 73 75 79 81 81 80 79 75 71 72 74 78 83 88 93 98
28 34 36 40 45 46 48 48 47 44 43 48 50 51 55 60 63 64 65 66 64 66 68 70 73 74 74 79 82 86 89 90 88 88 82 76 74 78 83 84 88 92 95
36 40 45 51 54 54 55 56 56 57 54 60 61 60 62 68 69 68 69 71 70 72 74 74 77 79 83 83 87 92 93 93 95 91 85 79 76 79 82 90 93 95 95
38 39 46 51 53 55 58 61 66 68 67 68 71 70 71 72 73 76 77 80 81 83 85 87 88 89 92 93 96 98 99 99 98 94 89 84 82 80 82 84 96 97 98
39 43 49 52 55 58 62 67 70 69 72 73 73 75 78 77 79 81 84 88 89 92 95 98 99 99 101 102 105 104 104 102 95 91 85 82 84 85 82 76 86 96 100
47 50 52 56 59 61 65 68 69 70 71 73 76 79 81 84 85 88 92 97 97 98 101 103 105 109 110 113 113 112 110 99 91 87 82 78 77 80 82 77 78 87 98
55 55 59 63 65 68 70 71 72 74 75 79 81 84 89 94 98 99 102 104 107 106 108 110 113 117 121 121 118 113 101 93 89 86 79 73 70 71 72 71 70 74 85
62 65 69 71 73 72 73 76 78 83 86 88 90 93 98 103 106 107 109 112 114 116 118 122 126 123 120 115 110 102 97 93 88 82 74 68 66 66 68 72 72 72 78
69 68 68 70 72 76 80 85 89 90 91 94 97 100 104 108 113 115 118 121 123 124 126 125 120 122 114 109 101 97 92 87 82 74 68 68 68 66 66 68 71 72 73
69 74 77 79 82 84 87 90 95 99 102 103 105 108 112 118 121 125 127 127 125 120 119 118 116 112 107 101 97 89 84 79 74 71 68 66 65 63 62 62 65 69 70
76 79 82 85 87 90 94 99 102 104 108 111 115 118 123 127 128 128 126 123 121 115 113 110 104 101 96 90 86 82 78 71 71 68 64 62 60 59 59 58 58 62 66
79 83 86 89 93 96 100 104 108 109 114 119 124 126 126 125 125 127 124 117 112 108 103 97 93 88 85 84 79 73 69 69 66 63 60 59 57 58 58 57 57 58 62
85 89 91 93 98 102 105 106 107 115 120 124 123 123 121 122 121 113 108 104 101 95 89 85 84 81 76 73 70 67 67 65 62 60 58 56 56 56 58 59 58 60 58
91 94 97 100 104 107 109 112 116 120 121 119 117 116 116 113 106 101 97 94 91 90 87 83 77 77 73 70 68 66 63 60 59 60 58 57 56 56 56 56 59 58 59
99 101 104 108 111 112 114 116 119 116 115 115 114 111 108 101 98 93 87 82 78 75 72 74 70 69 68 65 62 58 57 57 57 57 56 53 52 51 51 52 53 55 55
105 106 107 108 110 114 118 120 116 113 111 108 105 102 100 97 95 90 87 82 78 76 74 71 69 68 64 61 58 55 54 56 54 51 50 49 48 47 47 48 50 52 54
109 112 115 117 117 122 120 114 111 107 103 99 98 97 95 93 90 84 82 79 79 75 72 72 67 63 60 57 56 54 56 53 49 47 45 44 45 44 45 47 48 50 52
117 121 120 119 122 123 116 113 108 102 98 94 94 95 94 91 89 85 82 79 78 75 73 68 63 57 57 56 53 53 53 50 46 41 39 42 44 42 42 44 45 46 49
123 131 127 125 125 119 113 111 103 98 96 95 96 95 93 89 85 81 78 76 72 70 69 65 57 53 55 54 51 50 49 47 42 39 38 38 39 39 39 40 43 46 44
133 134 130 131 129 120 115 105 100 98 97 96 95 93 90 86 82 76 71 69 68 66 62 58 53 51 51 51 48 47 45 43 39 37 36 34 34 35 36 37 39 41 42
138 136 133 130 123 117 108 104 102 100 99 97 94 92 87 81 75 72 69 67 64 60 57 53 50 47 48 47 45 43 41 39 36 34 33 32 32 32 32 33 35 36 38
138 134 133 124 116 108 105 103 102 101 98 95 92 88 82 77 72 69 67 63 58 55 52 48 47 47 45 44 41 39 36 35 33 32 31 29 28 26 27 28 29 32 33
135 131 124 115 107 105 105 103 100 97 93 90 86 80 76 73 69 65 60 55 52 50 49 46 44 45 44 40 38 35 33 31 31 30 29 26 25 24 23 26 27 29 30
128 119 115 111 108 103 99 96 93 89 87 82 79 75 71 69 65 59 55 52 46 47 47 45 42 43 41 37 35 33 31 29 29 27 26 24 24 22 21 22 23 21 22
117 112 110 107 102 99 94 90 87 84 78 75 72 70 66 61 57 55 51 47 43 43 45 43 41 39 37 34 33 31 28 28 26 24 24 22 22 21 21 20 18 19 21

GFSMW_250_spd_015.txt.gz
Wind_Speed
29 33 34 33 36 38 41 41 40 38 39 41 46 50 53 55 54 55 53 54 56 55 56 58 59 59 59 62 66 66 67 68 69 71 69 71 70 71 67 67 67 70 75
31 35 37 38 41 43 45 47 45 44 44 47 52 57 59 60 61 62 60 59 61 63 63 65 65 66 68 70 72 74 76 78 80 80 82 81 80 77 77 72 73 74 75
36 41 41 46 50 52 54 55 55 56 57 57 60 61 63 62 64 67 68 68 69 70 71 74 75 78 80 81 80 81 85 88 89 89 89 89 90 90 86 82 85 81 82
43 44 45 48 50 54 57 60 61 64 67 67 66 65 66 67 68 69 74 79 80 80 82 85 87 88 89 89 89 90 91 93 96 99 100 102 101 96 90 93 91 88 86
43 45 48 49 52 56 59 60 63 66 68 70 70 71 74 76 79 82 83 86 88 89 91 94 96 97 98 99 100 101 102 103 105 105 103 104 101 98 95 85 95 90 87
41 42 45 49 52 57 60 63 65 66 69 71 75 77 80 82 84 88 92 95 97 98 99 101 104 106 109 109 109 109 106 104 104 101 100 100 100 96 93 90 81 86 91
45 46 50 53 57 60 61 63 67 70 73 78 82 85 87 90 94 97 99 101 103 105 107 110 113 113 112 110 106 104 103 99 98 97 97 95 94 90 87 87 83 82 88
48 51 55 57 61 66 69 72 75 77 81 84 87 93 96 99 102 106 109 112 111 112 114 112 110 108 107 105 102 97 95 94 92 90 89 87 87 86 84 83 82 79 80
55 58 61 64 70 73 77 80 84 87 91 93 94 98 101 104 107 112 114 117 117 115 110 106 103 102 101 96 94 91 89 87 87 85 82 80 80 78 77 75 75 74 75
62 64 69 73 79 82 85 88 92 95 96 96 100 103 108 112 116 119 121 121 116 112 109 105 101 95 92 90 88 85 82 80 79 78 78 78 76 75 74 72 71 70 69
67 72 78 84 86 88 89 91 95 96 98 106 110 114 115 118 119 122 119 117 114 109 102 95 92 90 88 87 86 83 83 82 80 78 75 73 72 69 67 67 67 68 70
75 80 84 86 87 88 91 99 102 106 111 116 118 120 119 118 120 115 111 111 106 100 93 91 90 86 84 83 82 78 76 75 74 76 75 72 69 66 65 65 64 63 65
78 81 82 84 89 92 99 105 109 113 117 120 122 123 118 119 113 108 105 103 97 92 90 88 86 84 83 82 79 77 75 77 77 76 75 73 69 67 65 63 61 61 60
80 82 86 90 97 103 105 110 114 118 121 124 126 124 122 112 105 103 99 96 93 91 89 87 82 79 78 77 75 74 74 74 74 74 71 67 64 61 59 59 60 59 58
83 87 96 99 105 109 112 118 123 125 129 131 128 123 115 108 100 98 95 93 92 91 88 87 85 82 78 76 74 72 72 74 74 70 65 61 57 56 56 56 58 58 58
89 97 102 109 112 116 121 126 129 131 130 124 121 111 107 102 97 94 92 89 87 85 83 80 78 76 75 72 69 68 67 67 64 61 58 56 54 54 55 56 57 58 56
100 106 111 116 121 125 126 127 130 129 123 118 110 105 100 97 95 93 91 89 88 86 81 77 73 70 68 65 63 63 62 59 55 53 53 54 54 53 53 54 55 55 54
107 108 115 120 128 130 130 131 132 127 121 113 106 101 97 95 92 92 89 86 83 79 75 70 66 65 64 61 60 58 55 53 50 48 50 51 52 49 48 49 49 49 49
112 117 126 130 135 137 135 132 129 127 116 109 104 101 98 95 90 86 83 81 78 73 69 67 64 61 61 57 56 52 51 50 47 46 46 47 47 45 44 47 49 48 45
122 126 131 138 140 141 136 131 127 118 112 110 106 100 94 89 85 81 79 75 71 68 66 64 59 56 55 53 52 47 48 47 46 42 43 42 44 44 42 44 45 44 42
125 133 137 143 143 139 134 129 121 115 112 107 101 96 89 83 80 77 71 67 65 62 60 58 53 50 48 51 47 45 45 45 42 40 39 40 39 39 40 39 40 40 40
134 139 142 142 138 134 127 120 117 114 108 103 97 89 84 79 74 70 65 62 59 58 55 53 49 44 44 46 44 43 43 41 38 38 36 35 35 34 34 35 38 39 39
138 144 144 139 132 124 118 114 111 105 98 92 86 82 77 72 69 65 61 57 53 53 52 48 45 42 41 42 41 41 39 37 36 35 34 33 31 30 31 31 32 33 34
141 142 137 127 121 116 113 109 103 94 87 83 78 72 69 65 62 58 54 52 50 48 46 46 43 40 41 40 38 37 35 34 33 32 31 31 28 28 28 28 28 29 29
139 133 126 118 114 111 106 99 92 87 82 76 72 68 65 61 58 55 52 50 46 45 46 44 42 41 39 38 36 34 32 31 31 30 29 28 26 25 25 24 26 26 26
132 122 116 113 110 103 96 90 85 80 76 72 68 64 60 57 55 52 50 46 44 42 43 43 42 39 37 34 32 31 29 29 28 28 27 26 25 24 23 23 22 23 22

GFSMW_250_spd_021.txt.gz
Wind_Speed
36 38 37 40 41 43 44 46 47 48 48 47 48 50 51 55 57 58 62 63 63 64 64 65 68 69 70 71 73 74 76 77 80 80 82 83 82 80 80 79 79 79 77
38 39 41 44 46 49 47 46 47 48 49 52 55 57 60 62 64 65 64 66 67 71 72 75 78 81 81 83 86 87 87 86 88 86 87 87 89 90 90 86 85 86 85
39 42 44 45 48 50 46 47 50 53 56 59 61 63 66 67 67 68 69 72 73 76 79 83 86 88 90 90 93 96 95 95 95 94 92 93 91 93 92 93 92 92 91
44 44 46 51 53 54 52 56 57 59 61 64 67 70 71 71 73 74 75 79 83 86 89 92 94 96 99 100 101 102 102 102 102 99 100 95 93 92 94 96 95 94 96
46 50 50 49 49 51 56 58 60 63 67 70 74 74 75 77 77 79 84 90 92 92 96 100 101 101 105 105 102 102 102 102 101 99 96 94 94 95 94 93 94 93 95
38 39 42 47 52 54 56 59 64 67 71 73 77 80 82 82 83 88 92 93 96 99 103 106 107 107 111 105 100 99 99 99 99 98 93 90 90 87 88 91 91 90 93
41 44 47 48 50 55 59 64 69 73 76 79 81 83 85 88 91 97 99 102 105 108 111 112 113 116 116 108 101 99 97 98 97 92 87 86 85 83 83 87 88 87 89
46 47 50 55 59 63 67 70 72 75 78 81 83 87 92 96 101 106 111 115 117 117 119 119 119 118 112 103 98 95 95 92 90 88 84 80 76 75 76 77 79 79 79
48 54 56 61 65 69 73 74 78 83 85 88 91 95 100 104 108 113 120 124 124 124 123 122 119 113 104 97 92 88 86 85 83 82 78 76 72 72 73 72 73 75 75
55 59 63 66 69 71 75 80 86 91 93 95 98 102 109 114 117 122 131 129 123 122 120 118 112 106 98 91 86 85 83 82 81 81 78 75 74 73 73 72 71 72 72
60 63 66 70 74 78 82 84 88 92 95 99 106 114 120 125 127 132 133 126 121 117 114 111 103 97 94 90 85 84 84 83 81 79 79 77 75 74 73 72 71 70 71
65 69 72 77 80 83 84 88 95 99 101 110 115 123 130 133 131 131 127 122 116 113 106 99 97 96 94 92 89 84 81 78 77 76 76 75 74 73 73 72 71 70 68
69 73 75 77 80 86 89 95 99 104 106 115 125 129 138 137 132 130 122 115 109 103 100 98 96 93 90 87 84 81 77 74 73 72 71 71 72 71 70 70 70 69 67
72 75 78 83 88 93 96 101 106 109 116 126 128 140 143 134 124 118 113 107 104 103 100 95 91 85 80 77 75 73 70 68 67 66 66 66 66 66 65 65 65 64 63
78 81 86 90 93 96 100 106 112 118 124 132 138 143 131 123 117 110 105 102 101 99 93 86 79 75 72 68 66 65 65 64 63 63 61 60 59 59 58 59 60 60 59
82 86 92 95 97 102 105 110 116 122 130 132 144 130 121 115 109 102 102 99 95 89 84 79 74 69 65 60 58 56 57 57 57 57 57 55 55 55 56 57 57 58 58
91 95 98 101 105 108 112 117 123 125 133 138 130 117 111 108 107 104 97 91 87 82 78 74 69 65 62 59 57 55 54 53 52 52 52 53 53 53 53 54 54 53 53
100 105 107 110 112 117 123 128 131 132 135 128 115 110 109 106 101 96 91 86 80 76 72 68 64 62 59 56 54 52 51 49 47 46 47 49 50 47 48 49 48 46 47
107 109 112 116 119 125 129 134 136 131 124 114 110 108 106 101 95 89 84 79 75 71 67 63 59 56 54 49 48 48 48 45 42 40 42 44 43 41 43 42 43 43 43
113 114 121 124 128 131 134 133 127 119 111 108 107 104 100 94 87 81 77 75 72 68 64 60 55 51 49 46 46 44 43 40 36 36 38 38 39 38 39 39 41 41 42
120 124 128 132 136 137 136 127 118 111 108 106 104 98 90 84 80 77 73 70 68 65 62 58 53 48 44 44 43 41 37 35 34 33 34 35 35 35 37 37 38 38 39
126 129 135 138 137 134 124 117 109 107 106 105 99 90 84 80 76 71 67 64 62 59 56 54 49 43 39 40 43 40 35 33 34 32 33 34 34 35 34 35 35 35 35
135 135 137 138 133 123 115 109 107 108 106 97 90 85 81 76 70 67 63 61 57 54 51 49 47 43 40 40 40 38 36 35 34 32 33 34 32 32 31 32 31 32 33
136 134 132 130 120 113 110 107 106 103 96 89 85 82 76 72 68 63 59 56 54 52 51 48 46 44 42 41 37 34 34 33 31 31 31 31 30 29 29 29 29 30 31
131 125 121 113 109 107 108 105 101 95 89 84 81 76 72 67 64 61 56 54 52 52 52 49 46 44 39 37 34 32 30 29 28 29 29 28 27 27 26 27 28 29 29
119 112 108 108 106 105 104 101 94 88 84 80 75 71 67 64 60 58 57 51 49 48 48 45 42 39 38 34 32 29 27 26 25 26 25 24 24 24 25 25 26 27 26

GFSMW_250_spd_024.txt.gz
Wind_Speed
36 34 35 37 38 39 40 42 43 42 41 44 47 49 52 54 56 59 62 65 68 68 69 69 67 68 71 76 79 79 79 79 82 83 82 80 80 87 86 84 82 81 79
30 33 37 40 42 45 47 46 42 44 48 51 53 54 56 60 64 66 68 70 71 73 75 75 76 79 83 84 85 88 91 92 93 91 93 86 86 87 90 92 91 89 88
35 41 44 47 49 47 40 43 48 51 54 55 57 61 64 68 70 72 73 75 76 76 77 80 83 87 92 93 94 99 104 104 104 102 99 96 91 94 90 89 97 93 92
41 44 46 42 40 44 47 50 52 53 56 59 62 66 67 70 74 76 79 81 85 88 90 93 96 98 98 99 100 105 108 107 105 109 106 102 101 97 95 92 92 95 93
43 42 37 42 44 48 50 50 54 57 60 63 66 69 70 73 77 81 83 81 81 83 96 99 104 107 108 108 110 111 107 106 103 104 105 104 97 101 98 97 97 91 94
39 39 44 46 47 48 51 56 59 62 65 67 71 74 77 79 82 84 84 88 94 99 106 108 113 122 123 116 113 109 106 105 101 100 101 101 99 94 97 97 98 99 89
43 45 46 45 48 53 56 62 66 68 72 75 78 79 81 84 86 89 94 97 101 107 114 118 121 130 127 118 113 110 107 102 100 99 100 101 99 95 92 92 92 93 94
45 45 46 50 55 59 62 66 70 74 77 79 79 84 89 92 96 98 102 107 112 115 122 123 127 133 123 115 108 103 100 96 92 90 91 92 92 90 87 86 84 83 86
47 48 50 55 60 64 67 70 74 77 81 84 88 92 95 98 102 105 108 115 120 126 128 130 131 124 115 107 101 96 92 89 86 85 88 87 87 87 86 83 81 81 80
50 54 57 60 65 67 70 75 78 80 84 88 92 96 99 103 107 111 115 123 128 130 131 132 123 114 107 101 96 93 91 88 86 86 87 87 87 87 86 85 82 81 79
55 58 61 65 67 71 75 78 82 85 90 95 99 102 106 110 113 120 125 132 134 132 131 125 114 107 103 99 97 93 90 86 81 79 80 81 80 79 79 80 79 77 76
59 62 64 66 69 75 81 87 91 94 101 103 105 108 112 117 123 129 136 135 133 129 123 114 109 105 102 97 92 87 83 79 76 73 73 72 72 72 70 71 73 73 72
65 67 70 75 79 86 89 92 96 101 106 108 111 115 119 126 132 134 131 129 126 119 112 109 105 101 95 87 81 78 75 72 70 68 67 66 65 65 65 64 65 66 66
69 72 78 82 86 91 95 98 102 107 109 113 117 123 128 133 134 132 128 124 115 111 108 104 97 90 84 78 74 71 69 67 64 61 59 58 58 59 60 59 60 60 61
76 80 81 86 93 98 103 105 109 113 116 120 127 132 134 130 126 123 117 110 107 103 98 90 84 80 77 73 69 64 61 59 58 56 55 52 52 52 52 53 55 56 58
81 84 89 94 99 103 105 111 115 120 125 129 137 130 125 121 116 109 108 105 102 95 88 82 78 75 71 68 63 60 56 54 52 51 49 49 49 48 48 49 50 51 52
88 93 95 98 104 107 113 118 124 129 133 133 126 121 117 110 104 104 103 97 90 84 79 76 72 68 63 60 56 54 53 51 48 46 46 44 44 46 45 45 46 47 46
95 97 100 106 111 115 119 128 132 134 128 121 117 112 105 101 101 99 93 87 83 79 74 69 65 61 57 53 51 51 50 48 46 43 41 41 42 41 41 42 42 41 41
101 106 108 112 118 123 130 132 127 119 116 113 107 101 100 100 96 90 85 81 78 72 69 66 61 57 53 49 47 47 47 45 42 39 39 40 40 38 37 38 36 36 36
106 110 116 122 127 131 135 128 119 112 109 106 101 99 99 95 89 83 80 76 71 68 65 63 57 51 49 47 46 44 43 40 36 35 38 36 35 33 33 33 33 32 33
114 118 123 127 130 132 123 114 110 107 104 101 99 97 93 87 82 77 74 70 66 65 62 57 51 47 44 45 46 43 38 35 32 33 35 33 32 30 31 31 30 31 31
122 127 127 127 127 118 111 108 106 104 102 100 97 91 86 81 77 73 70 65 63 62 58 53 48 44 43 43 42 40 37 34 32 32 32 31 29 29 29 29 31 30 32
131 127 124 119 115 111 108 105 103 101 101 97 91 85 80 76 72 69 65 62 61 58 54 50 47 45 43 42 40 37 34 32 31 31 30 29 28 28 28 28 28 29 30
124 119 114 110 109 108 105 103 102 100 96 91 84 79 75 72 68 64 61 60 58 55 51 49 48 45 41 38 36 33 29 27 27 27 28 27 25 25 26 26 26 27 28
113 111 108 107 107 104 104 100 97 92 88 83 78 75 72 68 65 63 60 57 53 52 50 49 46 44 39 36 33 29 26 24 23 24 24 24 23 24 25 25 25 25 27
108 106 108 106 103 100 97 94 90 85 81 77 74 71 68 65 63 61 58 55 50 48 48 45 43 40 37 34 31 27 24 22 21 21 22 21 21 22 24 24 23 24 26

GFSMW_250_spd_027.txt.gz
Wind_Speed
33 32 30 32 37 43 44 45 43 41 38 42 47 49 50 52 56 57 59 63 65 66 68 69 70 73 74 71 70 73 77 79 85 85 85 88 87 87 91 92 89 88 86
31 29 33 38 42 45 43 40 41 45 48 49 51 53 56 60 62 66 69 70 71 73 74 73 74 75 76 75 85 83 87 90 95 97 98 96 94 96 94 96 99 95 92
29 32 38 42 46 44 41 46 47 50 51 53 55 58 63 67 70 72 74 76 76 77 78 82 83 84 85 85 88 92 96 98 101 109 110 105 105 107 104 98 96 96 95
33 36 42 45 45 44 47 50 51 51 54 57 61 65 69 71 73 75 78 79 79 83 84 86 89 92 94 96 96 98 102 108 108 114 116 115 115 113 109 105 101 96 95
38 42 45 45 46 50 52 53 52 55 59 64 67 70 71 73 75 77 78 82 86 90 95 98 101 101 103 105 107 109 114 119 120 119 118 119 116 114 108 101 103 104 97
41 44 46 48 51 53 53 54 57 60 64 69 71 72 75 76 78 82 86 90 94 97 99 100 104 107 109 113 117 121 123 126 123 122 119 116 108 104 101 100 98 100 103
44 44 47 51 51 53 56 60 63 66 67 69 71 75 79 82 87 91 94 97 101 104 107 110 112 116 120 125 128 129 130 126 122 116 109 103 100 97 96 96 95 96 100
44 47 49 50 54 58 61 65 68 69 72 74 80 84 89 93 96 98 102 106 108 111 115 118 120 125 131 134 135 134 131 127 117 108 101 99 98 97 95 93 92 91 93
48 50 54 58 62 64 66 69 74 76 80 84 87 92 98 102 105 107 110 115 118 121 125 129 131 136 140 139 135 131 123 112 105 103 101 99 97 95 95 95 93 90 90
54 58 62 63 65 67 71 74 77 82 87 91 93 97 101 105 107 111 116 121 124 128 132 137 141 142 136 133 126 117 110 107 104 99 95 92 89 86 86 87 89 89 88
58 60 65 68 71 72 75 79 82 86 90 94 98 101 107 110 113 119 121 126 131 138 141 141 137 129 124 119 112 109 106 102 95 89 84 81 78 77 78 78 78 80 81
60 64 68 72 74 76 79 84 90 94 98 101 104 108 114 119 122 127 132 137 141 142 137 130 123 117 112 110 107 104 98 91 85 80 76 72 70 69 69 70 71 71 72
64 69 71 73 76 79 85 90 96 101 106 109 112 115 120 125 131 135 138 139 137 129 123 116 110 109 109 107 101 95 88 82 77 73 70 66 63 63 63 63 64 64 64
68 70 73 77 81 86 91 98 102 107 111 115 120 123 129 132 135 135 131 126 119 114 110 108 106 103 98 93 89 84 81 77 71 67 64 63 60 58 58 58 59 58 58
73 75 78 83 88 93 98 103 109 113 118 124 127 127 132 133 131 125 121 115 111 108 106 105 101 95 88 82 81 75 73 69 66 61 57 56 55 54 53 53 54 54 54
78 80 85 89 95 101 106 110 117 123 129 132 135 134 129 121 117 116 112 108 105 106 104 98 91 85 80 74 71 66 65 63 61 59 54 50 48 48 47 48 49 49 49
80 85 93 99 104 110 116 120 126 131 134 130 124 118 115 114 112 109 106 105 105 100 94 88 82 76 72 66 64 63 60 57 55 51 49 45 42 43 44 44 43 43 43
87 94 99 105 110 116 122 127 132 135 128 119 115 111 110 109 107 104 104 101 95 89 84 78 72 68 63 60 60 58 56 53 49 46 44 43 42 40 41 40 39 38 37
97 103 105 110 116 123 129 133 135 125 119 114 111 110 108 107 105 102 96 90 85 80 76 70 66 61 60 56 55 55 53 49 45 41 41 42 40 38 36 35 34 33 34
106 110 113 118 125 129 132 131 127 119 116 111 110 108 106 104 100 94 87 82 77 74 69 66 61 58 56 53 51 51 51 46 43 40 40 41 39 35 34 33 32 31 31
110 115 121 126 131 133 132 124 119 116 112 109 106 105 102 98 91 84 78 73 70 66 64 62 58 55 51 50 49 47 47 44 40 38 38 38 36 33 32 31 30 29 30
117 124 127 131 134 132 127 118 114 112 107 107 103 100 95 89 82 75 71 68 64 63 62 58 54 50 48 47 47 44 42 39 36 34 34 35 32 31 30 30 29 28 29
125 131 132 131 131 125 120 115 110 110 102 101 97 92 86 80 74 69 66 65 64 62 58 52 50 48 47 45 42 40 37 34 32 31 31 31 28 27 28 28 28 29 28
131 131 132 130 124 119 116 109 105 102 100 93 88 83 77 72 68 65 64 62 60 57 53 50 48 48 44 41 38 35 32 30 29 29 28 27 25 25 25 25 26 25 26
132 133 131 126 118 114 108 105 102 96 90 84 79 74 70 66 65 64 62 58 53 51 50 49 47 46 43 38 35 33 30 28 26 25 24 24 23 23 24 23 24 23 25
133 133 129 121 114 107 104 99 92 87 81 76 72 68 65 63 62 60 57 55 51 48 47 46 45 42 40 37 34 31 28 24 23 23 22 20 21 22 21 21 22 22 24

GFSMW_250_spd_030.txt.gz
Wind_Speed
33 31 33 33 34 36 40 45 44 45 45 49 49 51 52 52 55 58 58 63 63 65 65 65 67 69 70 72 75 76 77 80 86 87 86 82 83 84 84 83 82 84 84
30 30 32 33 35 39 44 45 46 48 52 53 53 55 57 61 63 64 63 66 66 68 71 72 75 76 78 82 84 85 86 87 91 91 92 91 90 95 95 96 97 97 99
31 31 34 37 41 45 47 48 50 53 56 56 57 60 62 64 67 70 71 68 70 75 79 80 84 87 89 91 93 94 97 96 96 101 103 100 97 97 101 106 108 110 110
34 37 40 43 46 49 51 52 54 56 59 63 64 63 64 69 72 74 76 77 84 87 90 92 94 95 98 99 101 104 107 110 107 108 110 113 115 114 111 113 115 119 113
35 38 41 44 48 51 53 56 58 59 60 67 68 69 72 75 77 79 83 87 90 93 97 100 102 104 108 110 109 113 115 117 117 118 120 121 123 125 122 109 110 112 111
37 39 43 45 49 53 56 60 62 66 67 67 71 74 77 79 82 85 89 92 96 100 104 108 111 114 117 119 121 124 125 125 127 128 127 122 120 117 111 103 91 90 94
42 44 45 47 49 53 59 65 68 70 71 74 76 78 81 84 88 93 96 100 104 108 111 115 118 121 124 127 129 130 133 132 129 127 123 115 110 104 102 97 91 85 83
45 45 46 50 56 60 62 65 70 74 77 79 81 84 87 91 96 100 105 109 113 117 119 123 125 126 129 130 132 132 129 127 123 116 111 108 103 99 98 94 91 89 84
45 48 51 55 59 62 64 68 72 75 79 82 84 88 95 100 105 110 115 119 123 127 128 130 132 133 130 131 129 129 124 118 115 110 106 104 102 99 95 90 87 83 78
49 52 56 57 61 65 69 72 75 77 81 86 91 95 99 103 109 117 123 127 129 131 133 133 131 132 128 121 118 117 115 112 110 107 105 100 94 89 84 80 76 74 72
52 55 59 61 66 70 74 78 82 83 86 90 94 100 106 114 121 126 129 129 130 132 131 123 121 116 111 109 110 111 110 107 103 101 96 91 84 79 75 73 70 69 67
54 55 58 64 70 74 77 80 83 87 92 98 104 110 116 122 129 131 132 133 131 126 122 119 113 111 109 108 108 108 108 105 100 92 86 82 77 74 70 66 65 64 63
58 61 65 70 77 81 85 86 89 92 99 107 115 120 124 130 133 132 132 130 121 119 116 114 113 111 109 106 104 103 97 91 88 84 80 75 70 66 63 61 58 56 57
62 68 73 78 85 88 90 94 97 102 110 117 123 128 130 132 132 131 129 119 117 115 112 110 109 108 106 102 98 92 86 82 80 77 73 69 65 61 57 55 54 53 52
68 73 79 85 90 93 96 101 105 112 120 125 131 136 134 134 132 125 118 115 113 111 110 108 106 102 97 90 87 84 79 75 72 68 64 62 61 59 53 50 51 50 48
75 80 83 88 93 97 103 107 112 119 127 132 135 134 127 129 123 117 113 109 107 106 104 100 95 91 85 80 79 76 71 68 65 62 60 55 53 52 51 47 47 46 45
78 82 87 92 97 101 107 113 119 125 134 137 133 126 124 121 115 112 108 106 104 101 96 90 86 82 77 73 72 68 65 63 61 57 53 50 49 48 47 45 43 42 42
82 87 91 97 103 109 114 119 125 130 132 131 129 128 121 118 111 107 105 102 97 91 87 81 78 75 72 65 65 63 61 60 56 52 49 48 48 45 43 41 37 37 37
87 91 97 104 109 115 122 127 133 136 133 129 120 117 105 99 103 100 98 93 88 83 80 75 71 68 66 63 61 57 55 54 52 48 45 45 46 43 39 37 36 34 34
95 102 105 109 115 122 130 135 137 136 128 124 116 111 108 101 94 91 87 83 79 76 73 69 66 63 60 58 56 51 50 51 49 47 45 42 42 38 36 35 33 32 33
101 104 110 117 121 129 134 139 138 131 127 128 117 106 102 97 92 86 81 77 73 69 66 65 62 57 55 53 51 49 49 48 44 40 38 37 35 33 33 32 32 30 30
108 112 118 124 127 134 137 137 133 127 123 115 108 100 95 90 84 79 74 70 67 65 63 61 58 54 52 50 48 47 45 42 40 36 34 32 30 29 28 29 29 28 28
111 115 120 124 129 136 137 136 127 124 111 104 97 92 87 83 76 71 68 66 64 62 59 56 54 51 50 49 45 42 41 39 35 33 31 29 27 25 25 25 25 26 26
116 121 128 133 133 136 138 131 127 115 103 95 89 83 79 74 70 67 65 63 61 57 54 53 52 50 48 46 43 40 38 35 32 30 28 26 23 23 22 22 23 24 24
120 127 132 133 135 136 133 126 114 104 95 89 82 78 72 70 67 65 63 59 56 54 52 50 49 48 46 44 41 39 35 32 30 28 25 23 21 20 20 20 22 22 23
128 132 136 134 136 132 127 115 104 96 88 82 77 73 70 67 65 62 59 57 55 53 50 47 45 43 42 40 39 36 33 30 27 25 23 22 21 20 19 19 20 21 22

GFSMW_250_spd_033.txt.gz
Wind_Speed
36 35 35 35 33 35 32 35 38 41 47 51 54 56 58 59 61 62 62 62 64 65 67 70 70 71 72 76 78 79 81 83 88 87 87 85 86 86 88 89 89 89 86
35 34 30 30 34 39 41 43 47 51 52 55 56 59 63 64 63 64 63 66 68 70 71 73 75 77 79 82 87 90 90 92 97 98 97 94 95 97 97 97 99 98 98
37 31 29 31 35 40 44 47 52 54 56 56 61 65 65 66 68 71 72 73 73 74 76 78 81 84 87 91 95 98 101 102 105 110 110 106 103 103 104 107 109 109 107
42 39 38 37 39 43 48 50 53 57 59 60 63 65 67 71 73 75 77 78 81 83 85 88 92 94 97 101 106 108 111 113 113 116 119 120 119 115 108 110 112 114 114
43 42 42 44 46 48 51 55 57 55 56 64 67 69 73 76 77 78 80 83 87 91 94 98 103 107 110 113 116 116 119 119 118 120 120 119 119 119 114 101 107 109 110
39 40 42 45 49 53 57 59 59 61 62 61 65 72 77 81 82 84 86 90 94 97 103 107 111 116 121 124 125 125 124 119 118 114 111 108 106 102 102 99 88 89 92
41 39 42 45 51 55 56 58 63 66 67 70 74 77 79 82 85 88 91 96 101 105 110 114 119 128 130 130 131 132 129 126 121 114 112 110 106 101 95 91 87 81 78
42 41 43 47 50 53 56 59 64 66 70 74 79 84 87 91 93 96 100 104 109 112 118 125 130 134 133 133 132 128 123 117 112 111 108 105 101 97 94 89 84 81 77
43 42 45 49 54 57 58 60 63 70 77 81 85 90 95 96 100 104 110 114 119 122 128 133 134 134 128 124 119 115 112 111 110 107 103 100 95 94 92 89 86 78 77
49 48 50 54 58 60 61 64 68 74 81 87 91 95 100 103 109 114 119 124 128 131 134 132 129 122 118 114 111 109 109 108 106 102 99 94 90 86 83 78 76 73 66
50 51 56 59 59 61 62 67 74 79 84 91 95 100 104 108 116 122 127 131 133 135 132 124 119 115 113 111 108 105 103 102 100 95 93 89 82 77 74 70 66 65 63
52 54 58 60 62 65 69 73 79 85 89 94 99 103 107 113 120 127 130 131 133 128 119 118 117 114 110 106 103 100 97 94 90 87 84 81 76 72 68 65 61 59 57
56 56 57 61 64 69 74 79 86 91 95 100 105 111 115 119 127 131 132 127 121 121 120 119 116 110 105 102 99 94 89 83 81 78 74 71 68 66 64 60 58 55 53
56 56 60 64 69 73 80 86 91 95 99 105 113 120 124 126 128 128 131 132 128 125 119 115 110 105 100 95 91 87 82 77 73 70 67 65 63 60 58 57 57 53 50
59 63 68 71 75 81 87 93 97 103 109 113 120 127 131 131 133 136 133 124 122 114 109 106 102 97 91 84 81 78 75 72 69 67 64 62 60 58 54 54 54 49 45
61 65 69 74 81 87 92 98 103 108 115 120 125 131 133 128 128 122 113 111 108 104 100 96 91 86 81 77 75 73 70 67 65 65 64 61 58 54 50 48 48 45 40
66 69 74 81 86 92 97 103 107 114 122 127 132 130 128 130 118 109 100 95 95 93 90 85 82 78 74 71 69 68 66 65 63 60 57 56 52 48 44 42 44 41 37
72 76 83 88 93 98 104 110 116 123 127 131 130 129 130 119 114 107 98 94 91 86 82 78 75 73 69 67 65 65 63 61 58 54 52 50 48 44 42 41 40 40 36
77 84 88 93 99 106 111 117 122 129 134 135 131 129 127 117 107 102 98 92 86 82 78 74 72 70 67 64 63 59 56 54 51 48 46 46 45 41 38 38 38 37 35
85 91 94 101 107 113 119 124 130 132 136 134 128 129 118 109 103 96 91 85 81 77 75 70 67 64 62 59 57 54 52 52 50 48 43 40 39 36 34 33 33 33 33
90 95 100 107 114 120 126 130 134 135 134 128 128 121 107 100 95 88 84 78 74 72 69 66 62 60 57 55 52 50 49 48 46 42 40 36 33 31 30 29 29 29 28
93 99 104 111 119 125 131 133 136 134 127 128 119 110 101 94 89 84 78 74 70 67 65 63 60 57 54 52 50 47 46 45 43 39 35 31 29 28 27 27 26 25 24
101 106 113 118 124 129 135 135 135 133 130 120 110 101 94 87 82 77 73 69 66 63 61 59 58 56 53 50 48 45 43 41 37 34 31 29 27 26 25 24 23 22 22
107 113 119 125 131 132 135 134 134 130 121 110 101 93 87 82 77 72 69 66 63 60 57 56 55 54 52 50 48 44 39 37 34 31 30 27 24 23 22 21 20 21 21
114 119 123 130 134 134 134 132 131 124 111 102 94 88 83 78 73 68 65 62 59 56 56 54 52 53 50 47 44 43 40 36 33 30 27 25 22 21 20 19 19 19 20
119 124 128 134 134 135 132 130 122 110 101 93 87 83 77 73 68 66 63 59 56 54 54 52 49 46 44 44 42 39 37 34 31 27 25 23 21 21 20 19 18 18 19

GFSMW_250_spd_036.txt.gz
Wind_Speed
45 40 39 40 40 40 39 32 35 36 41 49 53 58 62 62 63 61 61 63 64 65 67 70 72 73 74 74 77 80 82 83 81 81 82 86 89 92 94 96 95 94 94
38 39 40 40 42 40 42 38 39 43 47 52 57 61 65 66 63 62 66 66 68 71 74 77 80 81 80 83 84 86 88 90 92 94 94 93 95 101 103 106 106 103 103
37 39 41 42 43 42 43 46 47 49 53 56 59 64 68 67 67 68 70 74 77 81 83 84 84 85 86 89 91 93 97 101 104 105 107 108 108 109 111 115 115 114 114
41 43 41 39 39 42 46 48 51 54 56 60 64 66 66 68 71 73 77 79 84 87 91 93 94 95 97 99 102 105 110 112 114 117 120 122 122 122 110 112 116 120 121
46 46 45 46 46 46 47 49 53 56 61 65 66 66 68 72 75 78 84 89 94 97 100 102 104 106 109 110 115 118 122 124 125 126 125 127 127 122 117 108 112 114 116
44 46 49 52 52 51 52 53 53 56 60 62 65 68 69 74 77 82 88 93 96 101 104 107 110 113 117 121 124 127 127 128 128 127 125 122 118 116 110 101 96 98 103
32 37 43 46 48 50 54 55 56 58 61 65 68 69 72 76 81 86 91 96 101 105 108 112 116 122 127 129 130 127 123 124 124 124 122 120 119 116 107 102 94 89 91
35 38 43 44 46 50 53 56 58 63 67 69 72 74 77 82 89 95 101 104 106 110 114 118 123 129 131 128 126 126 126 124 121 120 120 118 113 105 99 93 89 82 80
41 43 48 51 52 55 56 58 62 66 69 73 76 79 84 89 96 100 104 109 113 117 121 125 129 126 124 123 122 120 119 117 117 114 108 103 98 94 91 87 83 80 77
46 49 51 53 55 56 58 61 63 66 70 74 79 85 88 94 100 107 112 117 121 124 127 125 120 118 119 117 115 114 114 110 105 101 97 93 90 85 82 79 76 74 71
46 48 49 52 54 56 59 61 64 70 74 77 82 89 94 100 106 113 117 122 126 127 122 122 119 120 118 115 114 108 104 100 95 91 88 86 83 81 77 73 69 65 63
45 46 49 52 55 56 58 63 68 72 76 82 88 95 101 107 112 116 122 126 126 123 122 121 123 123 117 113 108 103 97 91 87 83 80 78 75 73 70 67 64 60 56
49 50 51 53 55 59 62 67 71 76 82 89 96 101 108 112 118 124 128 127 128 124 122 121 124 118 111 105 100 94 89 83 78 75 72 69 66 65 64 61 59 58 54
55 53 54 58 60 63 68 74 80 85 92 97 103 108 115 120 129 132 130 126 121 119 115 111 109 104 98 94 89 84 81 76 72 69 66 62 59 58 58 58 57 55 53
58 59 60 61 64 69 75 82 89 94 99 104 112 117 122 127 130 128 124 121 117 114 104 100 95 89 86 83 80 77 74 72 70 67 63 59 57 55 54 53 52 50 48
58 58 60 64 70 75 82 88 94 100 106 110 115 121 126 130 127 124 121 115 107 102 97 91 86 82 78 76 74 73 71 69 67 64 61 58 55 52 49 47 45 46 44
59 62 66 71 76 82 88 94 98 103 109 116 123 128 131 129 121 118 115 107 100 96 92 86 82 77 75 72 70 69 68 66 62 58 55 54 51 47 45 43 41 43 42
63 66 72 78 85 91 95 99 105 111 118 123 129 132 132 127 124 118 110 102 94 87 82 78 76 74 70 68 66 63 62 60 57 54 52 51 51 47 44 42 40 40 40
68 75 81 87 92 97 101 105 112 118 125 129 132 133 129 124 121 111 102 95 90 83 77 74 71 69 66 63 61 59 56 54 52 49 46 45 44 41 39 39 37 35 36
77 83 89 95 100 105 110 114 118 123 128 130 132 129 124 120 110 100 93 88 82 77 74 71 68 65 62 59 56 54 53 52 48 46 43 41 40 39 36 34 33 31 30
86 92 97 102 106 110 114 119 123 127 127 129 129 129 124 113 100 93 87 82 77 74 70 66 63 60 57 54 52 51 50 50 47 44 41 38 36 33 31 29 27 27 25
93 99 104 107 111 117 121 125 125 126 127 128 129 125 116 103 96 89 82 77 73 70 66 63 60 57 56 53 51 48 46 45 43 41 37 35 32 30 28 27 25 24 22
100 104 107 112 119 124 126 124 126 125 128 128 122 114 104 96 90 84 77 73 70 66 63 60 58 57 54 51 48 44 43 43 41 39 36 32 29 27 25 23 21 21 21
106 109 112 120 123 124 123 125 127 130 128 122 115 104 96 90 84 78 73 70 66 63 60 58 57 54 51 49 48 46 42 38 37 35 32 29 27 24 22 20 19 19 19
110 115 120 125 126 126 125 128 129 125 120 112 102 96 90 84 79 74 70 65 63 60 57 55 53 51 48 47 46 45 43 41 37 33 30 27 24 22 20 19 19 18 17
116 120 125 127 125 126 128 124 122 118 110 101 94 89 84 79 74 70 66 63 60 58 56 53 49 47 46 45 43 41 39 36 35 32 28 25 23 20 20 19 18 18 18

GFSMW_250_spd_039.txt.gz
Wind_Speed
47 46 46 45 47 49 48 31 37 43 47 54 59 57 61 64 66 67 68 70 71 73 73 71 74 74 75 77 79 81 83 85 87 85 84 85 87 88 90 91 93 96 99
41 39 42 45 46 44 48 50 52 56 58 60 62 63 64 67 69 72 73 74 76 74 74 76 77 79 81 85 88 90 91 93 94 94 93 91 93 97 100 102 103 103 103
36 38 41 45 48 50 53 54 54 57 58 58 60 65 68 70 71 73 74 75 76 78 79 82 83 85 88 91 95 98 101 103 103 102 103 102 102 104 108 112 111 112 113
40 42 44 47 50 53 53 55 55 54 55 57 61 64 65 66 67 70 73 76 79 82 85 87 89 91 96 100 103 108 112 112 112 113 116 117 116 114 107 112 115 116 119
46 45 46 48 48 51 50 46 50 52 56 58 60 63 66 69 72 75 80 83 86 89 91 94 97 102 106 110 115 118 119 120 122 124 124 124 123 121 118 112 115 117 122
33 36 38 42 43 44 44 44 50 54 57 60 63 66 69 72 76 80 83 85 89 92 95 100 105 109 114 117 121 124 126 127 126 124 125 124 123 121 121 120 117 116 118
40 41 42 46 48 49 49 50 55 58 62 65 67 69 72 76 78 80 83 88 93 96 101 106 110 115 120 122 125 128 129 128 125 124 123 124 126 125 122 116 109 103 102
45 47 49 51 54 55 56 58 60 62 64 66 69 72 75 77 80 85 90 94 99 103 107 112 117 120 121 122 122 123 122 122 123 122 122 124 122 116 110 104 96 90 86
42 45 49 53 55 57 58 59 61 63 65 67 69 71 74 79 85 89 95 101 105 110 114 116 117 120 120 119 116 117 118 119 117 116 114 107 102 97 94 90 86 82 78
44 47 48 49 51 54 57 59 61 62 63 65 69 73 77 82 89 96 101 106 111 114 118 119 120 118 117 115 113 115 117 115 111 106 102 97 93 90 86 81 78 75 71
46 47 49 51 53 54 56 59 61 64 66 68 73 79 86 91 96 102 106 112 117 121 122 123 124 125 119 117 119 117 112 108 103 98 93 89 84 81 78 75 71 68 66
46 48 51 53 55 57 58 60 62 64 68 74 81 87 92 98 103 108 115 120 124 126 129 129 128 124 119 115 111 108 103 99 94 88 83 80 75 72 70 68 66 63 61
51 52 54 56 56 57 59 61 64 68 74 81 87 94 100 105 111 116 120 126 131 132 131 125 119 118 111 107 102 96 91 87 82 78 74 71 69 67 65 64 63 61 58
57 56 56 56 56 57 60 64 70 75 83 90 96 102 107 112 118 123 126 129 127 123 120 115 110 105 100 96 91 86 82 78 75 72 68 66 65 64 63 60 59 57 55
59 59 58 58 59 62 67 72 78 86 93 98 103 106 112 120 125 126 124 119 117 113 111 107 100 96 91 87 83 79 76 73 70 67 64 63 62 59 57 55 54 53 51
60 60 60 61 64 68 74 80 87 93 100 104 107 112 122 125 127 123 122 120 114 111 107 100 93 89 85 81 77 74 72 69 67 64 61 60 58 56 54 51 49 49 48
61 62 64 67 71 76 81 88 94 101 105 111 115 119 125 125 126 125 123 116 112 105 98 92 87 83 78 74 71 69 68 67 64 60 58 58 56 53 50 47 44 43 44
65 66 70 74 78 83 89 95 102 105 110 116 124 127 125 126 127 123 120 114 108 99 92 85 80 76 73 70 68 66 64 62 60 58 57 56 55 51 47 44 41 40 38
69 73 76 79 84 90 96 103 107 110 116 125 127 128 127 126 123 120 117 107 99 92 85 81 75 72 69 66 64 62 61 60 58 55 52 50 48 46 43 39 37 34 34
75 79 81 86 91 97 102 107 112 117 122 128 128 127 126 124 123 118 110 100 93 86 80 75 70 67 65 62 59 58 59 57 53 49 45 42 40 39 37 35 33 30 29
81 83 87 93 98 101 106 111 116 121 125 131 128 128 127 123 118 109 100 93 86 80 75 71 67 64 62 59 58 55 53 52 50 47 45 41 38 35 33 30 28 26 24
85 89 94 100 104 108 113 118 124 125 130 129 129 128 123 117 110 101 93 86 80 75 71 67 63 60 58 58 55 51 48 47 47 45 42 40 36 33 29 26 24 22 21
90 96 100 106 110 116 121 122 125 130 129 129 129 124 118 110 101 94 87 81 75 70 67 64 60 57 57 55 52 48 45 44 44 43 40 36 33 30 26 23 21 19 18
97 102 106 111 115 121 125 126 130 129 128 128 122 117 109 102 94 87 80 75 70 67 64 62 58 56 54 52 50 48 46 42 41 40 37 33 31 27 24 20 18 17 15
103 108 111 115 121 123 127 129 129 126 127 121 116 110 103 94 87 81 75 70 66 63 61 59 56 54 52 51 50 48 46 43 40 38 36 32 29 24 21 19 17 16 15
110 114 119 122 123 127 129 124 124 123 118 114 109 102 94 87 80 75 70 67 63 61 59 57 55 53 52 51 49 46 43 41 37 36 34 31 27 23 20 18 16 16 15

GFSMW_250_spd_042.txt.gz
Wind_Speed
49 49 47 46 46 47 47 43 30 39 44 64 58 57 64 67 72 76 78 76 75 76 76 77 77 77 79 81 80 83 85 86 85 85 86 89 90 93 95 95 96 98 99
44 42 43 43 43 39 34 43 44 48 54 57 60 65 70 72 74 74 73 74 75 76 77 78 79 80 81 83 86 88 89 91 93 94 95 95 99 102 104 105 104 103 103
35 34 39 42 44 47 51 55 57 59 60 63 65 68 72 74 74 72 72 73 75 77 79 81 82 84 87 87 89 92 95 95 98 99 101 99 100 103 108 111 111 112 113
36 38 44 47 49 51 53 54 56 58 60 62 63 66 68 67 67 69 71 74 78 82 83 85 85 86 89 93 97 100 102 103 104 106 107 109 109 109 109 113 115 117 119
29 30 32 34 37 41 44 46 47 48 51 55 59 62 65 68 71 74 76 77 79 82 85 85 87 92 96 100 104 108 111 112 114 116 119 121 122 121 120 118 118 120 123
31 34 36 38 42 45 47 49 51 54 56 58 61 64 67 70 72 74 76 77 80 81 85 90 95 100 105 108 112 115 120 121 123 125 125 123 123 123 124 123 121 123 125
37 39 42 46 48 50 53 55 57 59 61 61 62 65 68 70 72 74 76 79 84 89 94 98 103 107 112 115 118 120 122 123 124 124 124 121 121 122 121 119 116 116 116
41 43 46 48 50 53 55 56 58 60 62 62 64 67 69 71 74 77 80 83 89 95 100 105 109 112 115 119 121 122 120 119 120 122 119 117 118 117 111 103 97 94 94
43 45 48 50 51 52 54 57 59 61 64 65 68 70 72 75 77 79 84 89 96 101 107 111 113 118 120 119 119 118 117 118 120 120 117 114 109 103 97 90 85 81 79
47 49 51 52 55 58 60 61 62 64 65 66 67 70 72 75 78 83 90 97 102 105 108 112 116 121 120 119 120 120 116 115 114 112 106 102 97 93 89 83 79 75 72
50 53 53 54 56 58 60 60 61 62 62 64 66 69 72 78 85 92 100 104 106 109 115 117 116 118 117 118 117 114 111 108 103 97 93 91 88 85 82 78 75 72 68
47 49 51 53 54 56 57 58 59 61 62 65 68 74 80 87 94 100 103 105 109 115 121 120 120 119 114 112 108 102 99 95 91 89 85 82 79 77 75 73 72 68 65
50 50 51 51 52 53 55 57 58 61 65 69 75 81 88 93 97 103 107 114 116 121 121 122 121 116 106 101 97 93 90 88 85 81 78 75 72 71 69 66 63 62 60
59 57 55 53 54 54 56 58 61 66 71 77 83 89 96 102 107 112 116 120 126 124 123 120 117 109 99 93 90 88 85 82 79 75 72 69 67 66 64 62 60 57 57
62 59 57 55 55 56 59 64 70 75 81 88 93 99 105 110 114 118 123 127 126 125 121 118 110 103 95 90 87 84 79 76 74 69 66 65 63 61 59 58 57 54 52
64 63 58 57 58 62 67 72 78 84 90 94 100 105 110 114 118 124 127 125 123 123 118 111 103 96 91 88 84 79 76 72 68 66 63 61 60 58 57 54 52 51 50
70 66 61 61 64 69 75 81 86 91 96 101 107 111 114 118 124 126 122 123 122 118 111 104 97 92 87 83 78 75 71 68 65 62 61 62 59 56 53 51 47 44 44
70 66 65 68 72 76 82 87 93 98 103 109 112 115 118 123 123 121 122 121 118 111 104 98 92 87 82 77 73 70 67 65 61 59 58 56 55 52 50 48 45 41 40
72 71 73 76 79 83 89 95 100 104 110 114 117 120 124 122 121 120 121 117 112 104 98 92 88 82 76 72 69 67 64 62 59 54 51 51 49 47 45 44 42 39 36
76 77 79 82 85 90 96 102 106 111 117 120 122 123 119 120 119 119 116 113 104 98 93 88 82 76 72 68 66 63 61 59 57 53 50 48 46 43 41 39 39 36 33
79 81 84 87 92 96 103 108 113 119 121 121 120 121 119 119 118 115 112 106 98 93 87 81 76 72 69 65 62 60 57 56 54 53 52 48 44 40 38 35 34 32 29
82 85 89 93 96 102 108 114 120 122 121 120 120 120 120 118 116 112 107 100 94 88 81 75 72 68 65 62 60 57 55 54 53 52 50 46 41 37 35 33 30 28 25
86 90 94 98 104 110 115 119 124 122 121 120 123 123 118 115 112 108 101 94 88 82 76 73 69 66 62 60 58 56 55 53 51 48 46 43 38 34 32 30 27 24 21
92 96 99 104 110 117 122 126 125 122 120 122 124 121 116 113 110 103 96 90 83 78 74 70 67 63 61 58 57 56 52 49 45 42 41 39 35 32 30 28 24 22 19
97 101 105 110 116 122 127 128 124 120 124 124 121 117 114 110 104 96 90 85 78 74 70 67 64 61 58 56 54 50 47 45 43 39 37 36 34 31 28 27 24 20 18
101 107 112 117 124 128 127 121 119 123 124 123 117 114 111 105 98 91 86 79 75 70 68 65 61 58 56 53 49 47 45 43 41 39 36 35 33 30 27 25 23 20 17

GFSMW_250_spd_045.txt.gz
Wind_Speed
58 53 50 51 54 51 48 45 43 28 29 52 57 62 61 65 66 73 73 78 81 84 87 87 88 86 81 79 80 82 83 85 85 86 88 90 89 91 93 93 94 94 94
52 48 44 45 43 43 45 47 48 40 44 54 61 63 64 63 70 75 80 83 84 84 82 79 79 81 82 83 83 85 87 89 90 90 89 89 91 94 97 100 101 102 104
43 40 40 41 43 42 43 43 42 44 48 52 54 55 57 61 64 68 71 74 75 76 79 81 81 82 83 85 86 87 87 87 90 94 98 100 103 105 109 110 111 111 113
36 34 31 34 34 35 38 41 42 44 46 51 54 57 60 63 67 69 72 73 75 77 78 79 80 82 83 84 85 89 93 97 101 105 109 113 114 117 115 117 119 120 120
26 26 30 34 37 39 42 44 46 49 51 54 56 59 60 61 63 65 68 70 72 74 76 79 80 81 83 87 93 99 104 107 110 111 114 117 120 124 127 126 126 124 126
27 30 34 37 41 43 46 48 51 53 56 59 60 62 63 64 65 68 70 71 72 74 75 76 80 86 92 97 103 107 108 111 113 117 119 119 121 124 128 128 128 126 124
30 34 38 42 45 47 50 52 54 56 58 60 61 62 63 65 67 68 67 68 71 75 79 84 90 96 101 105 105 106 107 111 116 119 119 120 122 123 122 120 120 116 111
34 38 41 44 48 52 55 57 58 59 61 62 63 64 65 66 67 66 68 72 77 82 88 94 99 103 107 107 109 109 114 114 116 116 116 118 117 116 114 110 105 101 98
36 39 42 46 49 51 54 56 58 59 60 62 63 63 63 64 67 70 74 79 84 90 94 101 104 106 107 110 111 112 115 115 115 113 111 109 106 103 100 95 91 86 83
38 40 43 45 49 53 54 56 57 57 58 59 60 62 64 66 71 75 80 86 91 95 99 102 105 109 113 111 112 114 116 111 107 104 101 97 93 90 87 84 82 77 74
41 43 46 52 56 57 55 55 55 57 58 58 58 60 64 69 74 80 86 92 96 99 101 104 108 109 109 112 114 112 109 104 98 93 90 87 83 81 78 76 74 72 69
44 45 50 55 57 57 55 55 56 56 56 58 60 66 72 78 83 89 94 101 100 101 105 107 108 113 116 116 112 107 100 95 90 86 82 79 77 74 72 71 70 67 65
45 48 52 57 57 56 53 53 54 55 58 62 70 75 79 88 93 98 102 102 103 106 108 114 116 117 117 113 105 97 91 88 84 81 78 74 73 71 69 67 66 63 61
51 55 57 60 61 59 56 57 59 62 66 71 77 81 88 96 99 106 104 106 108 109 113 115 116 115 111 104 96 90 87 83 78 75 73 71 68 67 67 64 61 59 57
58 60 62 64 64 66 63 63 66 69 73 79 83 89 97 102 109 110 110 111 111 114 115 113 112 108 103 96 91 86 83 79 75 72 70 68 66 64 63 60 59 56 53
63 66 67 68 68 71 70 70 71 76 80 85 91 97 104 109 115 114 115 114 114 115 113 109 106 101 95 92 87 82 78 75 73 71 68 65 63 61 58 54 50 47 48
69 71 73 72 74 78 79 76 78 82 87 91 97 103 108 116 117 117 112 115 114 113 109 104 101 95 91 87 82 78 75 73 70 68 65 63 60 57 54 52 49 47 45
74 76 75 75 79 82 83 81 83 88 92 98 104 110 116 118 117 114 114 115 111 108 105 102 97 91 87 82 78 75 73 69 66 64 60 58 56 54 52 51 49 46 43
78 79 79 81 84 86 87 85 88 93 98 105 111 116 120 118 116 114 114 113 108 106 104 100 94 88 83 78 75 72 68 66 64 61 58 55 54 51 49 47 45 43 41
81 83 85 87 89 90 89 90 93 98 104 111 117 120 120 115 115 114 113 112 109 106 102 95 89 85 79 75 72 69 66 64 62 59 58 54 50 47 45 43 41 38 37
85 89 88 91 92 92 91 93 98 105 110 117 121 121 117 115 113 114 115 112 108 104 98 91 85 80 75 71 68 66 64 62 59 58 54 49 45 42 39 38 36 35 33
90 91 93 94 96 93 94 98 105 111 117 122 124 121 117 116 117 117 114 109 107 101 93 87 82 76 72 69 66 64 61 59 57 52 49 47 43 39 36 34 33 32 31
93 93 96 97 96 95 98 105 111 117 123 125 121 117 117 118 121 118 111 107 103 96 88 83 78 72 69 67 64 62 59 57 51 48 46 44 41 38 34 31 30 29 27
95 97 99 100 98 100 106 111 117 123 126 120 118 118 119 122 120 112 109 105 98 91 85 80 74 69 67 64 62 60 57 52 48 46 42 40 39 36 32 31 29 27 25
97 100 102 101 102 107 113 118 123 128 122 119 120 119 122 122 114 111 107 100 92 86 80 75 70 67 64 62 60 58 54 50 46 44 42 39 37 36 33 29 27 25 23
102 104 102 104 108 114 119 124 127 124 120 120 121 122 122 115 112 108 102 94 87 81 76 71 67 64 62 59 57 55 51 47 44 44 41 38 36 34 31 29 27 24 22

GFSMW_250_spd_048.txt.gz
Wind_Speed
52 56 57 60 66 61 58 54 49 47 43 41 39 51 58 62 63 69 74 78 80 85 82 84 92 93 90 85 86 88 89 90 89 87 84 83 82 81 83 84 85 84 86
47 48 49 51 50 51 47 47 47 45 41 40 40 50 54 63 72 70 73 75 75 77 77 78 80 81 82 83 84 84 86 87 85 84 84 84 86 88 87 94 96 96 98
49 42 43 43 43 44 42 39 37 38 40 41 44 47 52 56 60 64 67 70 73 75 76 77 79 80 82 82 84 84 84 84 86 88 91 95 99 102 105 105 106 110 111
35 36 35 36 34 33 35 36 40 43 46 48 51 54 57 60 64 66 69 70 73 75 76 78 79 79 79 81 82 83 87 90 94 99 103 105 109 111 112 117 119 119 119
29 26 24 27 31 35 38 41 44 48 50 53 56 58 61 63 65 67 69 71 73 75 75 75 73 74 77 82 87 91 95 99 102 106 109 111 113 117 118 119 121 124 124
21 24 27 31 35 38 42 45 48 51 54 57 60 62 64 66 67 68 69 69 69 69 69 72 75 79 83 87 92 96 101 103 106 109 112 115 117 120 122 123 123 122 121
23 27 30 34 38 40 42 44 47 51 54 57 59 61 62 64 64 66 65 64 63 66 71 76 81 86 91 95 99 99 103 105 108 111 114 116 117 117 117 117 114 112 110
26 30 33 35 38 41 43 48 53 57 58 58 59 60 61 62 63 63 61 63 67 70 80 84 86 95 95 97 100 102 104 106 109 112 114 113 113 112 110 108 107 101 100
28 30 35 39 40 42 47 51 55 58 59 60 61 62 61 60 60 62 64 70 76 79 88 91 97 98 98 99 100 103 107 111 114 115 113 110 107 104 101 99 97 93 89
27 33 36 39 42 45 49 53 55 56 57 57 58 59 59 58 61 64 72 77 81 87 93 99 99 99 99 99 103 106 108 110 109 107 105 102 98 95 92 89 87 85 81
32 33 36 42 46 49 53 56 59 60 61 60 59 59 61 63 67 72 77 82 88 94 99 99 100 99 100 103 108 108 107 105 102 100 97 94 90 87 83 80 77 75 72
37 38 45 47 50 55 57 60 61 63 65 66 66 66 68 70 73 79 82 89 95 101 101 103 100 102 103 105 107 106 103 100 96 92 88 85 81 77 74 72 70 68 66
41 44 50 52 54 59 60 63 65 67 69 71 72 72 73 76 80 84 90 97 104 105 106 103 104 105 107 108 103 100 97 93 87 84 82 78 75 72 71 69 65 63 62
45 50 54 57 60 64 66 68 72 75 76 75 77 79 78 79 84 91 97 105 109 109 108 107 108 109 108 105 100 95 90 86 82 79 76 73 71 68 67 66 63 60 58
52 56 61 64 66 69 71 74 78 81 81 82 83 84 82 84 91 97 104 110 113 112 110 112 110 108 103 99 96 90 84 81 78 75 72 68 66 64 63 61 60 58 56
59 63 66 70 71 76 78 81 84 86 86 87 90 88 86 90 98 104 111 115 117 114 115 112 110 102 97 96 91 85 81 78 73 71 68 65 63 60 60 59 56 55 53
65 68 70 74 78 81 84 85 89 91 89 92 94 92 92 97 104 111 116 121 118 115 113 111 105 99 97 92 86 81 78 73 70 68 66 63 60 59 59 58 56 53 49
69 72 75 79 83 85 87 91 94 93 93 96 98 95 98 103 110 117 121 122 117 115 113 108 102 99 94 86 82 78 73 69 67 65 62 60 58 58 56 54 52 48 45
73 76 80 84 87 89 93 97 96 94 97 100 98 99 103 110 117 121 123 118 113 114 109 103 101 96 89 84 79 74 70 67 63 60 59 58 57 53 50 49 48 44 40
77 80 84 88 89 93 97 98 96 99 102 100 100 104 111 117 122 123 116 113 113 112 108 103 99 93 85 80 75 71 68 64 61 58 57 57 52 48 45 46 45 41 36
82 86 89 91 95 98 99 97 97 102 102 101 106 111 119 123 126 116 113 115 114 108 104 102 97 89 81 76 72 68 64 62 59 57 57 54 48 44 43 42 41 38 35
86 89 92 96 99 100 100 99 103 104 104 107 113 119 124 125 117 116 114 117 112 105 104 99 92 84 78 72 68 64 61 58 56 55 55 51 47 43 42 40 37 35 33
90 93 97 100 101 100 100 104 105 106 109 114 120 124 124 117 115 117 116 113 109 107 101 95 86 79 73 69 64 60 58 55 53 53 52 48 46 44 39 38 35 33 31
95 99 101 100 99 102 105 104 106 110 115 121 124 121 115 116 117 115 112 107 107 102 95 87 80 75 70 66 61 58 55 53 51 51 49 45 43 43 39 35 34 32 30
101 100 98 100 104 106 105 108 112 117 122 127 120 118 119 118 115 111 108 110 105 96 88 81 76 71 67 63 59 56 53 51 49 49 46 42 40 38 39 37 34 32 29
96 99 102 104 104 107 111 114 120 124 126 122 119 120 119 117 113 109 108 102 94 87 82 77 72 68 65 60 57 54 52 50 48 47 44 41 38 36 35 35 33 30 29

GFSMW_250_spd_051.txt.gz
Wind_Speed
32 47 51 50 52 55 60 63 65 67 63 58 55 53 53 54 59 62 64 68 76 82 84 83 85 91 85 87 90 88 87 87 87 86 83 84 84 84 79 79 84 84 85
46 48 51 52 54 59 62 60 56 53 51 49 45 44 45 49 53 55 59 66 75 76 76 77 77 80 82 80 82 85 86 85 81 79 78 79 83 89 90 91 94 95 96
46 53 56 58 62 58 53 47 45 41 39 41 44 46 50 53 57 60 63 67 70 73 76 78 80 81 82 82 78 73 73 78 81 85 88 90 93 96 102 106 110 110 110
56 48 48 48 44 42 37 35 36 38 41 44 47 51 55 58 62 65 68 70 74 75 77 77 77 76 73 70 70 75 81 84 88 91 98 103 106 108 107 110 112 117 119
40 40 38 34 32 31 32 35 38 42 44 48 51 55 59 63 65 68 69 70 71 71 72 71 68 64 68 73 78 82 89 93 98 102 104 106 108 111 112 109 113 117 120
32 27 27 26 27 31 34 38 40 43 46 50 54 57 60 61 63 65 66 67 66 66 65 64 66 69 74 80 84 90 97 100 103 107 108 108 107 108 111 114 114 113 114
21 21 22 25 29 32 37 40 42 44 48 51 54 56 58 59 59 61 63 63 64 64 64 68 70 76 79 85 92 98 100 102 104 103 103 105 109 112 113 115 112 107 106
18 21 23 25 30 35 36 39 41 44 46 50 53 56 57 59 62 63 63 65 68 70 71 73 77 81 86 92 99 103 103 102 101 103 106 108 112 112 110 109 106 104 101
19 21 25 27 32 32 38 42 42 44 46 51 54 58 62 64 66 67 68 68 69 72 74 76 80 88 93 100 104 104 103 103 104 105 109 111 113 109 107 105 102 97 90
21 25 28 33 35 38 44 45 46 49 54 58 62 65 69 71 73 74 73 74 76 75 77 80 87 93 99 105 108 106 104 106 108 110 112 109 107 105 100 97 93 90 85
28 32 34 37 39 43 48 51 55 58 61 65 69 72 76 77 79 77 77 78 80 81 82 87 94 99 105 111 109 107 107 109 112 111 104 104 101 97 93 89 86 82 79
34 37 40 43 47 50 55 59 63 66 69 72 76 77 81 84 86 81 81 84 85 85 88 93 101 106 112 112 109 110 110 110 106 101 100 97 93 89 85 82 78 75 73
40 42 46 49 54 57 61 64 68 72 75 78 82 84 87 90 88 83 87 90 90 91 96 103 108 114 115 112 111 109 107 103 99 96 93 89 85 81 78 74 73 70 68
43 47 51 56 59 64 65 69 73 76 79 82 86 89 92 94 90 90 93 96 94 98 104 109 115 119 114 112 111 107 97 96 95 90 87 81 77 74 71 70 68 65 64
50 52 56 61 65 69 71 75 78 81 84 89 91 95 96 96 93 94 98 98 99 106 111 116 119 115 111 112 106 100 96 92 88 84 79 74 72 69 67 65 63 60 59
55 56 60 63 69 73 76 79 83 85 90 92 95 99 98 97 96 100 100 101 105 112 117 121 118 115 111 109 97 95 93 86 81 77 74 70 66 66 63 63 59 56 54
58 59 64 69 74 77 81 83 86 91 93 96 100 101 98 98 101 102 103 107 112 117 120 119 117 114 108 102 97 91 86 81 76 72 69 66 63 63 60 57 56 53 51
58 63 70 74 77 80 83 86 91 94 97 101 103 99 99 102 103 104 107 114 117 120 121 115 115 109 102 101 96 87 80 76 72 69 66 63 61 59 56 54 52 49 48
65 70 75 78 80 83 86 91 94 98 102 102 98 100 102 102 106 109 115 118 120 122 115 114 107 103 99 96 89 82 77 73 69 65 63 60 57 54 52 50 49 47 46
70 73 77 79 84 88 92 95 98 102 99 99 101 102 104 108 111 115 120 121 123 115 112 108 104 102 96 91 83 77 73 69 65 61 58 58 54 52 49 47 44 44 42
74 77 82 86 90 92 94 100 101 98 99 101 103 106 110 114 117 122 123 125 116 113 109 106 103 98 92 85 78 74 69 66 62 59 56 53 53 51 48 45 43 40 38
80 83 88 91 93 96 101 101 99 99 102 104 108 112 116 120 124 124 123 117 113 109 106 103 97 93 86 82 75 71 67 64 60 56 54 51 50 48 46 43 41 38 36
85 89 93 94 97 102 100 99 100 102 106 110 113 118 122 127 127 123 117 115 111 108 103 97 92 87 82 77 72 67 65 61 57 55 52 49 48 46 45 42 38 37 35
90 92 95 99 101 98 98 100 103 108 112 116 120 123 127 127 122 119 115 111 107 105 98 94 87 82 78 73 68 65 61 57 55 53 49 48 46 45 43 40 38 34 33
92 96 101 100 98 98 101 104 110 114 119 122 125 129 124 119 117 114 113 110 105 97 92 88 83 80 75 70 65 62 58 55 52 50 48 46 45 43 41 38 36 35 32
99 102 99 98 100 104 108 111 116 120 123 125 128 122 118 117 114 110 109 104 98 93 87 83 79 75 70 67 63 58 55 52 50 48 46 44 43 41 39 36 34 34 31

GFSMW_250_spd_054.txt.gz
Wind_Speed
36 34 29 28 35 40 53 60 59 55 58 61 65 66 64 62 61 60 58 59 62 65 69 71 74 78 81 80 82 81 81 82 79 73 68 65 67 74 80 81 83 86 89
29 34 37 42 45 52 58 55 57 58 60 65 66 61 59 55 53 56 59 61 64 68 69 73 74 74 77 77 76 76 74 71 66 63 67 68 75 81 88 93 97 101 102
42 44 48 49 48 48 52 56 61 64 61 56 54 48 49 51 52 55 59 62 63 63 64 66 67 69 70 71 71 69 67 66 70 74 76 77 81 86 94 103 107 111 112
48 46 49 51 53 55 60 56 52 51 46 43 45 46 47 50 53 56 57 58 61 62 64 66 68 69 69 69 70 71 72 72 74 79 84 89 92 96 95 102 107 109 115
49 52 48 48 46 47 46 43 40 39 40 41 43 46 47 48 50 52 53 56 58 60 64 67 68 68 70 72 75 77 80 80 81 84 90 95 101 107 109 106 105 105 108
39 39 40 41 42 37 35 34 34 35 37 40 41 42 46 47 52 57 61 64 67 68 71 68 66 67 69 72 74 75 80 84 84 90 99 104 109 110 113 110 108 105 108
37 39 36 31 30 32 31 31 33 34 38 40 42 45 51 52 56 59 66 69 73 75 77 75 72 72 75 76 77 78 79 87 92 100 105 109 113 112 111 110 107 105 104
31 27 26 28 28 28 30 32 35 40 44 43 48 53 57 60 64 68 72 75 78 82 82 80 77 78 80 80 79 81 87 93 101 106 111 112 112 108 110 110 108 103 99
25 25 26 26 27 30 35 38 39 43 48 52 55 61 63 66 71 74 77 83 85 87 88 84 81 82 84 85 87 90 97 101 108 110 111 109 111 111 111 110 104 99 95
25 25 27 30 29 36 41 45 46 49 53 57 60 63 67 71 75 79 84 87 88 93 92 89 87 88 90 91 94 99 104 107 112 109 108 111 112 110 104 106 104 99 92
28 29 31 35 39 40 46 50 52 55 60 63 65 70 75 79 82 85 88 91 93 97 94 90 91 93 94 96 102 105 108 111 109 109 111 110 108 105 103 101 98 93 88
32 35 38 41 46 48 50 55 58 63 66 71 74 79 82 86 88 91 93 95 99 97 92 92 94 96 101 103 107 112 113 110 110 111 110 106 105 102 98 94 89 85 80
36 39 43 46 49 52 55 58 63 67 72 76 80 83 85 88 91 93 96 100 97 93 94 95 99 102 106 110 115 117 111 112 113 109 105 104 99 94 90 85 81 76 73
40 42 46 47 51 56 60 60 65 71 75 79 83 85 87 92 94 97 102 97 96 94 97 102 105 106 112 115 120 115 112 112 108 106 103 97 91 86 83 77 74 69 67
47 48 50 53 57 60 61 65 70 75 80 82 85 90 92 94 98 103 99 96 97 100 104 109 110 115 118 116 113 112 111 106 102 100 95 89 81 79 75 71 68 64 62
52 54 56 58 60 62 66 71 75 78 81 86 89 93 94 99 103 100 98 99 102 106 109 113 115 120 119 115 114 110 104 101 97 90 85 80 74 73 70 68 64 61 59
54 58 59 61 64 65 70 74 78 81 86 90 95 96 99 104 100 99 100 105 110 113 114 119 119 119 115 116 111 106 101 97 90 83 78 75 70 70 65 62 59 59 57
59 61 64 66 65 71 76 80 82 86 90 96 97 101 104 101 99 101 106 111 115 117 121 122 119 115 113 110 108 104 98 90 83 77 74 71 65 65 61 58 57 56 55
63 65 66 68 72 77 80 85 89 92 94 96 102 105 101 100 103 107 112 117 120 121 122 121 117 116 108 106 103 97 90 83 78 73 70 68 62 61 58 56 55 53 52
66 66 69 74 77 81 85 90 93 95 98 103 106 102 101 105 109 113 118 120 124 125 125 119 115 110 104 102 97 89 85 79 75 70 66 65 60 58 55 54 52 50 49
68 70 74 78 81 86 91 94 96 100 104 105 103 102 106 110 115 119 122 125 127 125 118 115 111 107 100 95 91 84 79 74 71 66 62 60 59 55 53 51 49 48 47
72 76 80 84 87 91 94 96 100 104 107 104 103 106 111 116 120 123 126 128 122 117 114 110 105 101 94 90 87 79 75 71 69 64 60 57 55 54 52 48 46 46 44
78 82 85 89 93 95 97 100 104 109 106 105 108 112 115 120 125 128 129 121 117 113 109 105 99 95 89 84 81 78 72 68 65 62 58 55 52 51 49 46 43 42 41
83 87 91 94 95 97 100 104 109 106 106 110 115 118 122 125 128 128 121 120 114 108 104 99 95 92 87 80 76 73 70 65 61 59 56 52 51 49 46 43 41 40 39
90 93 95 95 97 101 106 109 108 108 111 115 119 123 126 126 123 117 116 111 112 107 101 95 88 84 82 77 73 68 66 62 59 55 52 50 49 47 43 41 40 39 37
93 96 96 98 103 108 110 108 109 112 116 119 123 126 126 122 118 113 108 109 104 103 98 91 84 81 76 72 69 65 62 59 56 54 51 49 47 44 42 40 39 37 35

GFSMW_250_spd_057.txt.gz
Wind_Speed
22 25 31 36 40 41 39 43 51 52 53 54 56 59 60 63 65 65 66 63 63 61 62 64 64 65 64 64 67 70 71 71 68 67 68 67 69 69 70 71 74 77 80
31 34 36 36 44 42 40 43 46 55 62 62 64 61 61 61 63 61 59 59 59 57 56 55 55 59 62 65 67 69 70 72 72 71 72 72 75 77 79 81 83 86 88
25 31 33 32 38 45 50 48 51 54 56 58 58 59 58 57 55 54 54 52 49 49 51 56 60 64 66 70 72 73 74 74 75 75 75 75 75 76 80 85 89 92 96
29 36 36 39 43 45 50 54 51 53 53 56 55 53 50 49 50 49 46 48 50 53 57 61 64 69 73 76 78 80 80 78 75 75 77 79 76 73 72 79 87 97 105
41 46 44 45 46 49 50 51 51 51 50 50 48 46 46 44 43 42 47 51 54 58 61 66 71 76 79 82 84 86 84 79 78 79 79 78 79 83 85 87 95 103 113
39 43 44 45 43 43 43 46 46 46 44 43 45 44 43 45 45 48 53 56 58 60 63 70 74 77 82 85 88 89 82 77 79 81 81 83 89 95 99 102 106 109 115
35 37 39 41 41 42 41 40 39 39 41 41 41 44 48 50 53 57 61 64 68 71 75 78 83 86 89 94 93 85 81 79 82 87 92 96 100 104 108 111 111 109 108
36 38 39 40 36 35 36 36 35 39 44 45 46 49 54 56 59 63 64 68 75 80 83 86 89 92 96 97 89 86 86 90 92 96 99 101 107 108 109 110 108 105 102
37 34 31 33 34 35 37 38 37 42 49 51 52 56 60 63 67 72 75 78 81 83 87 90 92 96 97 92 89 92 95 98 103 103 106 107 108 109 109 110 110 104 93
29 29 31 32 34 37 40 41 42 46 52 57 60 63 65 68 72 77 80 82 84 88 91 93 97 98 92 91 93 99 104 105 105 108 111 109 108 110 110 108 104 100 95
30 31 32 33 35 37 42 48 49 51 53 56 60 64 67 71 75 79 80 84 86 92 94 98 99 93 92 96 100 105 107 108 110 111 108 109 109 109 107 104 101 98 92
34 35 34 35 36 39 43 46 48 53 57 59 62 66 70 75 78 79 84 87 92 94 99 99 92 93 96 102 106 109 110 113 113 110 110 109 108 106 103 99 96 91 86
36 37 38 39 42 44 49 53 55 58 61 64 68 71 75 78 82 86 89 93 95 100 101 94 94 99 101 107 111 113 116 116 112 111 109 108 107 104 99 92 88 83 79
39 39 41 43 45 50 53 57 60 62 64 68 72 74 78 82 87 91 93 97 102 102 97 96 101 106 108 112 114 116 114 111 111 110 108 107 105 99 93 87 82 78 74
42 44 46 49 52 55 58 60 62 67 69 72 75 79 82 87 92 95 98 102 106 101 98 101 106 110 114 116 117 113 112 111 108 107 104 101 95 90 86 81 77 73 69
49 50 53 54 57 60 63 65 68 71 74 78 81 84 88 92 95 98 102 108 106 101 102 107 110 115 117 119 117 116 114 112 108 105 99 93 88 83 79 76 72 67 64
51 53 56 58 61 63 67 69 70 72 77 82 86 90 93 95 98 101 106 109 105 105 108 111 116 117 119 118 118 114 111 108 105 100 94 87 82 76 74 70 66 64 61
56 58 59 61 63 65 68 70 73 77 81 86 90 95 96 97 101 104 110 108 107 109 113 117 117 117 118 115 113 110 107 104 100 94 87 81 77 71 69 66 62 60 57
60 61 63 64 67 69 73 77 80 83 86 91 95 96 98 102 107 111 109 106 108 114 120 119 120 118 116 114 110 106 102 98 92 85 79 76 71 67 65 63 61 56 53
59 61 64 68 71 75 80 84 87 90 93 96 98 99 103 108 112 112 111 113 116 119 121 124 122 117 114 110 106 102 97 90 85 80 74 71 67 64 61 59 57 54 51
61 64 68 72 76 81 85 88 92 95 99 101 101 105 109 112 114 112 114 119 122 122 124 119 117 113 110 106 100 96 90 84 80 75 70 67 63 60 57 55 53 51 48
65 69 72 76 81 85 89 91 95 98 102 103 106 111 111 114 115 117 121 126 125 122 119 115 112 109 104 100 93 89 85 79 75 71 67 63 61 57 54 51 49 48 47
70 73 79 84 86 90 92 96 99 102 104 107 113 112 114 114 116 120 127 128 122 119 118 113 108 103 100 96 87 84 80 75 70 67 64 60 57 55 52 49 48 45 43
77 81 85 88 91 94 97 101 102 103 108 113 116 116 115 117 121 125 124 119 118 115 113 109 103 98 94 89 86 80 75 71 67 62 60 58 55 53 50 48 46 43 41
81 85 89 92 96 100 103 105 104 108 114 119 119 117 119 123 125 124 118 114 113 109 108 105 97 89 85 81 78 75 70 66 64 61 58 55 53 51 49 46 43 40 38
85 90 94 98 102 105 106 107 110 115 118 119 118 120 124 127 124 121 115 113 109 106 105 97 88 86 80 76 72 69 65 61 62 61 58 55 50 47 45 43 40 38 37

GFSMW_250_spd_060.txt.gz
Wind_Speed
35 38 41 43 49 47 41 42 44 46 52 56 56 57 58 59 61 69 72 69 70 68 66 62 63 62 60 58 58 62 66 71 72 74 78 80 85 85 81 77 78 81 82
39 39 42 42 36 39 40 44 46 50 50 50 49 54 61 62 63 62 62 64 63 60 58 58 58 58 58 61 64 67 71 75 78 80 82 85 89 83 80 79 80 83 84
44 43 40 37 34 37 37 39 41 44 50 53 53 54 56 56 55 55 57 58 56 57 58 57 59 62 64 67 69 72 75 79 83 86 88 88 80 76 79 79 79 83 86
28 35 39 37 37 38 42 44 48 51 53 51 51 51 55 54 53 56 57 54 55 56 58 62 64 67 70 73 75 77 80 84 89 92 94 85 79 76 73 78 83 88 94
27 31 37 40 40 40 39 40 38 50 50 51 51 51 50 52 53 53 55 56 57 59 63 67 71 73 75 77 79 84 87 89 92 94 86 81 81 85 88 88 93 97 102
32 34 41 45 48 43 41 41 46 45 46 48 48 48 50 52 53 54 55 57 60 63 66 69 72 76 76 78 83 87 89 92 93 85 81 85 89 95 98 99 100 102 103
41 44 45 41 35 34 44 44 44 44 45 46 47 50 51 53 56 57 60 62 65 67 71 76 74 73 78 81 85 89 93 93 84 83 87 90 96 103 106 107 105 102 101
40 42 39 35 38 39 40 39 39 43 46 48 49 52 54 57 60 63 65 69 71 73 73 74 77 81 83 86 91 94 92 87 87 91 95 99 105 108 110 109 108 104 103
35 35 38 37 36 34 35 40 42 44 46 48 51 53 55 59 62 65 69 70 70 73 75 79 84 87 90 94 97 98 94 91 93 97 102 107 110 110 109 110 111 111 105
34 36 37 35 34 34 37 40 41 43 46 49 51 53 57 60 63 67 71 73 74 77 81 85 89 91 94 98 101 99 94 96 99 102 108 109 110 110 110 111 111 107 101
34 32 32 36 38 40 41 41 43 45 48 52 56 60 63 66 68 73 74 75 79 82 85 89 92 95 99 102 105 100 98 100 106 109 109 109 110 111 111 111 107 102 97
31 29 34 37 39 40 42 44 46 49 53 56 59 61 64 67 72 72 74 77 81 85 88 91 94 99 102 105 102 100 103 107 110 109 111 112 113 113 112 109 104 98 92
29 30 35 37 38 41 44 47 51 54 56 59 62 65 67 69 69 74 77 81 85 89 91 92 98 104 106 105 102 106 109 109 110 111 111 112 114 114 108 103 99 93 87
32 35 39 39 41 44 48 51 54 56 59 62 65 67 68 72 76 79 83 88 91 93 94 99 105 107 109 106 108 114 113 110 111 112 113 112 112 108 103 100 94 87 82
35 38 41 43 46 48 51 55 56 59 61 65 67 70 74 78 81 86 90 93 97 98 100 107 107 106 106 108 112 112 108 109 112 112 111 109 107 104 98 92 86 81 77
41 44 46 48 51 54 55 57 60 62 66 69 72 76 80 84 87 91 94 97 100 101 109 110 109 107 111 114 113 112 112 112 112 111 109 106 103 95 87 83 79 75 71
43 46 49 52 53 54 56 59 63 66 70 74 79 83 86 89 92 97 100 101 104 109 114 113 108 111 116 117 117 117 115 114 113 109 105 100 96 87 82 77 72 69 65
44 46 48 50 52 56 59 63 67 71 75 80 84 89 92 94 98 102 104 104 109 114 117 112 114 117 120 120 119 117 114 113 110 107 101 94 87 82 76 71 68 65 60
49 50 52 55 58 61 65 68 72 77 81 85 90 92 95 99 103 105 106 109 114 116 111 116 119 124 122 119 118 115 112 110 106 101 92 86 80 76 72 67 65 61 57
52 55 57 60 63 66 69 73 77 82 86 90 93 96 101 104 106 107 110 116 114 111 117 119 123 120 118 116 115 111 107 103 98 92 86 80 75 71 67 64 62 58 54
55 58 61 64 68 71 75 79 83 87 89 92 97 102 104 106 109 112 118 112 114 116 119 120 119 117 114 113 111 106 102 96 90 86 80 75 70 66 62 60 59 56 54
59 62 65 69 72 76 80 84 87 90 94 99 104 105 107 110 112 116 113 118 119 121 120 117 116 115 113 110 105 100 95 88 83 79 74 70 66 62 59 58 57 54 51
62 66 69 73 76 80 83 86 91 95 100 104 107 109 110 114 114 112 118 120 123 122 121 119 114 111 110 106 98 92 88 83 78 74 69 64 62 61 59 56 54 51 48
68 70 73 77 79 83 87 92 96 100 103 107 110 111 114 113 115 120 121 122 124 122 117 115 111 107 104 97 90 87 84 79 73 70 64 60 61 59 57 53 50 47 45
73 75 78 80 84 89 93 97 100 102 107 110 112 116 114 117 121 122 123 123 121 118 114 110 105 100 97 90 84 80 78 73 69 67 63 60 58 56 53 51 48 45 43
75 78 82 86 91 95 98 100 102 107 110 111 115 115 117 122 125 124 121 120 120 115 111 106 97 92 88 81 77 75 72 69 65 65 62 59 57 54 51 48 45 43 41

GFSMW_250_spd_063.txt.gz
Wind_Speed
36 40 38 36 34 40 39 43 50 59 57 59 59 58 57 61 61 64 63 62 66 69 70 69 69 66 68 68 67 67 69 72 74 78 82 81 82 86 89 91 93 94 88
36 35 36 45 43 45 47 50 53 54 52 50 52 54 58 55 53 56 62 65 62 64 65 65 66 67 66 65 67 69 74 77 80 80 79 81 85 88 92 95 97 95 86
44 45 44 42 39 42 43 48 47 44 46 48 47 50 49 52 57 60 59 58 59 62 62 64 68 68 67 68 70 73 77 80 78 79 82 84 86 91 97 99 95 89 88
48 43 42 44 46 45 46 40 42 43 47 50 54 52 52 53 56 57 57 57 59 62 64 69 70 69 69 72 76 79 80 78 80 83 87 90 93 95 94 90 88 91 94
35 34 38 39 35 38 39 38 43 48 46 46 46 48 49 50 51 54 55 58 62 65 69 72 74 74 75 77 76 76 77 80 84 87 90 94 97 99 95 87 89 92 97
27 30 28 30 33 34 39 46 47 50 52 48 47 47 47 49 52 55 58 63 65 69 71 71 72 73 75 75 75 79 81 84 87 89 94 96 98 97 94 92 94 97 102
35 33 37 40 39 44 48 45 44 47 45 48 46 44 46 50 55 58 62 65 64 64 66 70 72 74 72 76 79 82 84 86 88 93 99 99 98 95 95 99 103 108 110
44 42 44 45 45 44 45 46 45 47 49 44 42 45 50 53 57 58 59 61 66 68 71 73 73 72 76 79 82 84 87 90 93 100 102 100 99 100 105 110 114 113 109
44 42 39 40 41 38 40 45 47 45 40 42 46 50 53 56 57 59 62 65 66 70 70 70 72 76 79 82 85 88 91 94 101 102 101 101 102 108 113 115 113 113 111
36 37 36 36 35 39 42 41 38 41 45 49 51 53 54 55 58 61 64 68 69 65 69 73 77 80 83 88 92 95 97 101 106 106 102 103 109 113 114 113 113 114 112
33 36 37 36 36 36 35 37 41 46 49 51 50 52 54 57 59 63 65 66 69 73 77 80 82 86 91 95 98 100 103 107 111 106 104 109 113 113 113 114 113 111 109
36 39 39 35 33 35 38 41 44 47 48 49 52 55 58 60 63 67 71 71 74 78 83 85 88 93 97 100 100 103 109 111 106 107 110 113 112 112 114 114 110 105 101
38 38 34 31 33 39 42 44 46 48 50 53 56 58 60 63 66 68 70 75 79 83 84 88 95 99 101 101 105 111 108 105 110 111 112 112 113 114 114 112 105 101 97
34 27 27 32 38 41 44 47 50 53 57 58 59 62 65 68 70 73 78 81 83 84 90 96 100 101 102 106 112 106 111 112 113 114 113 114 115 115 112 107 103 97 90
29 29 32 36 39 43 47 49 53 56 58 60 62 65 69 71 75 79 83 83 85 91 97 100 102 103 108 111 108 113 113 114 115 115 115 114 113 111 107 102 96 89 84
34 36 38 40 43 46 50 51 55 58 61 63 66 69 73 76 79 82 84 87 93 98 101 104 104 109 110 109 112 113 116 117 115 116 115 113 110 106 100 94 88 82 77
37 39 42 45 47 49 52 55 57 60 63 66 70 73 76 80 82 85 89 94 98 102 105 106 110 110 110 113 114 116 117 116 117 117 114 110 105 99 93 86 82 75 70
38 40 42 45 47 51 54 56 59 62 66 69 72 76 80 84 87 90 95 98 102 106 108 111 112 111 116 115 116 116 117 118 118 114 110 105 98 92 86 80 76 70 66
41 43 46 48 51 53 56 59 62 66 69 72 76 80 83 87 91 96 100 101 106 108 110 113 111 117 118 118 119 118 118 118 115 112 106 97 92 87 80 76 71 66 62
46 48 50 52 54 57 60 62 65 70 73 76 80 83 87 92 96 100 101 106 108 109 112 111 116 119 118 119 118 117 116 115 111 106 98 91 86 80 75 71 67 63 60
51 52 54 57 59 61 63 67 70 73 76 80 84 88 93 97 100 101 106 111 110 113 112 114 117 118 117 117 117 115 114 112 104 98 92 84 79 76 71 67 63 61 59
55 58 60 61 63 65 68 72 75 78 81 85 90 94 99 101 102 105 111 112 115 114 116 119 118 119 118 116 115 113 110 103 96 93 86 79 74 71 67 63 61 60 57
59 61 62 64 67 70 73 76 79 82 86 90 95 99 101 103 104 109 112 115 116 117 120 122 118 115 117 117 113 108 102 96 89 86 82 74 69 66 65 62 59 57 54
60 63 65 68 71 74 77 80 83 86 91 96 99 102 103 105 110 114 114 115 117 121 122 120 117 114 114 115 109 102 97 89 84 82 78 71 67 63 62 61 57 55 52
62 66 69 73 76 78 80 83 87 91 95 98 102 103 107 110 113 115 116 118 120 125 124 121 118 116 111 107 97 92 89 84 80 75 72 69 65 62 59 58 55 53 51
67 71 74 76 78 81 85 89 92 94 99 102 104 108 110 113 114 114 115 120 125 124 121 118 116 110 105 97 86 83 80 78 75 73 70 66 62 59 57 54 51 49 48

GFSMW_250_spd_069.txt.gz
Wind_Speed
29 32 32 31 33 29 36 38 37 41 43 48 50 48 45 43 54 52 55 58 62 66 68 67 68 68 70 71 72 72 70 66 67 72 75 75 76 78 79 78 77 80 83
20 33 33 36 33 34 33 37 36 36 37 42 41 44 42 45 46 53 59 64 70 69 71 69 66 64 68 69 67 65 65 67 71 75 76 78 78 78 77 80 82 84 87
28 29 29 35 34 35 34 33 35 35 35 34 39 41 48 54 55 59 66 67 66 62 64 64 63 68 66 66 64 66 69 72 75 78 79 79 75 75 80 84 87 88 93
33 33 28 26 28 31 31 32 34 36 39 43 48 50 56 57 60 62 62 58 59 60 60 63 65 65 64 63 66 70 73 77 80 79 77 77 81 83 82 84 90 92 96
36 34 33 33 34 39 40 36 42 43 45 50 50 51 51 55 47 47 53 58 61 59 62 64 63 63 64 66 71 75 78 78 78 76 79 83 86 86 88 90 94 97 103
42 44 40 39 41 43 45 47 46 42 44 44 45 46 44 49 53 54 57 57 56 60 64 63 63 65 68 73 74 76 77 75 76 80 85 86 86 91 94 96 100 103 104
32 41 47 44 45 43 44 45 46 42 37 40 44 46 50 49 52 52 54 55 60 63 62 64 67 70 73 75 76 74 75 76 81 84 84 88 93 96 97 101 105 104 107
23 25 26 34 39 38 42 42 44 42 43 46 49 51 51 49 53 53 53 57 60 62 65 67 70 74 76 76 76 75 78 82 84 85 89 94 97 100 102 108 109 108 111
30 32 33 34 36 39 44 46 48 48 49 51 53 48 48 52 54 55 54 56 60 65 66 69 73 76 78 77 76 80 84 86 87 90 95 100 101 105 109 114 114 115 113
27 30 34 37 40 42 44 44 46 47 46 43 44 47 51 55 55 53 53 58 63 67 69 71 75 75 76 77 81 84 86 89 92 97 101 105 106 110 115 117 117 118 120
35 35 37 40 43 44 44 44 44 41 41 42 45 48 51 51 48 53 57 61 66 69 72 73 74 75 77 81 84 87 90 94 98 102 106 108 110 116 117 119 119 121 121
40 41 42 42 41 39 37 40 41 39 42 47 48 48 50 49 51 54 59 63 69 72 73 74 77 80 84 86 89 91 95 98 102 107 108 112 116 117 120 120 122 122 120
36 37 39 39 39 40 39 41 42 38 42 44 48 52 52 51 55 57 64 67 69 71 75 78 81 85 88 91 92 95 99 102 107 109 112 117 118 121 121 122 123 121 117
40 42 43 38 38 39 40 42 36 38 42 49 53 53 54 56 61 62 68 67 72 74 77 81 85 88 91 92 94 98 101 107 109 112 117 119 121 121 122 123 122 118 112
39 38 39 38 39 38 37 34 37 43 48 52 53 55 57 59 61 63 72 73 76 81 84 85 87 91 92 93 97 101 106 109 111 117 119 121 121 124 124 122 118 114 107
36 35 36 37 38 36 33 37 43 49 51 53 55 58 60 63 65 69 75 79 82 84 86 88 90 91 94 97 101 105 109 111 116 118 122 121 124 124 122 118 114 107 99
36 35 35 36 38 38 41 43 47 50 53 56 58 61 64 67 71 74 77 79 84 87 89 89 91 94 98 101 105 109 112 114 118 121 122 124 124 123 119 116 109 101 95
37 37 37 39 42 44 47 49 51 54 57 60 62 65 68 71 73 77 80 82 85 86 88 91 94 98 103 106 109 114 117 117 120 122 124 124 123 121 116 110 103 97 92
41 41 40 42 45 47 50 52 55 58 60 62 64 67 71 74 76 78 81 83 86 88 92 96 99 102 106 110 115 119 118 118 121 123 125 124 120 116 111 103 97 94 87
48 48 48 48 49 51 54 56 57 60 62 65 68 71 73 75 78 81 83 87 89 93 95 97 102 105 108 114 119 120 119 121 121 120 122 123 118 111 105 97 92 88 82
51 54 55 56 56 57 58 59 60 62 65 68 71 73 75 79 81 84 87 90 92 94 96 99 104 109 115 118 120 121 122 122 119 118 117 117 113 106 99 93 87 82 78
55 55 57 59 62 62 63 65 66 68 71 73 76 78 81 84 86 88 91 92 94 97 101 104 106 113 117 118 120 124 126 124 122 119 114 110 106 100 94 89 82 78 74
58 59 59 62 66 67 69 71 73 75 77 80 81 83 86 88 90 92 94 95 99 103 105 108 111 113 115 116 118 120 122 123 120 116 110 104 99 94 88 85 77 73 70
49 57 63 65 66 68 71 74 77 79 81 83 86 88 90 91 93 95 96 100 104 106 109 113 113 112 114 116 119 117 116 113 113 110 103 98 93 87 83 81 75 70 66
45 47 50 57 65 73 76 79 81 83 86 88 89 91 93 95 98 99 102 105 106 110 112 113 114 114 115 116 115 114 110 108 104 101 98 91 88 83 78 75 73 67 62
61 61 61 64 65 69 73 78 82 86 89 91 94 96 97 97 99 100 102 105 109 110 112 115 117 119 117 113 110 108 106 103 100 94 89 86 83 78 74 70 67 63 58

GFSMW_250_spd_072.txt.gz
Wind_Speed
31 34 35 39 45 47 43 35 36 50 49 48 50 54 56 62 61 61 67 66 65 57 55 61 63 65 71 73 74 76 75 71 76 75 71 70 71 72 75 79 82 80 78
30 35 30 27 33 41 40 39 38 41 45 49 51 56 62 59 56 58 58 58 54 55 56 63 68 75 73 70 70 69 72 72 73 72 72 72 72 75 81 83 82 80 85
26 23 29 34 32 32 39 41 41 42 43 44 46 46 46 47 47 47 50 53 56 58 66 71 70 70 66 69 70 71 72 71 71 74 75 76 78 80 80 79 83 86 89
33 23 25 30 38 38 37 34 42 44 41 47 48 45 43 45 46 51 56 58 60 63 65 63 63 64 67 71 69 72 72 73 73 75 79 82 84 84 82 84 84 85 90
35 30 32 28 28 37 42 38 41 41 39 35 38 42 44 52 55 59 62 63 61 60 60 63 67 64 68 65 72 72 72 74 78 80 83 83 83 83 85 87 90 91 94
33 36 36 36 33 35 35 36 37 42 40 43 46 48 50 52 56 56 58 61 57 59 62 62 63 64 67 71 72 72 75 77 80 83 83 83 84 86 87 87 92 97 103
40 37 41 39 41 39 41 44 43 46 49 51 55 54 51 49 48 53 55 62 61 61 60 60 65 67 69 70 72 76 78 81 82 83 84 84 87 90 92 95 99 103 107
20 22 27 37 37 41 43 44 45 45 43 43 46 49 50 52 56 58 63 60 60 59 59 64 70 69 69 71 77 80 81 81 83 83 85 88 91 95 98 101 104 106 112
28 31 31 32 32 32 35 39 41 44 46 47 52 56 57 58 59 60 59 58 58 62 67 69 70 70 72 76 79 81 83 83 84 87 90 94 97 99 102 105 109 113 113
25 27 29 32 37 40 41 41 43 46 48 49 50 52 54 55 56 56 59 60 61 65 66 68 69 73 76 79 79 81 83 86 87 91 94 98 100 103 106 110 114 119 119
28 31 33 34 37 38 39 41 44 46 49 50 49 50 50 50 54 58 61 62 62 64 64 68 72 75 78 82 84 84 86 88 92 95 97 101 104 107 112 115 119 122 122
33 33 35 37 39 39 39 41 41 42 44 46 47 49 49 52 56 63 65 63 59 61 65 71 76 79 77 80 84 88 92 94 96 98 100 103 109 113 116 120 124 125 122
32 33 34 36 37 37 39 42 44 46 46 47 48 46 48 53 58 62 62 61 64 68 70 75 81 82 83 85 89 93 95 96 99 102 104 109 113 117 120 124 126 123 122
33 35 38 41 42 41 42 43 44 44 45 43 41 45 52 55 57 60 64 66 69 71 74 76 80 87 89 91 94 95 96 100 103 105 108 113 117 120 124 126 125 123 125
39 39 39 42 44 44 41 41 44 39 37 40 44 52 55 55 58 63 66 69 74 77 77 81 84 87 91 93 94 97 100 103 105 108 113 116 119 123 127 125 125 127 128
41 42 42 43 44 44 42 40 40 38 39 45 50 54 57 59 62 66 70 74 75 78 82 84 87 90 93 96 98 102 104 105 107 113 118 120 122 125 123 124 127 131 128
41 44 46 47 47 46 44 40 43 43 47 49 53 56 60 63 66 68 71 74 76 80 83 86 89 92 96 98 101 105 105 106 113 118 119 122 126 122 124 127 129 127 123
43 45 48 50 50 49 48 47 49 51 54 55 57 60 63 66 68 70 73 76 79 82 86 89 92 95 99 102 105 107 107 112 117 119 121 124 123 127 128 129 126 121 116
40 50 52 52 53 53 53 53 54 55 57 59 61 64 67 69 72 74 77 79 83 85 88 92 95 98 103 105 107 109 112 115 117 120 123 121 126 129 128 125 121 117 110
42 44 48 55 56 56 56 57 58 60 62 64 67 70 72 74 76 79 81 84 87 90 94 97 100 103 104 105 110 114 116 116 117 119 119 124 126 129 126 120 116 110 103
47 47 47 48 51 58 60 60 61 63 65 69 72 75 77 79 82 84 87 90 93 97 98 101 103 104 106 109 111 115 117 118 117 118 121 124 126 123 120 116 110 102 96
46 48 48 42 46 49 54 60 63 65 67 70 74 77 80 83 87 89 92 95 96 98 100 102 105 106 105 107 111 114 118 119 120 123 125 126 123 117 113 109 103 96 90
49 52 44 39 42 51 47 47 53 56 60 66 74 79 84 87 90 93 95 98 100 100 100 99 99 101 105 108 111 112 115 119 123 125 125 120 114 110 105 101 95 90 84
54 56 57 51 49 50 53 60 65 66 70 73 72 73 77 82 86 88 89 90 90 92 94 96 98 101 104 106 109 113 117 120 123 122 116 110 106 103 99 94 89 84 79
61 63 66 67 63 63 65 67 67 69 72 73 74 73 73 74 76 78 82 86 89 92 94 95 98 101 104 108 112 116 118 119 116 111 107 103 100 96 91 87 83 78 74
63 67 70 73 72 74 74 73 73 74 73 72 73 72 72 73 78 82 85 88 89 91 94 98 101 105 108 111 115 117 117 112 108 104 102 99 94 90 86 81 77 73 69

GFSMW_250_spd_075.txt.gz
Wind_Speed
26 28 31 38 40 42 48 52 50 47 44 44 53 49 46 50 52 55 60 63 66 66 64 67 71 77 71 69 68 69 74 80 80 80 79 79 79 81 80 78 78 79 79
31 32 34 32 38 44 47 48 40 48 46 46 54 51 54 54 52 52 59 64 68 70 68 71 74 62 62 64 68 73 77 76 79 76 79 77 77 75 75 78 83 84 87
31 34 37 36 37 42 49 49 41 39 46 50 47 51 54 53 54 58 61 65 69 70 64 61 60 61 65 70 74 75 74 74 78 79 77 78 81 81 81 81 80 84 87
29 28 32 38 33 41 49 54 47 46 43 41 44 45 53 54 57 56 58 58 58 58 57 60 62 68 69 73 74 75 76 76 76 73 78 83 83 83 84 88 88 85 83
29 28 28 35 31 34 40 46 50 50 51 53 54 54 52 53 55 58 60 59 59 64 64 64 67 69 68 68 72 76 75 72 75 78 82 82 81 85 87 87 90 91 92
34 34 36 32 28 30 29 34 42 41 45 47 48 52 53 52 48 51 54 59 62 68 69 69 68 66 71 74 75 73 72 75 80 85 84 83 85 87 87 87 88 90 92
31 37 38 37 39 37 37 37 38 39 40 40 41 43 48 52 56 57 62 65 63 62 64 67 70 72 76 74 70 71 74 80 85 83 86 87 89 90 92 92 93 92 95
38 41 38 40 41 42 43 44 43 44 45 49 51 51 53 57 60 60 57 59 61 64 68 71 72 72 71 71 73 76 81 83 82 85 87 89 92 92 94 94 96 95 99
23 23 25 28 30 34 38 46 51 52 53 51 51 51 50 52 55 57 61 64 66 69 68 69 69 67 69 76 79 80 78 81 85 87 88 90 94 94 97 99 100 102 103
23 28 33 36 38 39 39 40 41 42 43 46 49 53 54 56 60 62 61 63 65 66 68 68 69 70 73 75 76 78 81 86 88 87 89 92 96 99 102 103 105 109 112
28 29 31 33 35 37 38 40 42 43 45 47 50 53 55 58 61 61 59 59 62 66 70 72 70 70 73 74 75 82 85 88 91 94 95 98 102 104 106 107 110 115 118
28 33 37 37 38 40 41 43 45 45 47 48 50 50 52 55 57 57 58 60 65 69 74 74 70 70 72 77 79 84 87 90 93 96 99 102 104 105 108 113 117 119 121
32 31 31 32 35 37 37 38 40 41 42 44 50 52 55 58 58 58 60 62 64 68 71 70 75 75 79 83 85 88 90 93 96 100 103 105 107 110 114 118 119 122 127
37 37 36 38 40 39 40 40 41 41 43 46 51 54 56 57 57 57 60 61 62 65 69 71 77 81 83 86 91 93 94 96 99 102 105 108 112 115 119 120 123 129 128
37 39 40 40 41 43 43 43 44 44 45 44 48 49 50 49 51 54 57 60 64 68 71 75 79 83 88 89 91 93 96 99 101 105 109 112 114 117 119 124 129 130 128
25 31 38 40 42 43 45 46 46 46 47 46 46 47 51 52 50 56 60 65 68 72 76 80 83 85 87 90 93 96 98 102 105 109 113 114 117 120 124 125 123 123 125
30 28 28 34 42 45 47 50 50 51 51 49 47 51 54 57 59 61 64 67 71 74 78 81 84 87 90 93 96 99 102 105 110 113 114 117 122 126 125 123 122 120 122
37 36 35 35 36 36 42 51 53 53 55 55 56 57 59 62 65 67 69 72 76 80 83 86 88 91 94 97 101 104 106 108 111 114 119 121 118 119 122 119 121 124 128
43 41 40 42 43 42 41 43 45 51 55 57 58 61 63 66 70 72 74 77 80 83 86 89 92 95 99 100 103 106 110 113 114 115 112 114 116 117 118 121 124 124 128
49 50 48 46 47 47 46 46 48 46 50 56 58 60 62 65 66 68 71 76 80 83 87 91 94 99 104 107 108 110 111 107 105 109 111 111 112 115 120 122 125 125 125
53 55 55 55 53 51 51 44 47 45 45 46 48 54 57 61 66 71 72 76 80 84 88 93 95 97 99 102 102 103 103 104 104 106 107 111 114 117 120 124 126 122 115
55 58 58 58 59 58 58 56 54 51 50 55 59 62 68 72 75 76 81 84 86 87 89 92 92 91 92 92 95 98 99 102 104 107 111 114 118 121 123 122 118 113 111
61 60 60 60 61 62 62 61 62 63 64 63 62 67 71 72 75 78 82 83 83 85 86 84 83 87 91 92 94 98 101 105 108 112 115 118 120 120 116 112 111 106 102
66 63 62 62 64 62 63 65 68 68 69 69 71 70 72 71 72 73 75 76 77 77 77 80 85 89 92 94 97 101 105 108 112 116 119 118 115 111 108 105 101 100 96
68 67 67 64 65 66 68 70 73 73 75 79 79 77 77 70 72 74 74 74 77 80 82 85 88 91 95 98 101 104 106 111 115 114 112 109 107 105 103 101 97 91 88
70 71 68 66 68 71 73 75 78 79 81 83 83 81 77 77 81 81 82 82 83 85 88 91 94 97 99 101 104 108 112 113 111 107 105 103 103 101 99 96 93 89 83

GFSMW_250_spd_078.txt.gz
Wind_Speed
36 33 37 39 38 37 40 43 47 48 51 57 56 60 51 50 47 49 48 47 50 52 54 59 59 64 67 68 75 77 80 81 75 73 73 76 81 82 82 84 83 83 81
33 31 35 34 36 37 39 44 48 44 42 48 54 53 46 46 40 40 44 50 57 57 59 58 62 67 71 77 79 78 75 71 74 75 79 80 78 80 85 83 79 81 85
29 30 35 36 40 40 41 43 53 51 44 46 50 52 46 48 51 54 56 56 59 61 64 65 67 68 68 71 69 66 70 72 74 77 79 78 82 84 81 78 79 83 85
32 33 33 32 34 32 37 43 48 54 55 46 39 46 51 57 59 57 58 61 60 63 66 71 70 67 63 66 67 72 74 78 77 76 79 83 85 81 78 84 86 89 86
28 28 35 34 39 38 39 41 40 50 53 47 47 49 47 49 54 58 58 63 65 64 62 63 61 63 66 69 74 76 77 78 77 80 82 78 78 81 83 87 92 90 93
33 31 28 27 33 40 37 34 37 43 49 52 51 50 54 56 56 58 60 62 64 65 63 66 68 67 69 74 76 76 78 80 80 80 79 80 84 88 91 91 89 91 94
31 31 35 39 38 34 38 35 34 32 41 48 51 54 52 55 55 54 55 58 59 61 64 67 71 72 71 75 77 78 81 79 79 78 83 86 91 93 90 88 91 94 96
32 33 35 36 40 46 43 40 41 42 42 42 45 47 49 50 51 54 58 59 61 66 70 71 68 69 74 78 76 77 78 79 80 82 82 87 89 89 92 95 96 95 97
22 27 40 35 34 39 44 44 44 43 48 48 51 50 52 55 56 59 65 65 63 64 66 69 71 73 76 79 78 78 78 80 81 82 86 88 89 92 95 98 99 100 100
25 25 25 27 28 34 34 36 37 40 42 44 49 52 55 59 57 60 63 65 66 68 70 71 74 77 77 78 76 79 80 81 83 82 82 86 91 94 98 101 103 105 105
26 27 28 29 31 31 37 40 42 43 44 46 49 53 53 54 58 60 62 63 67 68 70 70 71 72 78 78 79 79 80 77 78 82 87 91 95 101 103 104 107 109 111
30 32 32 34 37 37 40 43 44 43 44 47 51 54 51 52 58 59 61 63 62 65 68 70 73 76 78 76 77 77 80 82 87 91 94 98 100 102 104 107 110 113 117
28 34 37 36 34 34 33 34 34 36 34 36 41 46 41 51 55 59 60 61 63 65 67 68 69 69 71 73 75 80 83 87 91 97 100 101 103 106 109 112 115 118 121
22 23 28 35 40 41 41 39 37 36 39 37 42 41 43 50 53 61 61 62 60 60 60 60 63 68 71 74 77 80 86 92 95 98 101 104 107 110 113 116 119 122 125
23 25 24 25 29 33 38 42 42 43 40 44 40 43 48 54 56 57 56 54 52 52 58 62 66 70 73 77 83 87 90 94 97 101 103 107 110 113 116 118 120 123 124
24 26 26 25 27 29 30 31 34 38 42 41 46 51 56 58 61 61 60 60 61 62 64 68 70 73 77 80 86 90 93 96 99 103 107 112 115 115 117 117 117 116 116
32 30 31 31 28 33 33 34 35 35 39 40 44 51 55 58 58 60 62 63 66 69 72 75 78 80 83 86 90 94 97 99 102 103 106 109 112 112 110 108 108 111 114
35 38 39 41 46 39 38 37 38 40 42 45 46 47 48 50 54 57 61 64 67 69 72 75 77 79 82 86 91 96 98 99 102 106 107 106 104 105 107 106 107 109 113
43 43 43 44 47 49 50 49 49 48 46 44 44 44 46 47 49 51 56 60 64 68 73 78 83 86 88 91 96 100 103 105 102 103 98 97 101 104 107 107 109 111 114
45 48 48 50 54 55 55 53 53 54 53 53 50 49 48 50 52 54 56 62 67 72 76 80 82 84 86 88 87 88 88 88 89 91 95 99 101 104 107 110 111 112 115
46 50 52 54 58 59 61 61 58 58 57 57 56 56 58 61 62 63 68 72 70 72 75 79 77 78 80 77 81 84 86 86 90 93 97 100 103 106 108 111 114 114 112
51 52 53 58 60 63 65 66 67 65 62 61 62 63 64 66 70 72 72 74 74 79 79 79 79 80 81 79 82 86 87 90 93 96 98 101 104 106 109 112 113 110 108
55 56 56 59 63 64 65 68 70 70 66 65 66 67 70 74 76 77 77 77 80 81 82 84 89 87 85 83 85 88 92 95 97 98 101 102 104 107 109 111 109 109 107
59 59 59 61 63 64 66 68 68 68 68 68 69 71 74 78 80 81 81 83 85 87 91 92 96 93 93 92 92 94 97 99 101 103 104 106 109 109 109 108 109 107 104
62 63 63 64 65 67 67 69 71 71 72 73 74 78 80 82 85 84 85 88 90 96 98 99 98 95 95 97 99 102 104 104 105 106 107 108 110 110 109 108 105 103 100
65 67 67 67 67 70 71 72 74 74 75 76 78 82 84 86 88 90 92 94 97 100 101 102 99 98 101 104 105 107 109 108 108 108 110 110 108 108 105 101 99 98 96

GFSMW_250_spd_084.txt.gz
Wind_Speed
57 52 54 66 65 68 73 76 74 78 82 79 73 70 70 69 58 57 60 64 62 65 67 68 66 68 69 69 68 71 73 74 71 71 68 69 75 75 74 77 79 77 80
56 61 56 61 68 69 61 73 69 74 72 77 76 70 63 67 71 70 66 67 67 67 66 65 69 70 72 74 73 74 74 70 69 68 69 73 79 77 75 77 80 80 84
41 49 59 64 68 72 64 61 62 70 72 71 66 65 64 63 67 70 67 67 65 68 68 73 70 72 73 71 69 68 70 68 68 71 73 73 74 78 79 82 84 86 87
28 32 33 48 73 70 67 61 62 64 69 67 64 66 67 63 64 68 67 62 63 68 66 60 61 61 63 63 63 66 68 72 72 74 76 77 78 79 82 84 84 87 87
23 28 33 39 59 62 62 60 61 64 68 70 68 68 63 63 61 61 58 55 52 52 53 58 60 64 65 64 69 72 70 71 69 70 76 80 86 82 85 87 86 88 90
20 24 30 38 49 56 56 58 57 53 50 51 52 53 55 54 56 60 59 56 57 56 58 62 63 64 67 68 71 72 74 74 76 79 80 82 84 85 84 88 90 89 88
20 22 31 33 40 45 50 49 47 46 47 49 52 55 57 58 55 57 61 60 58 61 66 71 74 77 75 78 78 76 75 75 77 80 83 85 89 87 84 83 82 86 87
13 20 26 29 36 40 41 39 39 41 42 45 45 48 50 50 53 52 50 51 52 56 62 65 69 73 73 72 75 76 76 76 78 80 83 83 86 89 85 87 87 88 89
16 12 15 26 28 27 34 40 44 42 39 41 47 49 49 50 53 51 51 54 58 61 62 67 73 74 74 74 74 74 75 77 78 79 79 82 85 88 87 89 91 92 89
18 18 15 16 20 25 31 35 37 39 44 47 48 49 49 50 52 56 62 62 55 58 62 65 69 72 72 70 71 71 71 73 72 77 79 81 82 83 87 90 89 91 93
10 15 17 18 20 20 24 25 30 33 35 38 44 47 48 45 45 46 49 47 48 52 55 61 68 73 74 70 68 70 71 72 77 80 82 83 83 84 87 89 93 97 100
5 6 13 17 17 19 23 26 27 32 35 38 39 40 40 39 38 38 38 41 42 45 52 66 69 71 70 69 73 72 75 79 80 82 81 83 84 87 90 95 98 101 102
9 5 5 9 13 15 18 23 29 33 37 42 41 41 42 39 36 35 37 36 37 54 69 67 71 74 73 74 79 83 83 86 85 83 83 86 88 90 92 93 95 99 101
16 14 6 6 11 13 14 18 20 20 21 26 29 30 30 30 27 23 26 33 58 62 71 78 80 81 80 83 87 91 88 86 80 76 75 77 81 85 87 89 91 93 96
16 18 18 13 11 11 12 17 20 17 20 20 22 24 26 23 25 25 44 50 61 64 66 73 77 78 80 82 84 72 69 69 72 75 78 80 81 84 86 88 89 91 92
18 16 21 25 29 24 17 16 16 20 23 21 26 30 36 40 44 49 48 55 65 73 75 76 73 73 72 71 71 69 68 69 73 75 78 77 83 84 87 87 87 87 87
24 21 22 27 31 34 30 27 27 28 24 27 27 32 36 36 37 39 42 45 50 53 57 60 62 63 64 66 68 71 71 73 73 74 75 80 83 83 83 84 87 88 90
31 30 26 28 31 34 37 37 34 33 32 32 39 44 45 48 50 52 51 53 55 56 57 58 59 61 63 66 70 73 76 78 79 79 79 83 85 84 89 92 95 96 98
34 36 34 34 35 36 38 40 41 40 41 43 46 49 51 52 54 55 56 58 58 60 61 62 62 65 66 69 73 77 79 80 80 81 84 87 88 91 96 99 99 100 102
37 40 40 42 42 42 44 44 46 48 48 50 51 54 56 57 58 58 59 61 63 65 66 67 69 69 74 76 77 77 80 80 83 89 92 92 94 98 104 104 102 100 101
42 44 46 47 48 48 48 49 52 54 54 55 57 60 62 65 64 64 64 69 69 71 70 72 73 75 77 78 78 80 81 83 88 93 95 95 100 104 108 109 107 105 103
49 50 50 52 53 53 53 55 57 58 59 61 63 65 68 69 71 69 71 75 75 77 77 78 78 78 80 79 81 83 85 88 92 96 98 102 106 110 112 113 112 109 109
52 54 56 56 57 58 58 60 61 62 64 65 66 70 75 75 74 75 76 80 82 84 84 84 82 82 82 82 86 89 90 95 100 103 104 107 111 115 116 116 114 113 110
55 57 59 60 60 61 62 63 64 66 67 68 71 76 79 76 78 80 81 86 88 90 90 88 86 85 87 88 90 94 98 102 105 107 111 115 117 118 117 116 114 112 111
57 60 62 62 63 64 66 65 67 69 70 74 77 79 81 80 82 83 86 91 93 96 95 91 90 91 93 94 97 101 105 109 112 115 118 120 120 120 119 116 114 113 111
62 64 65 65 65 65 66 69 69 72 76 79 82 82 85 81 87 87 92 97 98 103 99 95 96 99 99 101 106 111 114 115 117 119 121 122 122 121 118 116 115 113 111

GFSMW_250_spd_087.txt.gz
Wind_Speed
54 67 76 66 69 63 58 59 63 58 62 61 60 57 54 54 53 51 56 58 64 67 69 66 63 60 62 61 63 66 67 67 68 63 66 67 72 72 76 73 73 79 79
55 65 74 78 75 68 64 57 68 64 61 67 71 67 68 64 63 59 63 66 69 71 67 69 71 66 62 60 64 61 57 61 65 70 71 75 74 73 71 72 75 77 80
45 54 63 74 73 72 78 66 71 67 65 66 70 72 74 74 74 73 70 70 71 66 66 64 63 66 67 58 60 62 64 69 68 67 67 69 69 71 74 76 78 78 82
41 44 46 64 65 64 66 76 72 71 75 73 72 77 77 75 77 76 75 74 71 70 70 71 62 68 64 57 61 64 60 60 62 64 66 70 73 77 78 81 81 82 84
32 41 42 55 59 61 63 59 72 76 72 80 75 76 71 72 72 73 71 71 69 71 74 66 63 60 64 62 63 61 62 66 66 69 75 78 82 80 81 82 88 87 85
18 26 30 35 42 53 58 58 66 69 73 70 69 67 70 69 69 75 74 70 72 65 62 60 56 59 63 61 65 66 70 71 73 75 74 73 76 80 82 84 87 84 85
14 19 23 30 36 39 39 44 52 64 66 68 65 71 65 69 66 65 67 63 57 56 56 54 58 61 62 65 67 70 71 72 73 74 75 76 76 76 78 79 81 83 87
11 14 16 24 28 31 32 37 39 42 51 58 56 56 59 59 60 59 53 52 52 54 57 61 60 61 65 70 73 71 71 71 69 68 70 70 71 72 79 81 83 84 88
11 13 13 13 21 30 32 33 36 39 41 44 49 47 49 53 57 55 54 55 53 52 55 58 63 68 75 78 74 72 69 68 66 65 68 70 74 81 83 87 90 93 94
9 10 12 14 16 18 29 34 35 38 43 47 48 48 50 50 51 52 53 52 52 54 56 60 61 61 65 68 70 66 64 67 71 71 75 80 84 89 90 95 93 92 87
14 8 6 12 19 21 20 22 26 31 36 40 43 43 43 44 45 48 50 51 50 48 49 49 52 58 64 48 76 71 76 81 81 84 89 90 90 93 95 91 84 79 81
14 13 8 5 9 14 19 21 25 27 30 31 32 31 34 37 38 40 42 42 42 35 32 41 39 38 48 70 75 81 82 84 90 90 89 90 89 86 81 75 76 80 83
11 15 16 11 7 5 6 9 13 19 24 28 31 31 32 35 40 40 41 39 34 16 34 47 37 56 69 73 77 81 86 90 88 88 88 81 81 76 76 79 81 82 83
11 12 17 17 16 11 10 10 13 16 19 21 25 26 29 30 29 27 23 16 21 30 41 46 50 61 71 76 82 85 90 93 93 86 85 80 78 79 82 82 81 83 84
17 14 13 18 21 19 17 17 17 15 17 18 20 22 24 23 26 29 29 27 29 38 47 52 61 72 80 81 83 88 91 91 86 83 78 79 82 84 84 85 86 88 87
25 21 14 19 20 22 22 21 23 23 22 22 23 21 23 19 25 26 24 24 28 40 51 63 70 75 79 82 80 78 77 76 76 78 79 77 78 82 84 85 87 86 87
30 28 24 22 24 24 24 24 25 26 27 28 30 28 27 29 35 35 36 38 41 42 45 48 51 53 56 61 65 68 70 73 72 75 77 80 81 82 83 85 83 87 88
33 32 33 31 29 28 27 28 30 32 34 35 33 35 37 40 41 43 45 48 50 54 55 54 55 58 61 64 66 69 71 74 75 78 80 82 83 82 83 85 87 88 91
37 37 38 36 35 33 33 36 37 37 39 39 40 41 46 46 48 50 52 54 55 58 61 62 64 64 63 69 72 76 77 77 79 81 83 84 85 86 85 87 90 94 98
44 44 42 41 40 37 39 39 40 42 44 45 47 49 50 51 53 56 57 59 61 64 65 64 66 71 72 73 77 81 81 83 84 84 86 88 89 89 90 90 93 97 102
44 44 46 44 42 43 45 47 47 48 48 50 52 54 54 55 57 59 60 64 67 68 70 70 71 77 78 80 81 84 88 91 89 88 89 90 90 92 92 94 99 103 106
45 41 45 46 47 47 50 52 53 52 53 54 56 58 59 60 61 62 64 68 70 71 74 75 76 81 83 86 89 92 95 97 95 92 93 93 94 94 97 103 107 111 113
49 51 51 49 49 52 55 56 55 57 58 58 60 61 62 64 64 66 69 72 75 78 79 79 81 86 88 92 95 100 102 102 96 97 96 97 98 102 106 109 112 116 120
53 53 54 54 55 55 55 55 57 60 62 64 64 65 67 68 70 72 76 77 82 81 82 83 88 91 95 97 102 107 107 101 101 101 101 102 106 109 109 114 117 120 123
53 56 57 58 57 57 57 59 62 62 64 66 67 69 71 73 76 78 79 85 86 85 86 89 95 97 99 103 110 110 103 103 104 105 106 108 109 113 116 120 123 124 125
59 60 61 59 59 60 61 63 67 69 69 70 73 75 76 80 82 83 89 89 89 90 93 98 101 103 106 114 113 106 107 108 108 110 110 112 117 120 122 125 126 125 124

GFSMW_250_spd_090.txt.gz
Wind_Speed
33 56 59 58 52 57 51 48 42 38 43 40 48 48 55 56 55 53 43 39 46 49 49 49 51 58 63 68 69 66 61 60 61 57 60 57 55 59 62 66 68 66 66
21 49 65 64 61 62 59 57 54 45 54 44 41 57 57 58 57 54 56 57 58 55 55 55 58 62 66 63 63 62 62 56 59 53 54 58 61 63 65 66 65 65 69
22 30 55 70 70 68 63 64 61 54 54 58 52 47 55 62 61 62 56 60 63 67 67 69 75 69 68 72 59 62 58 59 54 58 57 58 62 60 63 67 69 75 73
22 22 30 61 76 74 69 63 65 62 53 55 64 62 60 60 64 63 67 69 70 74 74 72 72 71 62 59 60 61 59 60 57 61 59 62 63 68 71 73 73 73 70
24 17 21 32 49 67 74 67 63 67 65 68 59 72 71 69 67 69 72 76 74 68 65 65 65 61 57 55 58 60 59 59 61 63 63 61 65 67 66 68 65 66 71
24 16 13 25 35 45 56 68 67 62 64 65 63 68 72 74 72 73 73 73 73 71 65 67 63 61 62 61 60 63 66 65 64 59 61 65 63 63 62 64 64 66 70
17 15 14 13 24 34 45 55 58 64 70 65 67 64 70 70 74 72 70 66 58 60 58 57 57 55 58 58 60 61 62 62 64 65 63 63 62 61 63 67 71 78 78
17 17 14 14 18 26 34 37 39 53 53 53 55 55 54 61 67 66 56 56 61 63 66 66 67 64 62 57 57 58 60 65 65 62 61 57 61 64 71 77 82 86 87
17 11 15 17 16 20 27 33 36 40 40 48 45 44 45 47 45 52 54 52 60 60 57 59 61 56 54 52 53 54 57 66 67 61 55 73 74 76 81 85 85 86 87
14 14 11 15 18 20 21 26 31 36 41 46 49 45 45 45 47 51 52 51 52 58 55 51 51 49 47 46 51 59 58 57 60 58 71 83 87 87 86 87 89 94 91
13 10 9 10 14 19 19 19 19 23 32 36 38 38 38 40 42 44 44 44 44 43 43 45 44 41 37 47 45 49 53 53 65 67 77 88 88 84 89 91 92 87 85
13 11 10 9 11 16 16 15 22 24 24 24 28 30 30 31 34 36 37 39 41 44 45 43 40 39 42 43 41 47 47 50 65 75 83 85 87 92 90 90 88 84 82
16 11 11 14 13 11 11 10 9 9 11 14 19 22 24 26 31 34 36 37 36 36 33 36 36 34 35 42 41 44 52 61 65 75 82 88 88 86 86 88 83 83 83
23 19 14 13 15 15 14 12 13 16 15 12 14 14 16 18 19 20 20 20 25 28 26 27 31 44 46 47 50 55 59 67 74 82 82 80 75 74 77 81 84 86 86
30 26 21 17 17 14 16 17 18 18 17 16 19 20 22 25 24 21 18 20 23 22 27 32 41 43 48 56 59 59 56 59 64 67 63 70 72 75 75 74 77 81 84
36 32 28 25 23 21 17 17 18 17 18 20 21 23 24 26 29 31 30 31 35 34 33 37 41 45 49 51 54 57 60 63 65 67 70 73 77 79 82 84 85 85 86
39 38 36 32 30 27 25 25 24 24 23 23 23 25 27 29 29 32 34 40 40 43 44 47 49 52 54 56 60 61 66 70 71 72 75 77 78 81 84 88 90 91 90
40 42 39 37 34 34 32 32 33 31 29 29 30 32 34 35 36 36 39 43 46 48 50 52 54 56 59 61 62 65 69 72 77 75 79 82 84 85 90 93 94 95 93
37 41 37 36 37 37 36 37 37 37 37 35 33 36 38 40 42 44 46 48 51 53 54 57 59 62 65 67 69 74 73 74 78 80 84 87 90 92 95 98 98 97 95
41 42 42 39 40 42 43 44 43 44 42 39 39 42 44 46 46 48 50 53 54 55 58 61 63 65 68 70 74 77 74 77 80 83 88 91 93 97 100 103 103 101 100
54 43 44 46 47 47 48 49 46 46 44 43 45 47 49 50 51 53 55 58 60 61 63 65 68 71 74 74 80 78 79 81 83 88 92 95 99 103 105 108 108 107 105
65 55 44 49 49 48 48 51 50 46 45 46 49 50 51 53 55 57 60 63 65 67 70 71 74 78 79 81 86 86 85 86 90 94 98 101 105 109 111 112 112 110 106
66 65 54 49 54 58 56 54 46 50 49 49 51 52 53 55 58 62 65 68 70 74 76 78 80 83 82 88 93 92 91 93 96 100 104 108 112 113 115 116 114 110 108
65 67 66 59 60 59 56 50 50 53 52 54 55 58 58 61 65 70 72 74 76 79 82 83 85 87 90 94 99 97 97 100 104 108 112 115 117 120 120 117 114 112 113
66 66 67 69 67 62 55 53 55 56 59 60 62 63 65 68 74 76 81 83 83 85 88 88 89 94 98 100 101 101 105 108 111 116 118 120 124 123 119 117 116 117 119
67 68 69 68 67 63 59 58 60 64 66 67 68 70 72 76 81 83 89 89 88 89 90 91 96 99 102 105 106 109 112 116 120 122 125 125 125 122 121 120 120 121 123

GFSMW_250_spd_093.txt.gz
Wind_Speed
25 19 44 42 40 37 44 44 31 30 26 26 32 37 39 42 45 47 46 54 56 51 53 56 49 46 40 53 54 58 62 64 70 63 63 56 49 47 47 51 53 55 58
31 16 29 50 44 45 38 49 36 37 29 32 29 30 36 43 46 51 50 53 53 53 48 51 55 51 54 51 55 60 67 71 68 64 52 49 51 51 53 55 57 57 60
33 21 16 39 49 47 42 50 46 39 42 35 35 36 37 43 43 49 48 55 55 55 55 53 57 61 61 64 68 71 69 66 61 58 51 51 55 55 56 56 56 59 62
34 27 17 17 40 40 47 47 53 48 46 44 41 43 47 46 49 54 55 54 52 52 55 60 66 68 69 70 69 66 61 56 58 55 54 56 57 55 56 55 59 64 62
33 28 19 14 25 40 44 53 54 58 55 51 52 47 56 55 49 54 55 60 65 68 69 71 69 72 74 68 66 54 58 58 56 53 52 53 56 57 59 61 61 59 57
30 28 18 17 15 32 37 35 46 49 53 50 59 61 53 55 64 65 61 65 65 67 69 71 75 73 65 56 58 59 56 56 52 51 55 58 57 57 61 62 60 55 62
26 26 23 17 13 17 23 34 42 46 50 56 56 61 59 58 57 65 72 73 76 77 80 79 64 59 55 55 59 59 55 50 50 54 58 57 57 57 57 59 56 65 70
21 23 21 17 13 11 17 22 31 34 34 35 45 58 52 55 55 55 63 64 62 67 66 67 60 57 54 52 55 52 52 51 48 52 52 48 46 45 51 52 66 74 74
18 21 20 18 14 13 13 19 23 26 27 28 31 42 43 47 50 55 50 52 54 56 52 51 52 51 52 55 49 47 48 44 52 55 60 61 59 59 59 64 74 72 73
18 19 18 17 16 12 13 13 18 26 28 28 28 31 33 37 40 42 44 46 46 47 49 50 53 52 48 44 43 43 42 43 44 47 54 55 58 65 71 71 72 78 77
21 19 17 14 11 11 9 13 15 17 23 27 30 32 32 34 39 40 43 45 46 48 51 53 51 48 44 45 43 43 45 45 50 48 50 47 62 62 68 72 74 78 74
26 21 19 16 15 11 5 8 12 16 19 20 23 24 28 32 34 33 35 39 41 42 43 44 45 45 43 43 40 43 45 47 50 48 47 51 61 63 66 75 73 71 72
32 25 21 18 13 11 8 7 5 4 6 8 14 16 19 22 25 29 32 34 35 37 33 27 27 28 27 33 38 41 43 48 51 51 59 55 60 65 65 69 74 75 78
34 32 26 21 18 13 10 10 10 9 10 10 10 11 10 11 13 14 16 18 18 19 20 20 24 28 35 38 39 42 45 43 45 47 52 57 61 69 73 77 78 81 83
38 34 34 27 25 18 14 12 13 13 13 14 15 17 18 18 19 19 21 22 23 25 27 27 32 34 34 37 41 46 50 53 55 57 60 63 65 70 75 78 81 85 89
39 38 39 38 30 27 24 17 15 16 17 17 16 16 18 19 20 21 24 26 30 33 35 38 43 43 46 49 51 53 56 58 59 61 65 66 65 74 79 79 79 83 88
45 43 42 41 36 35 32 27 22 22 24 25 24 22 22 23 23 24 27 28 30 33 36 40 44 47 50 53 55 59 59 62 65 66 67 67 73 77 80 85 89 91 91
51 51 45 44 41 39 36 36 31 30 32 30 31 32 31 30 29 30 32 33 36 39 40 43 47 50 51 55 59 62 64 66 68 70 72 77 77 81 84 84 87 90 94
56 56 51 46 45 42 41 39 41 39 38 37 35 35 36 37 35 34 36 39 43 44 46 48 51 55 57 61 65 68 70 72 75 77 79 80 80 86 90 91 91 93 96
60 60 56 51 48 44 45 41 41 44 43 43 43 43 45 43 41 39 41 44 47 49 50 52 55 58 61 66 70 73 77 79 81 82 83 83 87 91 94 97 96 99 100
59 63 62 54 55 43 48 48 45 47 47 49 50 50 50 49 47 45 46 49 51 52 54 56 59 63 66 71 76 80 82 83 85 85 86 89 93 96 102 101 102 104 108
60 64 67 60 58 55 48 48 49 50 52 52 56 55 50 51 51 51 51 53 56 58 61 64 68 71 75 78 84 86 87 88 89 89 92 95 98 104 107 107 108 112 116
64 63 67 68 62 63 68 70 62 59 60 62 61 56 55 57 57 57 57 60 63 65 68 73 75 78 83 85 91 92 90 92 92 94 98 102 107 110 112 113 117 121 123
66 68 71 74 70 63 69 71 71 69 66 66 63 59 59 62 62 64 64 67 71 73 79 80 83 87 90 92 97 101 98 96 98 101 106 110 114 117 120 123 126 127 129
69 74 76 76 73 69 66 70 72 73 74 74 66 66 68 68 68 68 69 74 77 81 86 88 90 94 95 100 105 107 99 100 104 109 114 118 122 125 128 132 132 134 137
72 71 71 73 73 70 67 71 72 72 71 73 73 74 73 73 74 74 78 81 86 89 92 95 97 99 103 106 112 106 104 107 112 117 121 126 129 133 136 136 138 141 139

GFSMW_250_spd_096.txt.gz
Wind_Speed
25 25 24 20 39 34 39 35 32 35 31 27 26 32 39 42 42 42 42 41 39 42 46 46 43 52 50 50 54 55 44 52 49 59 69 66 71 67 57 54 54 52 52
23 25 24 20 25 43 31 43 35 33 37 31 30 29 35 40 39 41 44 49 52 49 49 52 53 54 56 56 54 53 55 54 59 68 67 70 68 60 51 52 53 56 55
23 26 24 21 16 39 43 43 44 35 36 33 38 38 39 43 44 48 46 49 51 50 51 51 53 55 52 60 55 56 58 57 67 73 73 70 61 54 55 56 57 58 59
21 27 24 22 14 25 48 46 50 45 36 36 38 40 39 42 42 48 49 52 56 57 53 58 58 61 64 61 64 66 68 70 76 77 67 56 54 57 57 58 60 58 63
20 27 24 21 15 13 37 51 45 55 50 43 40 39 38 44 46 46 44 47 47 53 53 55 58 59 58 61 66 67 74 74 71 61 55 55 57 62 62 63 59 60 63
20 24 25 22 15 14 24 45 49 48 57 51 52 49 42 45 45 46 50 54 55 55 55 58 61 63 69 73 74 71 62 61 55 54 54 58 59 63 63 60 58 56 57
20 22 24 22 15 17 12 29 43 45 54 60 52 51 56 51 58 53 54 58 55 61 64 65 65 65 69 70 70 71 64 61 55 54 54 61 61 60 60 55 52 54 45
20 21 23 22 16 14 15 16 31 40 42 47 49 53 52 56 62 60 59 60 65 69 67 73 73 69 64 68 71 67 65 60 54 54 58 60 61 60 57 58 57 46 53
19 20 19 22 19 14 14 13 18 29 36 39 41 44 46 48 53 60 67 68 64 61 63 65 64 63 61 59 60 55 56 54 60 61 55 60 60 60 57 45 48 56 62
18 22 19 20 19 16 12 16 16 21 30 32 32 36 40 41 44 47 48 48 50 51 52 53 54 55 57 55 53 55 58 59 54 53 55 55 54 57 48 47 46 51 62
19 25 23 18 18 15 11 14 17 19 21 27 30 31 33 37 40 40 42 42 46 48 49 51 52 52 53 55 55 51 51 49 49 50 53 53 56 51 50 53 50 54 57
27 24 30 21 19 18 15 11 15 18 22 23 28 32 38 39 40 42 42 44 46 46 47 49 51 50 48 45 46 46 49 47 48 53 52 53 54 53 56 54 53 58 63
32 29 31 30 22 19 16 15 14 16 18 23 22 22 24 26 29 30 34 38 38 38 39 43 43 42 41 38 36 33 36 37 40 44 49 50 49 53 59 62 65 66 69
41 38 31 35 30 25 20 14 17 15 15 15 14 13 16 19 22 22 23 22 23 26 27 30 31 29 28 29 32 35 39 41 44 48 52 56 60 63 66 66 67 69 71
49 43 33 37 37 31 28 21 18 18 19 19 17 18 19 20 21 22 23 22 20 20 21 25 29 32 35 36 38 42 45 48 51 54 57 59 62 64 67 68 69 71 74
52 43 33 40 40 37 32 30 27 23 22 19 18 17 17 17 18 18 18 19 19 21 22 25 28 32 36 40 44 45 47 49 52 54 58 61 65 68 70 73 74 77 80
54 46 39 43 40 41 38 36 36 33 30 27 24 24 24 24 25 25 25 26 28 28 29 30 33 36 39 43 46 48 49 51 54 56 58 61 65 70 75 79 81 82 85
57 55 47 44 45 45 45 41 41 41 40 37 33 31 33 34 32 33 34 34 36 36 37 39 40 42 45 48 51 52 52 54 56 58 63 67 71 75 78 81 85 87 89
64 64 61 54 50 49 50 47 46 44 41 42 41 38 38 40 42 40 41 40 42 44 44 45 47 48 50 53 55 56 59 61 66 68 71 76 78 82 85 90 93 92 92
60 63 64 57 53 52 54 51 49 50 44 42 43 44 46 48 49 48 49 50 50 51 50 52 53 54 56 58 61 64 68 71 76 78 82 83 87 90 94 97 99 101 97
70 66 61 58 56 54 58 56 54 51 50 49 49 49 50 52 54 54 56 57 56 56 57 58 58 60 62 64 69 73 75 79 85 86 89 91 94 98 103 104 110 108 104
73 68 66 67 62 57 61 63 59 57 57 55 56 56 55 54 56 59 61 64 61 61 65 65 66 66 67 69 74 79 81 86 90 93 95 99 101 104 109 111 118 114 110
70 69 67 66 62 60 64 65 66 64 60 61 63 60 61 64 65 66 67 69 66 66 66 70 73 73 74 77 82 86 89 95 97 99 102 105 107 112 115 120 122 118 116
60 60 60 61 61 61 66 68 70 73 67 68 67 64 67 68 71 73 73 72 74 75 75 76 78 81 82 84 88 93 97 100 102 106 109 110 115 118 124 126 125 122 125
47 56 57 58 59 63 69 70 74 73 74 74 72 71 71 73 76 76 77 78 79 79 82 83 84 85 88 91 95 99 104 107 109 112 114 117 122 127 130 132 128 129 133
52 59 62 59 64 67 72 74 75 72 76 79 79 76 71 75 77 79 81 82 83 84 86 88 89 92 94 97 101 105 108 111 114 116 120 123 129 132 136 133 133 137 139

GFSMW_250_spd_102.txt.gz
Wind_Speed
26 24 26 28 18 14 11 35 42 31 29 66 68 66 65 66 65 64 63 60 53 51 53 48 42 41 44 37 34 33 35 36 34 35 36 46 50 52 47 53 57 61 61
29 26 27 27 23 18 13 34 43 38 33 32 50 65 61 59 52 53 66 62 63 55 52 46 43 37 41 42 38 41 41 42 39 43 43 49 51 51 53 55 62 66 69
29 26 25 26 27 20 14 20 42 41 41 30 41 42 40 43 39 40 38 42 58 59 54 47 46 40 37 36 40 42 45 47 45 42 49 49 53 54 59 64 66 69 74
33 27 23 26 28 21 14 16 38 45 47 38 44 44 42 39 40 37 39 42 43 51 50 44 42 41 38 38 39 41 49 52 52 53 54 57 60 63 64 66 72 74 75
37 28 25 25 26 23 17 13 32 49 50 47 40 48 40 35 46 37 36 46 47 47 48 47 46 42 41 38 43 52 59 59 58 59 59 62 67 65 71 75 74 79 83
38 30 27 24 24 25 18 13 20 48 48 50 45 46 45 43 43 45 41 39 49 50 47 49 46 44 47 48 55 61 63 62 66 66 66 67 68 71 72 77 80 80 70
38 32 28 24 23 27 19 14 14 40 46 54 52 47 46 42 45 47 45 45 49 52 51 52 49 51 55 59 62 66 66 67 67 70 71 70 75 78 78 83 80 73 71
41 34 32 26 25 25 22 16 14 23 46 53 54 51 49 49 51 47 50 45 47 53 56 54 56 58 60 62 64 66 68 69 69 70 74 77 81 83 83 76 74 75 74
42 31 31 28 26 20 25 19 14 17 39 51 52 55 51 53 53 52 52 51 51 52 53 55 56 59 61 65 68 70 71 69 70 73 77 81 86 84 77 73 75 72 72
42 38 33 35 30 17 22 24 18 13 20 47 53 56 57 56 55 56 56 55 54 55 57 58 61 64 66 69 71 73 75 74 76 80 84 87 84 77 75 76 75 77 75
43 41 37 36 36 19 18 23 21 18 15 24 52 58 61 61 61 61 60 62 62 62 63 65 66 67 66 66 68 72 74 79 84 83 83 80 75 76 78 80 73 66 59
46 42 41 40 39 31 20 20 20 22 20 18 26 48 60 66 63 62 62 64 67 68 69 71 70 71 73 74 76 79 81 80 79 77 77 77 79 80 76 71 59 55 55
45 43 45 42 39 37 26 24 20 22 24 22 20 24 37 61 62 68 67 71 71 71 72 72 73 74 76 79 79 82 81 76 74 75 77 78 78 72 64 55 58 58 58
54 52 47 42 39 41 30 28 19 21 26 25 22 19 23 29 39 54 60 67 73 75 73 76 78 79 78 72 71 72 73 73 74 76 74 67 62 58 60 61 61 63 65
54 50 44 46 43 44 38 31 25 25 25 30 30 25 20 21 23 33 44 53 59 63 67 68 67 67 66 68 68 67 65 62 60 58 57 55 55 55 59 62 66 68 70
56 53 52 46 45 44 41 33 33 27 27 28 33 33 28 25 23 24 27 30 35 38 42 46 49 50 49 51 52 51 52 52 51 51 52 54 57 60 63 67 70 73 77
61 59 56 54 53 50 46 41 35 30 35 30 31 37 36 34 31 29 29 30 32 35 37 40 41 43 45 48 49 48 48 49 52 54 57 61 64 66 68 72 74 78 80
63 66 62 56 48 48 50 45 41 34 40 35 36 32 39 40 40 41 39 39 39 39 39 39 39 42 45 49 52 54 55 55 57 59 61 64 67 70 75 77 77 82 85
68 59 54 51 50 52 47 47 45 41 43 44 44 42 40 42 50 45 45 47 50 50 49 49 48 49 52 55 57 59 61 63 65 68 70 71 73 75 79 82 85 89 92
59 59 61 59 56 52 47 50 52 52 51 50 50 50 50 47 48 55 56 53 52 52 53 57 59 58 58 61 66 68 69 70 72 76 78 80 83 85 88 91 94 96 98
61 56 60 51 48 54 55 56 58 59 53 59 54 49 51 55 54 57 60 61 61 61 60 60 62 63 65 68 72 74 76 78 79 81 84 89 90 92 95 98 99 102 106
60 58 58 57 59 58 57 57 56 59 62 57 58 58 59 63 63 61 63 67 67 66 67 68 70 72 73 75 78 79 81 84 87 88 91 94 97 100 102 102 106 108 111
65 64 65 65 66 67 67 63 61 61 61 65 69 69 65 66 63 66 65 64 66 71 75 77 78 80 81 82 84 86 88 90 92 94 97 101 103 106 109 110 112 113 117
74 74 75 76 77 78 76 72 72 74 76 79 77 76 72 70 69 67 66 71 71 70 73 77 79 82 85 86 88 90 92 94 96 99 102 105 107 108 111 115 119 122 125
87 87 85 82 79 79 80 81 79 75 74 75 72 69 70 70 69 70 72 75 76 75 75 77 78 79 83 87 90 94 97 100 102 104 106 109 112 116 118 117 118 121 123
74 75 76 77 78 78 77 72 70 69 67 65 68 72 66 62 62 62 59 62 69 70 71 74 77 79 82 86 90 93 97 100 101 104 106 108 110 113 114 115 117 120 121

GFSMW_250_spd_105.txt.gz
Wind_Speed
34 30 23 31 33 34 27 27 26 31 38 35 54 62 63 59 57 50 63 58 51 49 48 49 40 37 40 43 46 43 42 38 33 33 34 34 36 40 38 40 45 42 45
25 27 21 30 32 32 31 25 24 38 37 39 44 62 65 61 60 58 57 58 60 52 43 41 41 42 41 43 47 43 42 35 35 36 39 37 43 39 42 41 49 49 51
27 28 22 28 29 28 31 23 25 30 42 38 38 50 69 68 66 66 65 61 58 55 56 49 47 46 42 49 46 47 49 43 42 44 47 48 45 44 45 44 47 51 57
30 28 25 30 30 30 29 27 23 26 46 42 41 46 59 66 72 66 60 60 61 59 58 55 56 58 53 53 47 44 46 47 46 50 53 51 51 46 44 49 49 53 57
29 29 28 29 30 28 26 30 23 24 37 51 43 39 39 63 71 72 66 63 68 62 58 58 55 60 59 57 52 48 47 48 52 55 57 54 48 50 52 54 57 63 66
30 31 31 29 32 28 24 27 22 22 26 47 50 43 38 38 54 61 69 55 54 58 53 46 51 59 56 60 60 53 52 54 56 57 61 57 55 53 58 62 62 66 70
34 33 31 30 30 29 26 24 21 20 24 39 47 44 47 41 40 44 50 54 52 44 44 42 40 50 54 59 60 56 52 58 60 64 64 62 64 65 67 68 67 71 75
37 37 34 31 32 30 24 20 20 20 20 28 47 49 52 48 43 45 48 47 55 46 46 47 50 53 55 57 60 59 60 62 64 66 66 68 70 72 71 72 73 74 80
39 40 37 35 32 31 25 18 20 19 19 18 44 51 58 54 48 48 48 47 49 48 55 50 54 56 60 60 62 65 66 65 66 68 70 72 73 74 76 78 80 79 84
41 43 37 32 29 32 27 24 21 20 18 17 28 52 56 57 56 54 50 48 47 50 50 51 54 60 62 65 67 67 67 68 69 71 74 76 78 79 83 83 84 85 87
44 44 40 32 31 34 30 27 23 21 18 18 17 37 56 55 59 57 55 53 53 55 54 54 55 57 62 64 67 69 69 71 72 74 77 79 80 81 85 87 89 88 88
49 48 40 35 35 36 28 31 30 26 20 19 18 19 41 53 56 59 58 57 58 60 61 61 61 61 64 66 68 70 73 74 76 79 80 82 84 86 89 90 90 89 86
51 50 45 40 41 39 36 35 31 30 24 21 21 17 20 33 47 57 64 61 59 60 60 62 63 63 66 67 71 74 76 79 80 80 83 86 89 87 89 86 82 87 87
56 50 48 46 44 43 41 38 36 30 25 24 22 23 19 21 28 40 52 68 66 67 65 66 66 69 72 74 76 76 77 80 82 84 83 84 86 88 88 87 80 71 68
57 55 51 47 45 44 44 42 37 29 30 24 19 22 27 24 22 25 31 38 53 73 75 76 78 75 79 81 81 80 81 79 83 83 85 83 81 77 70 65 64 63 65
59 56 55 49 47 47 42 44 40 34 34 33 22 20 20 29 29 27 25 27 31 40 48 53 56 66 68 71 74 77 81 78 76 73 70 64 61 58 58 61 66 67 70
52 54 58 50 35 36 46 43 41 37 37 39 30 28 24 25 31 34 33 30 30 30 31 33 37 42 46 50 53 54 55 57 57 58 57 56 58 61 65 68 74 73 77
57 55 56 56 50 53 43 46 49 48 46 41 42 35 34 30 30 31 36 38 39 40 41 41 42 42 45 49 51 53 53 54 56 57 59 62 64 68 72 74 80 82 84
61 55 56 54 49 47 46 35 38 52 40 44 48 46 38 37 36 38 41 41 42 45 45 46 49 52 54 56 59 60 60 61 62 63 65 68 71 79 76 85 86 90 93
66 61 59 59 57 54 48 53 55 36 40 47 50 48 40 47 45 47 46 51 52 50 51 55 58 59 59 61 63 65 67 69 73 74 77 80 81 85 88 90 94 97 100
61 61 64 66 64 58 54 54 53 54 50 49 48 48 48 48 53 53 56 51 52 53 56 60 61 64 69 72 73 73 74 76 77 79 82 84 87 90 93 96 99 102 104
65 65 68 68 65 62 61 53 49 44 43 47 50 53 56 58 60 57 58 54 53 58 63 66 66 68 68 73 76 78 81 84 87 89 91 93 96 99 101 104 107 109 112
68 66 65 65 65 66 62 54 55 52 51 52 50 54 53 60 64 64 63 64 67 71 68 70 71 75 77 76 76 78 79 84 89 93 96 100 104 107 109 109 111 114 118
75 72 67 67 69 67 61 57 53 57 57 60 62 61 63 65 65 63 68 76 81 76 73 72 72 79 81 80 81 83 85 87 91 95 97 102 105 109 111 111 111 110 109
79 80 81 77 74 68 64 61 61 60 60 64 66 70 72 74 73 75 81 81 77 75 73 76 78 75 76 80 81 81 81 84 85 88 92 95 97 97 96 97 96 96 101
83 82 77 68 67 67 68 69 70 70 71 73 76 77 76 79 83 83 79 74 73 74 76 70 63 62 65 70 75 77 78 80 86 91 94 97 98 101 100 100 104 110 114

GFSMW_250_spd_108.txt.gz
Wind_Speed
40 40 39 32 30 25 25 26 29 29 28 25 33 41 43 46 44 49 50 52 55 49 47 39 32 34 33 29 33 32 32 33 35 36 35 34 31 36 35 37 36 35 38
40 38 43 32 30 24 22 25 29 26 26 25 32 47 52 51 52 57 51 56 57 54 46 42 40 37 39 40 37 34 34 35 41 42 42 38 35 35 37 39 37 39 43
40 38 43 32 29 24 21 23 28 24 28 27 33 42 54 58 55 61 58 56 59 57 52 47 41 41 40 40 41 37 34 38 44 41 45 44 43 40 42 42 46 45 45
42 37 38 34 29 26 23 24 26 27 28 28 27 42 49 57 63 60 64 62 60 54 52 52 49 49 45 48 45 43 40 38 42 45 50 51 48 48 52 53 52 50 47
48 40 39 35 29 27 21 23 22 27 28 25 27 36 45 53 57 69 66 61 58 53 57 60 56 55 50 49 51 51 43 43 47 50 54 56 57 61 62 57 53 55 57
49 43 40 37 34 26 22 23 24 24 26 22 27 28 46 43 50 54 62 62 62 65 62 62 59 55 57 55 55 50 48 48 50 53 54 59 58 60 60 59 59 58 63
45 42 42 39 34 26 24 20 22 23 25 23 22 24 41 47 42 41 44 49 58 63 65 65 61 55 54 51 52 53 55 54 55 60 63 61 63 67 68 66 62 67 68
46 43 43 39 36 28 25 23 22 18 21 21 19 23 30 46 43 39 34 41 48 50 52 55 56 51 48 45 45 47 51 55 58 60 66 66 69 68 68 67 67 69 71
50 43 44 43 37 32 27 23 22 19 19 19 17 21 22 42 45 44 34 34 41 40 47 47 44 45 45 46 48 50 55 60 62 65 67 68 70 71 71 73 75 72 75
51 46 44 41 38 33 29 24 22 23 20 20 16 14 19 36 47 44 42 39 42 47 46 47 48 48 52 54 57 59 59 64 66 64 66 68 69 72 76 77 77 77 78
51 45 46 46 39 31 32 25 25 25 25 20 20 16 15 18 41 48 46 43 43 45 48 49 49 51 53 58 61 63 64 66 66 68 69 70 73 76 78 79 78 83 84
56 50 47 45 39 33 33 27 26 25 23 25 25 23 17 15 18 35 50 52 52 50 53 55 54 53 55 58 61 60 63 65 66 68 71 73 73 77 79 80 83 84 86
62 56 49 46 47 38 36 31 26 27 25 25 26 27 26 20 18 22 41 52 54 55 57 60 60 58 58 58 61 63 65 65 67 69 72 73 77 82 84 83 85 91 94
62 60 54 45 39 40 43 37 32 31 31 27 28 27 28 27 22 20 23 35 55 54 54 56 58 60 62 64 67 69 69 70 72 75 76 78 80 83 85 88 90 92 96
55 57 50 42 46 38 38 41 38 35 36 35 30 27 27 27 28 27 24 24 28 40 64 64 64 62 65 68 69 71 73 74 76 77 81 82 85 89 87 89 90 87 79
47 54 54 36 41 42 37 33 35 40 39 43 36 32 28 31 28 30 35 28 25 26 31 40 62 74 78 76 69 64 68 73 76 77 77 77 79 82 79 75 70 70 71
52 55 54 60 57 51 40 35 34 35 38 42 41 34 28 30 31 27 27 31 34 35 31 30 33 37 39 44 46 50 54 57 60 62 60 61 63 65 66 66 67 71 75
66 67 57 56 56 53 47 42 39 36 45 38 37 39 38 38 37 36 34 32 30 33 37 40 42 43 44 44 45 47 48 51 53 56 59 62 65 67 69 71 74 79 80
71 70 62 57 54 52 52 46 42 38 37 39 42 44 44 46 43 40 41 34 34 37 37 38 39 43 47 50 52 54 56 58 61 64 67 70 72 75 77 79 83 87 90
77 71 62 56 55 52 54 48 46 35 37 36 38 42 44 40 41 43 49 49 43 42 49 47 46 47 51 53 54 57 61 64 67 71 74 77 80 81 83 86 89 93 95
77 73 68 64 63 57 54 53 55 56 53 53 50 49 52 49 48 50 51 53 56 50 52 54 56 54 55 56 56 60 67 72 73 74 75 79 81 84 88 91 92 94 97
77 70 65 62 64 62 61 60 55 55 53 54 52 52 56 58 57 60 58 57 55 56 57 57 57 58 59 63 68 71 75 81 77 79 81 84 87 91 91 94 98 101 102
77 74 70 69 68 65 66 62 59 54 55 54 53 52 53 57 62 64 63 59 56 59 60 62 62 63 64 72 77 80 78 80 86 89 86 88 89 91 92 95 99 101 106
76 76 73 71 69 74 71 63 59 61 60 65 66 64 64 62 59 59 60 61 62 62 64 66 68 77 80 78 82 88 87 86 86 85 88 86 84 85 90 93 95 97 97
83 80 74 68 61 60 61 62 62 62 62 62 61 63 65 65 68 66 67 64 66 70 70 72 68 81 75 67 66 91 83 84 86 86 81 81 85 91 94 95 94 99 104
69 67 63 64 62 65 67 67 67 67 66 69 68 70 73 71 71 74 71 70 70 70 78 72 61 73 91 91 90 85 81 75 78 80 82 83 90 92 96 96 99 104 108

GFSMW_250_spd_111.txt.gz
Wind_Speed
42 37 37 47 44 38 40 36 29 24 21 21 18 17 28 28 29 31 35 29 38 45 48 59 44 39 35 28 21 23 21 24 26 24 25 26 29 28 34 33 30 31 32
41 38 40 47 44 39 37 32 25 21 20 19 20 15 32 33 36 33 33 29 35 40 46 47 47 46 40 32 28 28 28 29 28 32 33 32 33 34 35 35 34 37 35
40 39 46 46 42 40 34 29 22 19 19 21 19 16 30 40 38 40 38 43 44 44 45 51 51 45 39 38 32 31 34 29 29 32 35 40 39 37 41 42 44 43 43
40 43 49 45 44 39 34 28 23 20 22 24 22 17 24 45 45 45 48 49 53 56 53 52 51 47 39 39 36 35 32 32 39 37 41 41 45 42 44 47 49 50 50
37 45 49 48 41 37 35 27 23 19 20 23 23 19 18 44 54 52 53 54 52 59 57 55 57 46 42 43 41 41 46 44 46 45 45 43 50 49 48 51 52 54 57
39 50 47 45 40 37 34 27 22 19 20 23 24 21 20 29 55 59 60 59 58 57 56 57 55 54 50 48 50 49 48 48 52 51 44 46 51 52 55 58 59 60 62
46 48 44 48 44 39 34 30 24 17 19 21 22 21 21 20 48 62 61 64 64 62 56 54 55 54 50 50 50 51 53 55 56 51 55 51 50 53 60 61 64 67 67
49 51 51 51 48 38 34 32 26 19 17 19 22 18 20 20 22 58 60 63 62 64 63 62 58 52 52 54 54 57 55 56 51 55 56 55 57 58 58 62 65 67 70
51 51 56 54 49 41 37 36 28 20 17 19 20 18 19 17 15 36 53 51 59 65 66 66 61 60 60 57 58 59 56 53 50 55 56 53 54 54 59 59 62 66 71
57 56 59 55 49 43 39 37 30 21 21 18 22 18 15 14 11 16 44 45 42 46 49 54 55 54 52 51 53 54 54 55 54 56 55 53 55 59 62 64 67 66 68
61 57 53 51 48 43 42 38 29 25 21 21 21 22 16 12 10 11 29 45 43 41 41 44 46 48 46 49 53 51 52 56 55 54 54 57 62 65 68 71 69 71 70
64 56 51 54 52 46 45 42 34 28 24 21 22 22 24 13 13 11 17 34 44 42 42 39 44 46 48 49 50 56 56 53 52 55 58 62 63 67 71 71 72 71 73
64 52 51 49 48 46 48 42 34 29 26 22 21 17 21 21 14 15 14 22 37 43 41 41 40 43 45 49 53 53 51 53 54 56 60 64 66 68 71 73 73 75 77
60 56 53 48 45 41 44 44 37 31 31 25 25 25 21 23 22 17 17 18 24 41 45 44 45 48 51 54 57 60 61 62 63 65 66 67 68 68 71 75 79 82 86
62 55 53 53 48 47 46 42 41 38 34 29 29 29 29 27 24 25 21 21 22 23 42 38 49 53 54 56 58 59 61 61 62 63 66 69 72 75 80 83 84 84 85
61 61 55 56 53 50 47 42 37 40 41 39 35 34 33 32 26 28 31 28 25 26 28 38 46 34 46 56 59 62 64 67 69 72 75 77 82 83 82 84 81 76 75
62 59 56 58 59 53 46 42 36 39 38 38 34 36 34 34 32 31 31 28 30 30 30 33 35 38 40 45 47 47 47 48 51 53 54 58 62 62 62 64 67 69 72
68 62 59 60 59 49 46 47 47 43 40 40 35 37 34 29 30 33 30 31 35 32 33 32 35 40 40 39 40 41 42 45 47 50 52 56 59 62 65 67 70 74 78
73 66 64 62 64 59 51 53 51 49 43 40 37 37 35 34 34 33 37 37 36 41 41 41 39 39 40 40 44 47 49 50 52 56 57 60 62 65 68 71 75 78 81
71 75 68 67 63 67 57 57 48 49 46 44 42 39 42 43 39 37 41 40 44 42 43 44 47 45 45 49 50 49 51 57 59 58 61 67 69 71 74 78 82 84 87
76 71 74 70 64 68 66 60 58 55 54 50 48 48 42 47 48 48 44 43 42 41 41 45 51 54 55 54 53 55 60 64 63 62 64 70 76 81 82 84 88 89 92
78 72 70 70 69 65 66 69 66 61 57 52 48 50 46 49 46 53 56 58 54 54 52 53 55 56 57 56 55 59 61 64 65 69 72 78 82 83 84 91 93 92 99
86 80 79 73 68 66 64 63 64 64 60 55 56 60 60 57 61 62 63 63 56 53 53 61 59 60 59 62 61 63 65 69 71 75 79 78 79 90 91 89 92 97 98
79 77 74 74 72 67 62 65 67 65 64 59 60 66 66 65 64 64 62 58 56 58 56 56 68 67 63 65 67 72 72 68 77 79 80 73 83 80 93 96 97 95 98
81 81 76 73 68 68 70 71 70 70 68 67 67 68 67 66 65 64 63 63 65 64 60 62 65 68 73 69 70 73 72 70 73 80 83 82 75 87 99 101 102 103 105
82 82 82 79 75 71 70 72 69 70 71 72 70 69 71 67 66 68 71 69 67 68 68 67 70 72 82 72 80 78 79 79 80 83 85 89 96 99 101 103 106 107 103

GFSMW_250_spd_114.txt.gz
Wind_Speed
68 67 64 61 53 40 37 38 41 38 34 26 24 19 13 17 27 25 37 56 66 52 46 40 34 45 42 31 22 19 17 17 14 16 15 14 12 12 14 18 23 27 27
67 69 68 60 49 36 36 39 40 39 32 26 21 18 13 16 25 25 27 35 67 56 57 54 50 48 45 44 43 29 23 20 20 24 20 18 19 16 17 20 26 29 31
66 73 65 52 45 36 35 43 41 38 30 25 22 17 16 17 27 28 27 27 48 50 45 52 50 52 47 45 41 34 30 25 24 29 26 23 28 27 28 26 27 35 37
70 70 56 45 41 33 34 44 40 38 28 25 23 19 16 15 33 31 33 32 37 39 44 51 53 50 42 43 42 39 35 34 28 23 27 30 32 32 32 34 35 36 40
71 62 54 45 36 34 41 44 39 38 28 25 21 18 16 17 34 35 37 39 38 47 53 46 41 42 40 42 45 44 36 36 29 31 35 40 41 39 41 40 39 43 46
65 48 48 45 35 35 46 46 41 37 29 24 22 19 19 16 24 43 43 41 45 48 52 50 50 45 46 42 44 43 41 43 40 38 44 44 43 46 50 51 48 47 52
50 47 44 43 35 39 48 48 42 38 29 23 24 19 21 15 20 42 49 51 49 52 57 55 54 52 51 52 50 48 46 45 45 49 48 49 49 50 52 52 52 49 54
52 46 43 40 34 39 49 46 42 40 28 23 24 20 21 14 21 21 54 56 58 54 59 60 56 54 52 51 53 55 51 51 51 50 49 53 52 52 57 54 57 56 57
50 42 44 41 37 46 49 47 44 40 28 23 21 21 18 15 16 20 28 63 62 61 58 55 58 57 56 55 54 52 52 50 52 55 55 55 58 55 59 57 58 59 63
45 42 45 39 41 50 47 44 45 38 30 26 20 21 21 15 15 18 20 43 69 66 63 61 58 54 54 55 55 54 53 55 58 59 58 58 58 59 59 55 54 55 58
45 44 45 41 46 51 47 46 47 37 33 26 25 24 21 18 14 14 16 28 53 69 69 60 60 60 59 59 61 61 59 58 57 58 58 58 59 54 56 57 57 57 59
46 47 45 44 52 51 50 51 44 38 35 29 27 26 21 20 17 11 13 14 38 54 52 50 49 50 53 53 56 58 54 52 54 58 57 57 57 56 54 55 57 61 61
45 47 46 48 52 52 55 52 45 41 39 33 28 27 20 18 17 11 11 10 27 44 46 43 45 42 45 44 46 49 51 52 55 52 51 54 57 56 59 58 60 63 66
45 47 48 52 54 51 54 50 44 45 44 39 31 27 21 20 21 17 11 11 13 34 47 43 42 41 38 41 44 48 52 55 53 50 53 54 57 60 62 63 66 69 71
45 48 50 55 54 50 59 56 50 47 46 40 33 31 28 24 23 23 20 14 12 15 26 42 43 42 41 43 49 54 55 54 55 57 58 60 62 66 67 68 69 70 72
49 52 56 60 55 57 61 59 58 51 49 43 37 36 33 28 25 27 24 19 20 16 17 20 30 38 40 47 53 54 56 59 63 67 68 69 67 68 68 69 69 72 77
59 60 60 66 57 59 62 63 60 56 51 46 41 37 35 33 31 32 28 22 25 25 23 23 26 34 40 42 44 48 51 54 58 59 60 64 68 70 71 71 68 65 65
67 68 67 65 61 61 64 59 58 55 51 49 45 43 42 39 36 36 30 28 31 30 30 29 31 31 35 40 45 50 52 54 56 58 58 57 58 59 58 59 62 65 68
70 73 70 65 66 59 64 47 46 50 50 50 47 46 43 42 41 38 34 30 29 33 33 33 33 36 36 38 38 43 47 48 52 56 59 60 61 62 64 65 67 69 71
72 68 70 69 67 61 61 50 52 54 46 52 51 46 46 47 43 42 36 36 38 39 36 41 40 42 43 46 45 45 47 49 52 56 60 62 63 65 66 67 69 72 74
76 68 69 62 64 64 66 71 60 55 48 50 51 49 48 45 47 47 44 44 44 46 44 40 40 33 35 39 45 48 52 56 61 63 65 67 69 71 70 72 77 81 84
80 73 68 69 69 66 65 63 62 57 56 59 55 53 52 49 46 46 48 48 45 47 44 44 45 48 50 49 50 50 51 50 55 62 65 68 69 71 75 78 80 80 82
81 77 74 72 75 69 64 67 64 62 67 62 54 56 56 51 49 49 51 53 54 54 54 51 54 58 52 54 56 59 59 58 59 65 65 69 74 78 80 82 87 90 92
80 81 77 77 72 73 71 69 71 69 68 65 64 57 59 56 55 55 53 57 59 62 58 57 60 59 55 60 55 57 66 69 72 73 76 81 81 82 86 90 90 96 94
82 80 76 79 77 75 73 70 74 72 72 70 67 66 65 62 59 60 55 55 58 61 64 62 59 60 64 66 64 66 70 73 73 71 78 82 82 86 86 88 90 94 97
85 83 81 78 79 75 75 73 74 75 76 77 73 71 73 72 68 68 70 73 71 70 70 68 69 67 71 71 72 74 75 79 80 78 87 88 94 94 94 98 99 105 108

GFSMW_250_spd_120.txt.gz
Wind_Speed
58 59 61 64 67 67 66 66 61 57 51 51 44 31 28 34 34 30 28 29 36 31 44 49 45 39 35 35 40 35 26 27 24 19 18 15 13 12 10 9 9 11 12
66 60 64 68 70 69 67 67 59 56 53 49 40 30 29 35 34 31 28 28 30 31 47 52 47 40 38 39 39 32 29 27 27 23 16 18 16 15 16 15 11 11 10
61 59 65 67 68 67 65 65 64 55 52 48 39 32 33 37 35 29 30 28 28 34 48 55 49 46 40 42 39 35 32 32 28 25 23 23 20 14 16 18 16 17 14
64 62 66 70 69 66 59 60 59 54 56 47 38 33 36 39 35 29 31 25 31 35 45 52 57 48 46 44 42 43 38 37 34 34 29 27 24 21 22 25 28 25 23
67 62 67 66 57 60 58 56 57 53 53 46 36 34 37 39 34 29 29 23 33 34 39 56 56 56 57 48 43 45 45 41 38 36 34 34 34 29 24 26 29 31 32
68 63 64 59 62 61 55 54 54 50 51 42 35 37 38 38 32 32 30 24 34 32 34 56 58 53 52 45 42 42 47 46 44 40 40 39 40 36 36 32 33 34 36
64 61 59 62 58 54 54 53 53 47 50 39 35 39 41 37 33 31 29 27 33 35 35 49 53 54 55 51 52 52 52 49 50 44 40 37 37 36 33 33 36 39 43
64 63 60 55 56 54 55 54 51 48 48 38 37 42 44 38 36 32 30 33 29 39 36 37 56 57 56 57 56 52 53 50 48 43 39 39 39 39 38 39 44 46 52
61 58 59 61 63 58 56 57 48 47 43 40 39 44 43 39 36 32 29 29 25 43 38 39 48 56 62 58 62 58 55 58 49 48 46 42 41 43 45 45 49 51 51
62 60 60 59 58 56 53 54 50 49 43 41 43 47 44 40 37 31 29 21 29 40 45 42 45 57 67 66 70 62 59 60 53 51 52 50 48 49 50 51 54 56 58
61 63 64 63 63 56 59 57 53 49 42 45 49 49 41 42 39 33 28 25 20 33 45 48 46 55 61 67 68 69 69 67 65 60 53 48 51 52 55 55 56 59 59
67 66 66 64 61 57 60 58 53 52 42 49 55 53 44 45 40 34 29 20 20 25 32 54 54 52 57 68 66 64 62 63 58 55 50 52 57 58 57 56 57 60 64
73 72 68 64 64 62 62 57 54 52 44 53 60 55 47 45 40 34 29 25 23 21 27 38 63 59 64 68 72 74 71 62 58 57 60 56 56 58 63 64 65 65 67
72 71 70 67 66 61 54 58 53 48 48 58 63 56 51 45 40 34 30 26 24 22 24 31 44 68 65 72 76 74 69 64 63 61 56 54 59 62 66 65 65 65 65
65 63 62 60 59 55 54 56 52 44 52 62 64 60 53 48 42 36 31 27 24 22 22 23 27 44 73 71 73 72 67 62 60 62 59 60 63 56 64 65 65 64 63
62 62 59 59 58 55 54 55 47 47 56 64 67 63 56 49 46 42 35 32 29 23 20 19 17 22 34 71 76 67 62 61 57 63 59 61 65 63 66 63 62 67 67
60 60 61 58 54 53 53 49 44 49 60 68 67 61 57 52 48 45 39 36 32 29 24 23 20 28 33 37 47 60 64 59 55 55 60 63 62 64 67 66 69 71 72
60 59 61 57 57 54 50 44 49 52 64 70 65 60 58 54 51 46 43 39 36 31 27 23 25 25 39 43 46 50 53 54 57 59 61 59 61 66 69 71 66 72 74
62 63 62 60 59 55 46 48 52 60 71 68 61 60 58 57 54 49 42 41 38 35 31 30 30 30 30 43 52 53 56 56 61 61 62 65 65 67 71 72 74 78 83
64 66 65 64 57 53 49 53 56 69 74 68 60 59 60 60 57 50 43 39 40 42 39 37 35 35 35 39 42 55 56 56 60 56 55 58 63 67 70 74 78 77 76
65 66 65 66 60 49 51 56 62 62 68 68 63 61 60 59 60 54 49 44 46 46 47 45 42 42 41 40 45 45 45 50 56 64 69 72 71 73 75 76 77 77 78
65 63 65 62 61 49 53 62 78 68 71 68 66 64 63 61 60 57 56 53 51 51 50 50 49 47 44 44 43 38 39 44 50 57 62 65 68 70 69 68 69 72 74
56 61 59 61 54 50 56 70 73 68 64 65 69 66 60 58 59 60 58 55 55 55 55 55 53 51 46 46 48 50 53 49 48 52 59 62 67 70 71 72 75 76 74
48 51 56 57 54 53 62 79 81 78 64 61 62 62 57 58 56 60 58 59 56 58 60 57 56 53 51 51 53 58 59 58 54 56 56 56 60 65 68 70 73 75 79
44 44 46 49 51 56 71 81 77 79 67 54 59 57 48 48 51 51 55 59 60 57 58 59 57 56 56 58 61 64 65 67 66 67 64 64 70 72 72 72 74 78 82
43 43 46 48 53 62 81 83 79 75 74 69 65 66 60 53 52 55 53 59 63 64 63 67 66 64 61 63 65 68 69 70 71 71 73 76 77 77 79 80 84 88 91

GFSMW_250_spd_123.txt.gz
Wind_Speed
65 60 56 53 51 51 54 56 61 64 68 67 64 64 62 54 43 34 37 37 35 35 34 35 40 39 40 43 40 40 37 36 30 26 24 20 18 15 15 19 19 18 24
67 65 59 56 53 53 53 57 61 61 66 63 65 63 61 52 41 34 39 37 32 35 31 36 38 42 43 44 43 40 39 35 32 30 25 21 20 19 18 18 16 16 18
74 69 65 62 60 58 58 51 60 62 65 62 60 59 56 53 39 36 40 39 33 33 34 37 39 43 44 47 40 42 41 36 35 31 27 26 23 20 15 17 18 17 18
74 72 70 66 65 61 59 55 59 65 64 56 55 57 56 49 36 36 42 38 34 30 35 34 40 44 48 47 39 44 41 41 39 34 31 26 21 23 18 20 21 20 22
76 73 72 70 66 66 64 57 59 63 64 55 58 56 53 44 35 36 42 37 36 30 30 33 38 43 50 47 41 43 44 42 40 36 34 34 27 29 25 25 25 26 28
77 74 71 72 67 63 68 57 61 63 60 59 58 54 52 38 33 36 41 38 37 29 30 33 39 39 49 49 45 42 47 41 39 35 37 38 35 35 32 32 28 28 32
73 74 73 74 71 70 69 61 61 61 56 57 54 53 48 33 33 38 40 40 35 30 32 34 40 46 50 54 49 45 48 42 42 42 40 44 40 37 33 36 37 35 38
75 74 74 76 76 75 68 63 62 57 55 54 52 51 46 33 37 41 41 41 38 33 32 38 41 46 52 56 55 50 47 45 48 44 44 45 46 42 38 37 41 37 36
80 74 73 73 71 68 65 64 63 55 53 53 57 53 40 31 39 41 42 40 34 32 30 42 37 36 44 53 56 55 52 49 46 46 45 49 48 40 39 35 35 37 40
80 77 74 76 73 69 65 60 59 59 57 56 53 53 37 32 41 42 44 42 35 36 34 42 38 37 37 42 50 50 53 53 52 54 52 50 48 39 40 43 43 47 48
77 77 77 76 72 63 59 59 58 57 54 48 52 46 39 36 44 44 45 44 38 35 36 35 45 42 38 44 50 51 58 55 55 54 53 50 50 44 50 51 51 53 54
76 77 78 73 68 62 62 61 60 57 48 57 53 48 39 42 47 47 47 44 37 34 30 36 45 45 44 40 48 53 52 59 61 51 53 56 56 55 58 60 60 57 58
77 78 77 73 67 65 64 61 62 55 61 62 53 47 38 49 53 49 50 47 41 35 38 38 36 50 48 46 49 58 57 56 60 65 65 66 65 65 64 62 57 58 58
74 76 77 71 68 69 65 65 67 67 65 59 53 49 40 54 55 53 52 48 43 38 35 33 44 38 54 53 52 53 60 63 63 66 65 65 65 64 65 58 60 63 68
79 77 73 68 74 70 70 72 72 69 63 57 58 56 44 60 58 56 53 50 43 38 37 36 34 42 42 58 58 55 60 63 68 68 68 70 67 65 64 62 63 67 68
73 67 67 65 69 75 75 73 72 70 65 63 60 54 50 64 61 59 55 50 45 39 37 37 33 30 38 50 54 62 61 64 65 68 69 69 62 61 62 63 65 68 69
65 66 64 64 66 70 72 69 70 70 66 61 59 49 54 69 65 62 57 50 45 41 38 38 34 28 29 32 41 63 69 62 73 73 77 74 71 68 69 65 70 72 72
64 61 59 61 61 61 64 63 62 61 60 60 59 48 57 73 66 63 58 51 47 44 42 39 34 31 25 26 28 26 40 67 74 72 71 67 69 70 66 67 67 69 71
60 61 59 59 60 62 63 62 61 63 60 60 51 52 59 73 64 63 61 55 50 47 44 39 37 33 34 29 33 34 34 38 46 52 66 70 71 72 70 68 70 71 69
57 59 59 61 62 61 61 61 62 60 58 49 48 54 61 72 66 64 62 55 53 50 47 42 39 36 36 34 34 41 42 41 41 48 56 59 61 61 66 67 68 72 76
62 62 61 62 64 64 63 64 60 53 46 46 50 55 66 69 66 65 63 56 51 51 49 45 42 40 37 35 35 32 44 48 52 53 53 56 58 63 69 73 74 76 78
57 60 61 61 63 64 62 60 55 48 45 49 51 59 66 67 66 65 62 60 54 50 49 46 46 45 44 42 40 36 34 41 46 51 56 60 62 63 66 69 75 79 81
53 54 58 59 56 54 56 53 45 44 50 51 54 51 57 66 69 67 66 57 62 59 56 52 48 47 50 51 49 48 45 40 42 47 51 57 57 58 60 62 66 70 73
47 47 50 53 52 50 47 47 43 50 56 55 64 59 66 65 66 66 64 67 62 59 57 56 54 55 52 52 53 53 54 50 50 50 53 55 60 62 64 65 66 68 70
41 43 45 46 46 42 43 39 48 57 65 69 65 72 60 65 61 62 64 61 61 62 63 60 58 56 54 55 54 56 58 58 57 59 59 63 62 62 68 71 74 77 79
38 39 40 39 42 43 41 42 54 60 68 68 66 68 58 56 62 63 64 62 61 60 60 62 58 56 60 60 60 60 61 61 62 65 65 66 69 69 69 70 75 80 81

GFSMW_250_spd_126.txt.gz
Wind_Speed
75 74 71 72 68 58 60 56 56 54 53 49 50 48 56 66 61 63 60 49 40 35 37 43 37 33 33 38 40 40 36 41 36 34 29 25 26 22 23 20 18 19 14
76 79 69 62 60 66 60 57 59 56 52 51 48 51 57 57 61 65 53 45 40 34 37 42 38 33 33 36 39 44 44 43 38 33 33 29 27 27 25 20 21 20 18
76 74 62 61 64 64 61 62 62 60 57 56 55 49 55 59 60 62 55 43 38 35 39 42 36 34 36 38 38 45 40 40 39 36 39 35 32 30 26 23 23 23 21
80 73 66 64 61 62 65 63 64 64 62 62 54 52 55 60 60 62 57 47 37 37 41 41 36 37 34 37 38 45 42 41 36 37 42 39 34 29 26 25 22 21 21
79 80 77 75 68 60 65 64 65 65 64 66 55 51 56 55 56 61 56 43 36 38 42 39 35 35 33 37 39 44 43 42 38 39 42 39 35 31 27 27 26 25 26
79 75 75 74 71 70 68 66 65 63 64 67 57 54 61 59 61 58 52 40 36 38 44 39 37 34 31 34 40 42 45 43 39 43 42 41 37 32 33 30 32 33 31
82 84 82 76 70 71 70 68 66 62 64 68 65 63 61 60 61 57 46 38 35 39 46 40 36 34 30 33 40 43 46 40 44 44 44 43 40 34 34 32 35 35 32
89 86 78 75 72 73 72 68 66 65 62 64 66 66 64 59 56 54 43 41 36 41 45 40 34 32 33 36 40 45 48 43 42 44 48 44 41 34 38 37 39 41 41
86 86 83 79 77 76 73 68 62 63 66 69 69 67 61 56 58 54 44 40 40 44 44 38 33 32 37 39 43 44 49 48 42 39 47 46 39 39 37 42 42 44 41
86 85 81 76 79 77 76 71 64 63 67 72 68 63 59 57 58 54 43 39 43 47 45 40 36 32 35 40 41 47 49 49 45 42 47 46 44 43 39 40 45 42 43
90 84 77 76 78 74 74 71 68 66 64 68 66 64 61 57 56 48 40 42 45 50 45 38 33 34 34 42 42 47 54 52 49 50 47 45 47 46 43 42 46 45 41
85 79 76 78 81 78 76 73 71 65 66 68 66 62 56 54 51 40 35 41 46 50 48 41 35 33 34 45 42 45 47 52 48 49 53 48 48 45 47 48 46 43 43
78 78 78 79 78 75 73 71 68 66 68 65 62 56 52 51 45 42 37 45 47 51 48 44 36 33 38 44 45 46 48 49 51 46 47 49 49 50 46 45 47 48 47
77 78 81 83 77 74 71 68 67 67 67 64 63 61 55 54 49 46 41 49 49 52 49 47 38 37 37 37 50 47 51 52 55 54 54 56 52 53 52 54 54 54 57
73 74 76 77 78 75 74 70 63 63 66 65 66 63 61 55 58 47 42 51 52 54 51 49 40 39 35 35 48 53 53 56 58 59 61 58 55 56 59 61 60 62 59
69 69 65 70 72 66 68 66 64 64 64 63 64 63 63 62 57 52 43 51 55 55 53 49 44 40 37 35 42 55 55 55 60 60 60 59 59 57 60 61 64 63 65
59 71 72 70 69 66 71 67 69 66 67 70 71 70 66 65 63 56 45 51 60 58 55 53 47 43 39 38 38 47 50 59 56 56 58 61 59 61 64 68 68 70 72
58 64 73 74 74 74 76 72 68 66 70 71 71 72 71 70 66 59 47 53 63 63 56 53 49 45 41 37 38 35 43 51 57 60 58 59 65 66 62 68 69 69 69
59 62 64 69 75 76 77 74 72 71 72 76 73 73 72 68 63 56 46 56 67 65 58 56 50 45 41 39 37 34 33 40 47 53 60 63 60 57 62 66 67 70 68
59 60 60 58 61 65 70 72 72 68 69 70 76 76 72 65 63 50 51 56 69 67 59 56 52 47 43 40 36 33 31 30 33 35 40 49 62 69 68 69 70 71 72
62 59 57 57 57 61 63 64 63 65 65 64 63 63 61 61 54 46 52 58 70 68 61 58 54 50 46 43 38 35 35 39 37 37 37 41 46 49 51 56 59 62 67
55 54 53 55 58 59 62 64 63 63 60 60 61 60 61 53 44 48 52 62 69 68 62 61 56 52 50 46 40 36 35 35 41 46 43 43 45 47 52 58 63 65 68
50 52 53 52 53 56 58 61 64 65 63 62 63 63 50 42 38 46 51 65 66 66 62 62 58 55 54 51 46 42 41 39 40 40 39 43 49 52 57 59 62 67 71
42 43 45 45 45 50 54 55 56 58 60 61 59 51 48 52 45 49 57 66 62 64 64 62 57 54 57 56 51 48 46 46 44 44 46 47 47 48 52 58 61 66 70
37 39 40 41 43 45 48 49 49 50 51 53 51 49 52 57 50 53 59 62 63 64 66 65 65 61 61 56 53 53 51 49 50 52 53 55 56 57 58 61 62 65 69
36 36 36 37 39 39 41 42 43 42 43 46 50 53 53 52 53 59 60 62 65 65 65 67 65 64 61 56 56 56 57 58 57 58 59 59 61 64 65 68 67 69 70

GFSMW_250_spd_129.txt.gz
Wind_Speed
83 81 81 76 73 66 63 59 63 60 57 57 55 56 52 46 44 46 45 49 46 50 52 41 38 30 37 42 38 35 35 32 36 40 29 26 24 26 25 25 24 23 22
86 88 87 78 71 65 62 64 69 61 57 56 53 51 53 53 52 52 48 47 49 50 53 42 36 31 40 43 40 36 42 37 43 41 30 26 27 27 26 28 28 26 21
86 91 90 80 73 63 60 69 69 67 62 57 54 50 52 55 56 55 50 46 50 51 48 42 36 31 39 43 38 36 42 42 42 44 30 30 31 34 29 29 31 26 25
85 91 86 82 76 67 61 67 66 62 60 58 58 53 51 52 55 57 54 45 54 53 49 39 33 31 37 42 41 38 41 45 45 42 34 33 35 38 35 31 29 25 25
81 81 81 79 75 70 71 68 63 59 57 57 56 55 52 55 52 58 50 51 57 53 50 39 33 34 38 44 40 36 41 43 40 45 43 38 38 40 38 36 35 32 30
77 75 74 76 78 73 73 72 67 61 58 54 56 54 53 55 52 59 59 56 54 55 50 38 35 37 43 45 38 36 40 43 35 42 43 39 43 44 45 42 41 36 33
77 74 71 71 74 79 79 75 70 67 67 65 61 59 56 58 53 58 60 56 52 54 50 37 36 37 46 41 39 35 39 42 33 40 40 40 40 46 45 44 41 38 37
82 74 76 77 74 75 76 73 72 69 68 69 67 62 60 60 58 56 58 55 54 56 48 39 36 37 45 40 38 34 36 39 34 38 43 43 40 45 48 47 43 40 39
83 79 80 81 78 73 76 74 73 72 70 69 59 62 63 61 60 55 53 54 55 54 45 39 35 41 44 36 37 33 33 35 36 39 44 44 44 46 47 47 42 44 43
84 85 83 85 86 82 81 79 76 76 72 68 64 60 62 59 56 55 56 58 57 52 44 39 36 44 47 37 36 31 36 35 36 39 43 46 46 49 45 48 44 42 44
80 87 89 86 85 85 82 78 75 77 73 64 65 65 63 59 54 54 56 57 54 52 41 38 38 46 46 40 39 35 37 39 37 40 48 47 47 45 46 51 45 42 37
72 79 89 90 87 81 78 81 83 80 73 69 68 69 65 62 55 54 55 53 53 51 43 39 40 48 48 41 40 36 41 42 43 43 47 51 48 47 46 52 46 45 39
68 70 75 81 89 83 81 82 77 74 73 70 67 65 67 64 58 57 56 51 50 48 40 39 40 49 49 43 40 39 36 44 42 47 48 56 51 48 49 52 46 47 41
65 65 69 69 66 72 83 82 80 76 73 69 67 65 64 63 59 58 51 48 44 42 35 40 42 50 51 43 38 40 36 41 45 46 49 53 57 50 49 52 51 45 45
51 58 60 61 64 67 70 71 72 70 70 68 66 65 64 61 57 53 50 51 49 44 42 41 47 51 54 47 41 38 40 42 48 50 51 54 56 62 55 54 52 47 48
50 50 54 63 63 60 65 68 67 67 67 64 61 62 61 58 57 55 55 58 51 45 42 40 51 52 55 49 43 40 43 42 51 53 53 55 54 54 58 54 52 50 52
46 40 49 56 60 61 63 65 66 68 69 68 64 62 60 56 56 58 57 60 58 45 42 41 51 54 54 51 42 42 43 40 41 52 54 56 57 55 54 53 55 57 58
52 40 39 45 57 61 63 66 70 71 72 72 72 66 64 62 62 58 57 56 53 46 46 43 46 56 56 51 47 43 39 38 41 43 50 56 59 58 58 58 60 62 61
36 30 37 42 53 62 62 63 67 67 69 71 72 68 65 66 66 64 61 58 57 55 53 46 46 57 58 53 48 46 45 39 36 35 45 49 59 57 61 61 62 64 65
42 37 36 41 50 61 70 70 69 68 66 65 66 65 70 67 64 63 67 66 65 62 57 49 49 60 61 57 51 49 47 40 34 32 36 43 51 55 60 61 63 64 66
45 47 49 52 59 65 68 74 73 74 73 73 72 71 68 72 70 71 68 67 65 65 54 49 51 63 63 57 53 51 47 41 34 37 32 32 35 41 52 59 65 68 68
52 54 55 58 60 62 65 67 73 80 80 80 80 78 78 78 73 72 74 70 68 64 51 49 53 64 66 58 55 52 48 42 40 38 35 36 34 34 39 43 50 55 59
47 47 47 48 52 58 62 65 68 71 76 81 81 79 79 78 73 67 68 74 65 54 49 52 57 67 67 60 58 56 50 46 42 40 38 41 35 38 42 44 45 47 51
42 41 40 42 45 47 51 57 58 62 65 68 72 74 74 69 63 59 59 56 43 36 42 53 59 69 66 61 58 56 54 53 48 43 41 42 44 45 44 42 43 47 54
36 35 36 39 43 43 43 45 50 56 59 63 65 65 65 64 60 54 55 46 41 32 44 50 60 66 66 62 59 59 58 56 53 51 50 51 52 52 50 51 51 52 54
31 33 34 36 37 41 43 44 47 50 53 53 54 53 58 62 58 54 51 53 51 59 54 52 61 65 64 63 61 62 62 60 57 57 56 56 55 52 53 56 58 59 61

GFSMW_250_spd_132.txt.gz
Wind_Speed
101 100 96 93 91 82 80 77 72 66 61 63 63 61 61 58 57 52 49 47 45 45 43 38 36 42 45 32 28 34 35 34 34 34 34 33 35 32 23 23 24 24 26
93 94 94 95 93 86 83 79 74 70 66 67 64 64 64 59 57 54 52 46 45 48 44 42 38 41 44 36 32 37 38 35 35 37 39 33 29 30 23 24 25 24 26
90 92 89 89 86 85 84 82 77 72 71 68 65 66 66 64 57 56 52 46 45 46 44 43 42 43 41 37 32 36 43 39 35 38 36 32 32 29 27 27 24 27 28
88 91 80 82 83 84 85 82 78 75 74 70 66 63 63 64 64 59 54 46 46 49 47 45 45 44 42 36 32 35 41 42 38 39 44 38 38 32 29 29 25 31 32
85 78 79 79 76 75 74 76 77 74 76 73 69 64 59 60 62 61 59 51 48 48 48 47 45 45 43 34 31 33 39 43 40 38 44 46 38 39 37 31 31 37 37
72 74 75 74 72 70 65 68 69 73 75 75 72 66 60 54 56 57 58 51 46 46 49 47 46 46 42 37 32 38 39 41 41 40 44 51 39 41 41 34 37 41 38
67 66 68 69 68 62 63 65 63 67 71 71 73 67 64 65 58 53 53 52 49 48 53 51 48 46 42 37 35 40 41 43 42 41 45 47 44 42 43 40 42 44 43
67 62 64 65 65 60 64 68 66 64 66 74 73 72 66 58 55 57 55 54 54 57 54 49 48 45 44 38 39 41 44 44 45 38 45 42 45 44 47 47 45 45 47
67 65 61 63 64 67 67 70 65 66 66 68 67 69 69 68 66 64 60 63 59 53 52 48 46 45 46 41 39 42 46 47 44 38 40 42 43 45 47 49 47 49 49
64 66 62 59 66 68 68 67 65 68 70 69 69 70 70 68 67 63 59 58 55 52 49 48 47 47 46 37 38 44 46 47 43 38 40 43 45 49 50 48 48 47 51
59 65 62 62 66 71 69 68 66 66 66 64 65 66 65 64 63 62 59 55 52 49 46 49 47 44 43 44 39 42 45 45 41 37 42 42 41 48 51 51 49 46 46
61 62 60 61 63 70 72 75 75 75 73 71 73 69 66 64 66 65 61 56 53 51 48 48 46 44 46 45 40 41 46 44 40 37 42 39 40 45 48 47 48 47 44
60 55 55 56 60 66 75 78 83 82 73 71 71 70 69 69 67 66 62 55 56 54 50 47 48 47 43 45 41 41 45 45 43 38 43 42 40 44 48 48 46 48 47
63 57 50 53 50 59 72 82 83 79 78 78 78 76 74 71 67 67 65 59 60 57 57 50 51 46 45 45 42 43 46 46 44 39 45 44 43 44 50 51 53 54 52
57 52 53 50 51 58 66 78 79 80 80 78 77 75 73 73 72 70 63 59 60 58 54 49 49 44 42 41 44 44 48 46 43 44 43 48 48 47 49 55 57 57 54
65 63 62 57 58 50 57 63 70 78 80 78 79 77 75 73 70 66 63 60 57 56 53 52 44 46 45 45 43 43 49 46 44 44 40 49 52 47 52 55 58 60 56
65 65 63 59 53 51 53 55 60 64 70 77 80 79 76 73 71 70 64 63 61 59 57 47 32 36 50 46 43 45 50 49 44 43 42 42 49 50 49 51 57 59 61
52 56 56 56 46 51 47 48 53 56 59 65 68 67 66 69 69 66 61 61 60 55 50 43 32 44 56 53 47 48 51 52 47 45 41 40 45 52 51 49 53 57 59
53 51 46 41 40 45 48 47 49 53 54 59 65 67 66 64 62 58 59 57 56 49 51 53 49 52 56 49 44 47 51 52 48 47 44 42 43 47 56 52 50 53 58
45 48 48 44 42 36 40 46 53 57 57 61 68 69 66 67 67 64 60 59 57 51 52 58 54 53 50 46 43 41 53 52 51 48 45 38 40 39 44 50 57 56 57
50 52 54 55 54 49 41 44 56 63 64 67 69 71 72 71 68 66 65 65 63 59 56 56 55 35 52 46 44 45 53 55 52 51 49 48 40 38 36 43 46 55 60
45 49 54 56 58 61 61 58 61 70 74 76 76 77 77 77 77 75 71 68 63 63 60 55 54 54 53 52 49 49 54 56 55 53 51 47 40 35 35 35 36 46 54
45 47 51 55 58 64 64 67 72 76 81 78 73 75 78 78 77 73 66 66 65 65 65 61 60 57 57 51 50 53 55 58 57 55 53 46 43 38 37 37 35 33 36
43 42 44 46 49 64 69 71 70 70 71 70 69 73 75 76 77 75 69 66 66 73 73 65 59 59 59 54 51 55 58 60 59 58 54 50 48 45 47 42 41 43 45
45 45 44 44 46 52 60 66 69 69 70 65 61 65 69 73 76 74 70 70 71 67 68 69 69 68 60 50 55 58 61 62 61 57 54 52 54 52 51 50 49 47 46
36 38 41 42 42 44 47 53 56 60 63 67 66 60 60 63 66 71 72 72 72 73 72 66 62 57 66 70 67 66 62 63 61 58 57 58 59 59 58 54 55 56 56